Time,TemperatureF,DewpointF,PressureIn,WindDirection,WindDirectionDegrees,WindSpeedMPH,WindSpeedGustMPH,Humidity,HourlyPrecipIn,Conditions,Clouds,dailyrainin,SolarRadiationWatts/m^2,SoftwareType,DateUTC
2013-10-26 00:00:00,42.5,33.8,30.07,SW,219,0.0,4.0,71,0.00,,,0.00,0,WeatherCatV1.21B27,2013-10-26 05:00:00,
2013-10-26 00:02:00,42.4,33.7,30.06,SW,219,0.0,1.0,71,0.00,,,0.00,0,WeatherCatV1.21B27,2013-10-26 05:02:00,
2013-10-26 00:03:00,42.5,34.1,30.07,SW,219,1.0,4.0,72,0.00,,,0.00,0,WeatherCatV1.21B27,2013-10-26 05:03:00,
2013-10-26 00:04:00,42.4,34.0,30.07,SW,219,2.0,4.0,72,0.00,,,0.00,0,WeatherCatV1.21B27,2013-10-26 05:04:00,
2013-10-26 00:05:00,42.5,34.1,30.06,SW,219,3.0,5.0,72,0.00,,,0.00,0,WeatherCatV1.21B27,2013-10-26 05:05:00,
2013-10-26 00:07:00,42.5,34.1,30.06,SW,219,0.0,4.0,72,0.00,,,0.00,0,WeatherCatV1.21B27,2013-10-26 05:07:00,
2013-10-26 00:08:00,42.5,34.1,30.06,SW,219,1.0,5.0,72,0.00,,,0.00,0,WeatherCatV1.21B27,2013-10-26 05:08:00,
2013-10-26 00:09:00,42.5,34.1,30.06,SW,219,2.0,5.0,72,0.00,,,0.00,0,WeatherCatV1.21B27,2013-10-26 05:09:00,
2013-10-26 00:10:00,42.6,34.2,30.06,SW,219,2.0,2.0,72,0.00,,,0.00,0,WeatherCatV1.21B27,2013-10-26 05:10:00,
2013-10-26 00:12:00,42.8,34.4,30.06,SW,218,3.0,5.0,72,0.00,,,0.00,0,WeatherCatV1.21B27,2013-10-26 05:12:00,
2013-10-26 00:13:00,42.8,34.4,30.06,SW,219,0.0,4.0,72,0.00,,,0.00,0,WeatherCatV1.21B27,2013-10-26 05:13:00,
2013-10-26 00:14:00,42.9,34.5,30.06,SW,219,2.0,3.0,72,0.00,,,0.00,0,WeatherCatV1.21B27,2013-10-26 05:14:00,
2013-10-26 00:15:00,42.9,34.5,30.06,SW,219,0.0,3.0,72,0.00,,,0.00,0,WeatherCatV1.21B27,2013-10-26 05:15:00,
2013-10-26 00:16:00,42.9,34.5,30.06,SW,218,1.0,3.0,72,0.00,,,0.00,0,WeatherCatV1.21B27,2013-10-26 05:16:00,
2013-10-26 00:17:00,42.9,34.5,30.06,SW,219,0.0,3.0,72,0.00,,,0.00,0,WeatherCatV1.21B27,2013-10-26 05:17:00,
2013-10-26 00:18:00,43.0,34.2,30.06,SW,219,0.0,4.0,71,0.00,,,0.00,0,WeatherCatV1.21B27,2013-10-26 05:18:00,
2013-10-26 00:19:00,42.9,34.2,30.06,SW,218,0.0,4.0,71,0.00,,,0.00,0,WeatherCatV1.21B27,2013-10-26 05:19:00,
2013-10-26 00:20:00,42.9,34.5,30.06,SW,219,0.0,4.0,72,0.00,,,0.00,0,WeatherCatV1.21B27,2013-10-26 05:20:00,
2013-10-26 00:21:00,42.9,34.5,30.06,SW,218,1.0,3.0,72,0.00,,,0.00,0,WeatherCatV1.21B27,2013-10-26 05:21:00,
2013-10-26 00:22:00,42.9,34.5,30.06,SW,218,3.0,3.0,72,0.00,,,0.00,0,WeatherCatV1.21B27,2013-10-26 05:22:00,
2013-10-26 00:23:00,42.9,34.5,30.06,SW,218,1.0,3.0,72,0.00,,,0.00,0,WeatherCatV1.21B27,2013-10-26 05:23:00,
2013-10-26 00:24:00,42.9,34.5,30.06,SW,219,0.0,2.0,72,0.00,,,0.00,0,WeatherCatV1.21B27,2013-10-26 05:24:00,
2013-10-26 00:25:00,42.8,34.4,30.06,SW,219,4.0,4.0,72,0.00,,,0.00,0,WeatherCatV1.21B27,2013-10-26 05:25:00,
2013-10-26 00:26:00,42.8,34.4,30.06,SW,218,0.0,4.0,72,0.00,,,0.00,0,WeatherCatV1.21B27,2013-10-26 05:26:00,
2013-10-26 00:28:00,42.7,34.3,30.06,SW,219,0.0,0.0,72,0.00,,,0.00,0,WeatherCatV1.21B27,2013-10-26 05:28:00,
2013-10-26 00:29:00,42.7,34.3,30.06,SW,218,2.0,2.0,72,0.00,,,0.00,0,WeatherCatV1.21B27,2013-10-26 05:29:00,
2013-10-26 00:30:00,42.7,34.3,30.06,SW,219,3.0,6.0,72,0.00,,,0.00,0,WeatherCatV1.21B27,2013-10-26 05:30:00,
2013-10-26 00:31:00,42.7,34.3,30.06,SW,219,2.0,6.0,72,0.00,,,0.00,0,WeatherCatV1.21B27,2013-10-26 05:31:00,
2013-10-26 00:32:00,42.7,34.3,30.06,SW,219,2.0,4.0,72,0.00,,,0.00,0,WeatherCatV1.21B27,2013-10-26 05:32:00,
2013-10-26 00:33:00,42.7,34.3,30.06,SW,219,2.0,4.0,72,0.00,,,0.00,0,WeatherCatV1.21B27,2013-10-26 05:33:00,
2013-10-26 00:34:00,42.7,34.3,30.06,SW,218,0.0,3.0,72,0.00,,,0.00,0,WeatherCatV1.21B27,2013-10-26 05:34:00,
2013-10-26 00:35:00,42.7,34.3,30.06,SW,218,2.0,2.0,72,0.00,,,0.00,0,WeatherCatV1.21B27,2013-10-26 05:35:00,
2013-10-26 00:36:00,42.7,34.3,30.06,SW,219,0.0,4.0,72,0.00,,,0.00,0,WeatherCatV1.21B27,2013-10-26 05:36:00,
2013-10-26 00:37:00,42.7,34.3,30.06,SW,219,3.0,4.0,72,0.00,,,0.00,0,WeatherCatV1.21B27,2013-10-26 05:37:00,
2013-10-26 00:38:00,42.7,34.3,30.06,SW,219,0.0,6.0,72,0.00,,,0.00,0,WeatherCatV1.21B27,2013-10-26 05:38:00,
2013-10-26 00:39:00,42.7,34.3,30.06,SW,219,1.0,6.0,72,0.00,,,0.00,0,WeatherCatV1.21B27,2013-10-26 05:39:00,
2013-10-26 00:40:00,42.6,34.2,30.06,SW,219,0.0,5.0,72,0.00,,,0.00,0,WeatherCatV1.21B27,2013-10-26 05:40:00,
2013-10-26 00:41:00,42.6,34.2,30.06,SW,219,3.0,5.0,72,0.00,,,0.00,0,WeatherCatV1.21B27,2013-10-26 05:41:00,
2013-10-26 00:42:00,42.6,34.6,30.06,SW,219,2.0,5.0,73,0.00,,,0.00,0,WeatherCatV1.21B27,2013-10-26 05:42:00,
2013-10-26 00:43:00,42.6,34.6,30.06,SW,219,3.0,5.0,73,0.00,,,0.00,0,WeatherCatV1.21B27,2013-10-26 05:43:00,
2013-10-26 00:44:00,42.6,34.6,30.06,SW,219,2.0,4.0,73,0.00,,,0.00,0,WeatherCatV1.21B27,2013-10-26 05:44:00,
2013-10-26 00:45:00,42.6,34.6,30.06,SW,219,0.0,3.0,73,0.00,,,0.00,0,WeatherCatV1.21B27,2013-10-26 05:45:00,
2013-10-26 00:47:00,42.5,34.5,30.06,SW,219,0.0,3.0,73,0.00,,,0.00,0,WeatherCatV1.21B27,2013-10-26 05:47:00,
2013-10-26 00:48:00,42.5,34.5,30.06,SW,219,1.0,4.0,73,0.00,,,0.00,0,WeatherCatV1.21B27,2013-10-26 05:48:00,
2013-10-26 00:49:00,42.5,34.5,30.06,SW,219,1.0,4.0,73,0.00,,,0.00,0,WeatherCatV1.21B27,2013-10-26 05:49:00,
2013-10-26 00:50:00,42.5,34.5,30.06,SW,219,3.0,4.0,73,0.00,,,0.00,0,WeatherCatV1.21B27,2013-10-26 05:50:00,
2013-10-26 00:52:00,42.5,34.5,30.06,SW,219,0.0,3.0,73,0.00,,,0.00,0,WeatherCatV1.21B27,2013-10-26 05:52:00,
2013-10-26 00:53:00,42.5,34.5,30.06,SW,220,3.0,6.0,73,0.00,,,0.00,0,WeatherCatV1.21B27,2013-10-26 05:53:00,
2013-10-26 00:54:00,42.5,34.5,30.06,SW,220,0.0,6.0,73,0.00,,,0.00,0,WeatherCatV1.21B27,2013-10-26 05:54:00,
2013-10-26 00:55:00,42.5,34.5,30.06,SW,220,0.0,6.0,73,0.00,,,0.00,0,WeatherCatV1.21B27,2013-10-26 05:55:00,
2013-10-26 00:56:00,42.5,34.5,30.06,SW,219,0.0,6.0,73,0.00,,,0.00,0,WeatherCatV1.21B27,2013-10-26 05:56:00,
2013-10-26 00:57:00,42.5,34.5,30.06,SW,220,1.0,4.0,73,0.00,,,0.00,0,WeatherCatV1.21B27,2013-10-26 05:57:00,
2013-10-26 00:58:00,42.4,34.4,30.06,SW,219,0.0,4.0,73,0.00,,,0.00,0,WeatherCatV1.21B27,2013-10-26 05:58:00,
2013-10-26 00:59:00,42.4,34.4,30.06,SW,219,2.0,4.0,73,0.00,,,0.00,0,WeatherCatV1.21B27,2013-10-26 05:59:00,
2013-10-26 01:00:00,42.4,34.4,30.06,SW,219,0.0,2.0,73,0.00,,,0.00,0,WeatherCatV1.21B27,2013-10-26 06:00:00,
2013-10-26 01:01:00,42.4,34.7,30.06,SW,220,4.0,4.0,74,0.00,,,0.00,0,WeatherCatV1.21B27,2013-10-26 06:01:00,
2013-10-26 01:02:00,42.4,34.4,30.06,SW,220,2.0,4.0,73,0.00,,,0.00,0,WeatherCatV1.21B27,2013-10-26 06:02:00,
2013-10-26 01:03:00,42.3,34.6,30.06,SW,219,0.0,3.0,74,0.00,,,0.00,0,WeatherCatV1.21B27,2013-10-26 06:03:00,
2013-10-26 01:04:00,42.3,34.6,30.06,SW,220,1.0,3.0,74,0.00,,,0.00,0,WeatherCatV1.21B27,2013-10-26 06:04:00,
2013-10-26 01:05:00,42.2,34.5,30.06,SW,220,3.0,4.0,74,0.00,,,0.00,0,WeatherCatV1.21B27,2013-10-26 06:05:00,
2013-10-26 01:06:00,42.2,34.5,30.06,SW,219,0.0,4.0,74,0.00,,,0.00,0,WeatherCatV1.21B27,2013-10-26 06:06:00,
2013-10-26 01:08:00,42.2,34.5,30.06,SW,220,2.0,4.0,74,0.00,,,0.00,0,WeatherCatV1.21B27,2013-10-26 06:08:00,
2013-10-26 01:09:00,42.1,34.4,30.06,SW,220,3.0,4.0,74,0.00,,,0.00,0,WeatherCatV1.21B27,2013-10-26 06:09:00,
2013-10-26 01:10:00,42.1,34.4,30.06,SW,220,1.0,4.0,74,0.00,,,0.00,0,WeatherCatV1.21B27,2013-10-26 06:10:00,
2013-10-26 01:11:00,42.1,34.4,30.06,SW,220,0.0,3.0,74,0.00,,,0.00,0,WeatherCatV1.21B27,2013-10-26 06:11:00,
2013-10-26 01:12:00,42.1,34.4,30.06,SW,220,3.0,4.0,74,0.00,,,0.00,0,WeatherCatV1.21B27,2013-10-26 06:12:00,
2013-10-26 01:13:00,42.1,34.4,30.06,SW,219,0.0,4.0,74,0.00,,,0.00,0,WeatherCatV1.21B27,2013-10-26 06:13:00,
2013-10-26 01:14:00,42.0,34.3,30.06,SW,219,1.0,4.0,74,0.00,,,0.00,0,WeatherCatV1.21B27,2013-10-26 06:14:00,
2013-10-26 01:15:00,42.0,34.3,30.06,SW,219,3.0,4.0,74,0.00,,,0.00,0,WeatherCatV1.21B27,2013-10-26 06:15:00,
2013-10-26 01:16:00,42.0,34.3,30.06,SW,222,2.0,5.0,74,0.00,,,0.00,0,WeatherCatV1.21B27,2013-10-26 06:16:00,
2013-10-26 01:17:00,42.0,34.3,30.06,SW,222,0.0,6.0,74,0.00,,,0.00,0,WeatherCatV1.21B27,2013-10-26 06:17:00,
2013-10-26 01:18:00,41.9,34.2,30.06,SW,222,3.0,3.0,74,0.00,,,0.00,0,WeatherCatV1.21B27,2013-10-26 06:18:00,
2013-10-26 01:20:00,41.9,34.6,30.06,SW,222,1.0,5.0,75,0.00,,,0.00,0,WeatherCatV1.21B27,2013-10-26 06:20:00,
2013-10-26 01:21:00,41.9,34.6,30.06,SW,223,2.0,5.0,75,0.00,,,0.00,0,WeatherCatV1.21B27,2013-10-26 06:21:00,
2013-10-26 01:22:00,41.8,34.5,30.05,SW,223,3.0,4.0,75,0.00,,,0.00,0,WeatherCatV1.21B27,2013-10-26 06:22:00,
2013-10-26 01:24:00,41.8,34.5,30.06,SW,223,2.0,4.0,75,0.00,,,0.00,0,WeatherCatV1.21B27,2013-10-26 06:24:00,
2013-10-26 01:25:00,41.8,34.5,30.06,SW,222,2.0,3.0,75,0.00,,,0.00,0,WeatherCatV1.21B27,2013-10-26 06:25:00,
2013-10-26 01:26:00,41.8,34.5,30.06,SW,223,2.0,3.0,75,0.00,,,0.00,0,WeatherCatV1.21B27,2013-10-26 06:26:00,
2013-10-26 01:27:00,41.8,34.5,30.06,SW,223,2.0,3.0,75,0.00,,,0.00,0,WeatherCatV1.21B27,2013-10-26 06:27:00,
2013-10-26 01:29:00,41.8,34.5,30.05,SW,223,1.0,5.0,75,0.00,,,0.00,0,WeatherCatV1.21B27,2013-10-26 06:29:00,
2013-10-26 01:30:00,41.7,34.7,30.05,SW,223,3.0,5.0,76,0.00,,,0.00,0,WeatherCatV1.21B27,2013-10-26 06:30:00,
2013-10-26 01:31:00,41.7,34.7,30.05,SW,223,2.0,5.0,76,0.00,,,0.00,0,WeatherCatV1.21B27,2013-10-26 06:31:00,
2013-10-26 01:32:00,41.7,34.7,30.06,SW,223,1.0,5.0,76,0.00,,,0.00,0,WeatherCatV1.21B27,2013-10-26 06:32:00,
2013-10-26 01:34:00,41.7,34.7,30.05,SW,227,2.0,7.0,76,0.00,,,0.00,0,WeatherCatV1.21B27,2013-10-26 06:34:00,
2013-10-26 01:35:00,41.8,34.8,30.06,SW,227,4.0,4.0,76,0.00,,,0.00,0,WeatherCatV1.21B27,2013-10-26 06:35:00,
2013-10-26 01:36:00,41.8,34.8,30.06,SW,227,1.0,4.0,76,0.00,,,0.00,0,WeatherCatV1.21B27,2013-10-26 06:36:00,
2013-10-26 01:38:00,41.7,34.7,30.06,SW,227,3.0,4.0,76,0.00,,,0.00,0,WeatherCatV1.21B27,2013-10-26 06:38:00,
2013-10-26 01:39:00,41.7,34.7,30.06,SW,227,0.0,4.0,76,0.00,,,0.00,0,WeatherCatV1.21B27,2013-10-26 06:39:00,
2013-10-26 01:41:00,41.6,34.6,30.06,SW,227,0.0,4.0,76,0.00,,,0.00,0,WeatherCatV1.21B27,2013-10-26 06:41:00,
2013-10-26 01:42:00,41.6,34.6,30.06,SW,227,2.0,4.0,76,0.00,,,0.00,0,WeatherCatV1.21B27,2013-10-26 06:42:00,
2013-10-26 01:43:00,41.5,34.5,30.05,SW,227,0.0,4.0,76,0.00,,,0.00,0,WeatherCatV1.21B27,2013-10-26 06:43:00,
2013-10-26 01:44:00,41.5,34.5,30.05,SW,227,3.0,4.0,76,0.00,,,0.00,0,WeatherCatV1.21B27,2013-10-26 06:44:00,
2013-10-26 01:46:00,41.4,34.4,30.06,SW,227,2.0,4.0,76,0.00,,,0.00,0,WeatherCatV1.21B27,2013-10-26 06:46:00,
2013-10-26 01:47:00,41.4,34.4,30.06,SW,227,1.0,4.0,76,0.00,,,0.00,0,WeatherCatV1.21B27,2013-10-26 06:47:00,
2013-10-26 01:48:00,41.4,34.4,30.05,SW,227,3.0,4.0,76,0.00,,,0.00,0,WeatherCatV1.21B27,2013-10-26 06:48:00,
2013-10-26 01:49:00,41.4,34.4,30.05,SW,227,1.0,4.0,76,0.00,,,0.00,0,WeatherCatV1.21B27,2013-10-26 06:49:00,
2013-10-26 01:51:00,41.3,34.6,30.05,SW,227,0.0,4.0,77,0.00,,,0.00,0,WeatherCatV1.21B27,2013-10-26 06:51:00,
2013-10-26 01:52:00,41.3,34.6,30.05,SW,227,3.0,5.0,77,0.00,,,0.00,0,WeatherCatV1.21B27,2013-10-26 06:52:00,
2013-10-26 01:53:00,41.3,34.6,30.05,SW,227,1.0,5.0,77,0.00,,,0.00,0,WeatherCatV1.21B27,2013-10-26 06:53:00,
2013-10-26 01:54:00,41.3,34.6,30.05,SW,227,0.0,4.0,77,0.00,,,0.00,0,WeatherCatV1.21B27,2013-10-26 06:54:00,
2013-10-26 01:56:00,41.2,34.5,30.05,SW,227,0.0,1.0,77,0.00,,,0.00,0,WeatherCatV1.21B27,2013-10-26 06:56:00,
2013-10-26 01:57:00,41.1,34.5,30.05,SW,227,0.0,1.0,77,0.00,,,0.00,0,WeatherCatV1.21B27,2013-10-26 06:57:00,
2013-10-26 01:58:00,41.1,34.5,30.05,SW,227,0.0,0.0,77,0.00,,,0.00,0,WeatherCatV1.21B27,2013-10-26 06:58:00,
2013-10-26 01:59:00,41.1,34.5,30.05,SW,227,2.0,3.0,77,0.00,,,0.00,0,WeatherCatV1.21B27,2013-10-26 06:59:00,
2013-10-26 02:00:00,41.1,34.5,30.05,SW,227,0.0,3.0,77,0.00,,,0.00,0,WeatherCatV1.21B27,2013-10-26 07:00:00,
2013-10-26 02:01:00,41.0,34.3,30.05,SW,227,1.0,3.0,77,0.00,,,0.00,0,WeatherCatV1.21B27,2013-10-26 07:01:00,
2013-10-26 02:03:00,41.0,34.3,30.05,SW,227,3.0,3.0,77,0.00,,,0.00,0,WeatherCatV1.21B27,2013-10-26 07:03:00,
2013-10-26 02:04:00,41.0,34.3,30.05,SW,227,0.0,4.0,77,0.00,,,0.00,0,WeatherCatV1.21B27,2013-10-26 07:04:00,
2013-10-26 02:05:00,41.0,34.7,30.05,SW,227,0.0,2.0,78,0.00,,,0.00,0,WeatherCatV1.21B27,2013-10-26 07:05:00,
2013-10-26 02:06:00,41.0,34.7,30.05,SW,227,2.0,3.0,78,0.00,,,0.00,0,WeatherCatV1.21B27,2013-10-26 07:06:00,
2013-10-26 02:08:00,41.0,34.7,30.05,SW,227,4.0,5.0,78,0.00,,,0.00,0,WeatherCatV1.21B27,2013-10-26 07:08:00,
2013-10-26 02:09:00,41.0,34.7,30.05,SW,227,3.0,5.0,78,0.00,,,0.00,0,WeatherCatV1.21B27,2013-10-26 07:09:00,
2013-10-26 02:10:00,41.0,34.7,30.05,SW,227,1.0,3.0,78,0.00,,,0.00,0,WeatherCatV1.21B27,2013-10-26 07:10:00,
2013-10-26 02:11:00,41.0,34.7,30.05,SW,227,3.0,4.0,78,0.00,,,0.00,0,WeatherCatV1.21B27,2013-10-26 07:11:00,
2013-10-26 02:13:00,41.0,34.7,30.05,SW,229,2.0,5.0,78,0.00,,,0.00,0,WeatherCatV1.21B27,2013-10-26 07:13:00,
2013-10-26 02:14:00,41.0,34.7,30.05,SW,229,2.0,5.0,78,0.00,,,0.00,0,WeatherCatV1.21B27,2013-10-26 07:14:00,
2013-10-26 02:15:00,40.9,34.6,30.05,SW,229,1.0,5.0,78,0.00,,,0.00,0,WeatherCatV1.21B27,2013-10-26 07:15:00,
2013-10-26 02:16:00,40.9,34.6,30.05,SW,229,1.0,5.0,78,0.00,,,0.00,0,WeatherCatV1.21B27,2013-10-26 07:16:00,
2013-10-26 02:18:00,40.9,34.6,30.05,SW,229,1.0,3.0,78,0.00,,,0.00,0,WeatherCatV1.21B27,2013-10-26 07:18:00,
2013-10-26 02:20:00,40.9,34.6,30.05,SW,229,1.0,5.0,78,0.00,,,0.00,0,WeatherCatV1.21B27,2013-10-26 07:20:00,
2013-10-26 02:22:00,40.9,34.6,30.05,SW,229,2.0,4.0,78,0.00,,,0.00,0,WeatherCatV1.21B27,2013-10-26 07:22:00,
2013-10-26 02:23:00,40.9,34.6,30.05,SW,229,4.0,4.0,78,0.00,,,0.00,0,WeatherCatV1.21B27,2013-10-26 07:23:00,
2013-10-26 02:24:00,40.9,34.6,30.05,SW,230,2.0,5.0,78,0.00,,,0.00,0,WeatherCatV1.21B27,2013-10-26 07:24:00,
2013-10-26 02:25:00,40.9,34.6,30.05,SW,230,0.0,5.0,78,0.00,,,0.00,0,WeatherCatV1.21B27,2013-10-26 07:25:00,
2013-10-26 02:27:00,40.9,34.6,30.05,SW,233,3.0,7.0,78,0.00,,,0.00,0,WeatherCatV1.21B27,2013-10-26 07:27:00,
2013-10-26 02:29:00,41.0,34.7,30.05,SW,235,5.0,5.0,78,0.00,,,0.00,0,WeatherCatV1.21B27,2013-10-26 07:29:00,
2013-10-26 02:30:00,41.0,36.2,30.05,SW,235,1.0,5.0,83,0.00,,,0.00,0,WeatherCatV1.21B27,2013-10-26 07:30:00,
2013-10-26 02:31:00,41.0,35.0,30.05,SW,234,2.0,4.0,79,0.00,,,0.00,0,WeatherCatV1.21B27,2013-10-26 07:31:00,
2013-10-26 02:32:00,41.0,35.0,30.05,SW,235,3.0,4.0,79,0.00,,,0.00,0,WeatherCatV1.21B27,2013-10-26 07:32:00,
2013-10-26 02:34:00,41.1,35.1,30.05,SW,235,2.0,3.0,79,0.00,,,0.00,0,WeatherCatV1.21B27,2013-10-26 07:34:00,
2013-10-26 02:36:00,41.1,35.1,30.05,SW,234,0.0,4.0,79,0.00,,,0.00,0,WeatherCatV1.21B27,2013-10-26 07:36:00,
2013-10-26 02:37:00,41.1,35.1,30.05,SW,235,2.0,4.0,79,0.00,,,0.00,0,WeatherCatV1.21B27,2013-10-26 07:37:00,
2013-10-26 02:39:00,41.2,35.2,30.05,SW,235,2.0,4.0,79,0.00,,,0.00,0,WeatherCatV1.21B27,2013-10-26 07:39:00,
2013-10-26 02:41:00,41.4,35.4,30.06,SW,236,0.0,6.0,79,0.00,,,0.00,0,WeatherCatV1.21B27,2013-10-26 07:41:00,
2013-10-26 02:42:00,41.5,35.2,30.06,SW,236,2.0,3.0,78,0.00,,,0.00,0,WeatherCatV1.21B27,2013-10-26 07:42:00,
2013-10-26 02:44:00,41.5,35.2,30.06,WSW,237,3.0,4.0,78,0.00,,,0.00,0,WeatherCatV1.21B27,2013-10-26 07:44:00,
2013-10-26 02:45:00,41.6,35.3,30.06,WSW,237,3.0,5.0,78,0.00,,,0.00,0,WeatherCatV1.21B27,2013-10-26 07:45:00,
2013-10-26 02:46:00,41.6,35.3,30.06,WSW,237,2.0,5.0,78,0.00,,,0.00,0,WeatherCatV1.21B27,2013-10-26 07:46:00,
2013-10-26 02:47:00,41.6,35.3,30.06,WSW,237,0.0,5.0,78,0.00,,,0.00,0,WeatherCatV1.21B27,2013-10-26 07:47:00,
2013-10-26 02:49:00,41.7,35.4,30.06,WSW,238,0.0,6.0,78,0.00,,,0.00,0,WeatherCatV1.21B27,2013-10-26 07:49:00,
2013-10-26 02:50:00,41.7,35.4,30.06,WSW,238,2.0,6.0,78,0.00,,,0.00,0,WeatherCatV1.21B27,2013-10-26 07:50:00,
2013-10-26 02:51:00,41.7,35.4,30.06,WSW,241,2.0,7.0,78,0.00,,,0.00,0,WeatherCatV1.21B27,2013-10-26 07:51:00,
2013-10-26 02:52:00,41.7,35.4,30.06,WSW,242,1.0,7.0,78,0.00,,,0.00,0,WeatherCatV1.21B27,2013-10-26 07:52:00,
2013-10-26 02:54:00,41.8,35.5,30.06,WSW,243,2.0,3.0,78,0.00,,,0.00,0,WeatherCatV1.21B27,2013-10-26 07:54:00,
2013-10-26 02:55:00,41.8,35.5,30.06,WSW,243,1.0,4.0,78,0.00,,,0.00,0,WeatherCatV1.21B27,2013-10-26 07:55:00,
2013-10-26 02:57:00,41.7,35.4,30.06,WNW,291,2.0,9.0,78,0.00,,,0.00,0,WeatherCatV1.21B27,2013-10-26 07:57:00,
2013-10-26 02:58:00,41.7,35.4,30.06,WNW,298,3.0,9.0,78,0.00,,,0.00,0,WeatherCatV1.21B27,2013-10-26 07:58:00,
2013-10-26 02:59:00,41.6,35.3,30.06,WNW,298,0.0,3.0,78,0.00,,,0.00,0,WeatherCatV1.21B27,2013-10-26 07:59:00,
2013-10-26 03:00:00,41.6,35.3,30.06,WNW,298,2.0,3.0,78,0.00,,,0.00,0,WeatherCatV1.21B27,2013-10-26 08:00:00,
2013-10-26 03:02:00,41.6,35.3,30.06,WNW,299,3.0,5.0,78,0.00,,,0.00,0,WeatherCatV1.21B27,2013-10-26 08:02:00,
2013-10-26 03:03:00,41.5,35.2,30.06,WNW,299,3.0,5.0,78,0.00,,,0.00,0,WeatherCatV1.21B27,2013-10-26 08:03:00,
2013-10-26 03:04:00,41.5,35.2,30.06,NW,306,3.0,7.0,78,0.00,,,0.00,0,WeatherCatV1.21B27,2013-10-26 08:04:00,
2013-10-26 03:05:00,41.5,35.2,30.06,WNW,299,4.0,10.0,78,0.00,,,0.00,0,WeatherCatV1.21B27,2013-10-26 08:05:00,
2013-10-26 03:08:00,41.5,35.2,30.06,NW,311,1.0,4.0,78,0.00,,,0.00,0,WeatherCatV1.21B27,2013-10-26 08:08:00,
2013-10-26 03:09:00,41.5,35.2,30.05,NW,311,3.0,4.0,78,0.00,,,0.00,0,WeatherCatV1.21B27,2013-10-26 08:09:00,
2013-10-26 03:10:00,41.5,35.2,30.06,NW,323,6.0,9.0,78,0.00,,,0.00,0,WeatherCatV1.21B27,2013-10-26 08:10:00,
2013-10-26 03:13:00,41.5,35.5,30.06,NNW,337,1.0,12.0,79,0.00,,,0.00,0,WeatherCatV1.21B27,2013-10-26 08:13:00,
2013-10-26 03:14:00,41.6,35.6,30.06,NNW,336,4.0,9.0,79,0.00,,,0.00,0,WeatherCatV1.21B27,2013-10-26 08:14:00,
2013-10-26 03:15:00,41.6,35.6,30.06,NNW,336,4.0,9.0,79,0.00,,,0.00,0,WeatherCatV1.21B27,2013-10-26 08:15:00,
2013-10-26 03:16:00,41.6,35.6,30.06,West,259,5.0,9.0,79,0.00,,,0.00,0,WeatherCatV1.21B27,2013-10-26 08:16:00,
2013-10-26 03:18:00,41.8,35.8,30.06,West,269,0.0,9.0,79,0.00,,,0.00,0,WeatherCatV1.21B27,2013-10-26 08:18:00,
2013-10-26 03:20:00,41.8,35.8,30.06,NNW,343,9.0,10.0,79,0.00,,,0.00,0,WeatherCatV1.21B27,2013-10-26 08:20:00,
2013-10-26 03:21:00,41.9,35.9,30.06,North,355,3.0,10.0,79,0.00,,,0.00,0,WeatherCatV1.21B27,2013-10-26 08:21:00,
2013-10-26 03:23:00,42.1,36.1,30.06,WNW,282,11.0,12.0,79,0.00,,,0.00,0,WeatherCatV1.21B27,2013-10-26 08:23:00,
2013-10-26 03:24:00,42.3,36.6,30.06,NNW,338,6.0,12.0,80,0.00,,,0.00,0,WeatherCatV1.21B27,2013-10-26 08:24:00,
2013-10-26 03:25:00,42.3,36.6,30.06,NNW,338,6.0,7.0,80,0.00,,,0.00,0,WeatherCatV1.21B27,2013-10-26 08:25:00,
2013-10-26 03:26:00,42.6,36.9,30.06,NNW,342,9.0,13.0,80,0.00,,,0.00,0,WeatherCatV1.21B27,2013-10-26 08:26:00,
2013-10-26 03:28:00,42.8,36.8,30.06,WNW,303,4.0,11.0,79,0.00,,,0.00,0,WeatherCatV1.21B27,2013-10-26 08:28:00,
2013-10-26 03:29:00,42.9,36.8,30.06,NW,306,12.0,13.0,79,0.00,,,0.00,0,WeatherCatV1.21B27,2013-10-26 08:29:00,
2013-10-26 03:30:00,43.0,36.9,30.06,NW,325,8.0,13.0,79,0.00,,,0.00,0,WeatherCatV1.21B27,2013-10-26 08:30:00,
2013-10-26 03:32:00,43.3,37.2,30.06,NNW,338,4.0,14.0,79,0.00,,,0.00,0,WeatherCatV1.21B27,2013-10-26 08:32:00,
2013-10-26 03:34:00,43.5,37.4,30.06,NNE,23,5.0,11.0,79,0.00,,,0.00,0,WeatherCatV1.21B27,2013-10-26 08:34:00,
2013-10-26 03:35:00,43.5,37.1,30.06,NNW,328,6.0,10.0,78,0.00,,,0.00,0,WeatherCatV1.21B27,2013-10-26 08:35:00,
2013-10-26 03:37:00,43.6,37.2,30.06,NW,320,12.0,12.0,78,0.00,,,0.00,0,WeatherCatV1.21B27,2013-10-26 08:37:00,
2013-10-26 03:39:00,43.7,37.3,30.06,NW,315,2.0,15.0,78,0.00,,,0.00,0,WeatherCatV1.21B27,2013-10-26 08:39:00,
2013-10-26 03:40:00,43.8,37.4,30.06,NNW,327,4.0,9.0,78,0.00,,,0.00,0,WeatherCatV1.21B27,2013-10-26 08:40:00,
2013-10-26 03:41:00,43.8,37.4,30.06,NW,318,11.0,11.0,78,0.00,,,0.00,0,WeatherCatV1.21B27,2013-10-26 08:41:00,
2013-10-26 03:42:00,43.9,37.5,30.07,NNW,342,11.0,11.0,78,0.00,,,0.00,0,WeatherCatV1.21B27,2013-10-26 08:42:00,
2013-10-26 03:44:00,44.1,37.7,30.07,NNW,331,8.0,10.0,78,0.00,,,0.00,0,WeatherCatV1.21B27,2013-10-26 08:44:00,
2013-10-26 03:45:00,44.2,37.8,30.07,North,9,3.0,10.0,78,0.00,,,0.00,0,WeatherCatV1.21B27,2013-10-26 08:45:00,
2013-10-26 03:46:00,44.2,37.5,30.07,NNW,345,6.0,6.0,77,0.00,,,0.00,0,WeatherCatV1.21B27,2013-10-26 08:46:00,
2013-10-26 03:47:00,44.2,37.5,30.07,NNE,26,3.0,11.0,77,0.00,,,0.00,0,WeatherCatV1.21B27,2013-10-26 08:47:00,
2013-10-26 03:49:00,44.3,37.5,30.07,North,355,4.0,15.0,77,0.00,,,0.00,0,WeatherCatV1.21B27,2013-10-26 08:49:00,
2013-10-26 03:50:00,44.4,37.7,30.07,North,355,1.0,15.0,77,0.00,,,0.00,0,WeatherCatV1.21B27,2013-10-26 08:50:00,
2013-10-26 03:51:00,44.4,37.7,30.07,NW,313,0.0,8.0,77,0.00,,,0.00,0,WeatherCatV1.21B27,2013-10-26 08:51:00,
2013-10-26 03:52:00,44.4,37.7,30.07,NNW,327,2.0,8.0,77,0.00,,,0.00,0,WeatherCatV1.21B27,2013-10-26 08:52:00,
2013-10-26 03:54:00,44.4,37.7,30.07,NNW,327,0.0,11.0,77,0.00,,,0.00,0,WeatherCatV1.21B27,2013-10-26 08:54:00,
2013-10-26 03:55:00,44.4,37.7,30.07,NNW,328,1.0,3.0,77,0.00,,,0.00,0,WeatherCatV1.21B27,2013-10-26 08:55:00,
2013-10-26 03:56:00,44.4,37.7,30.07,NW,320,5.0,11.0,77,0.00,,,0.00,0,WeatherCatV1.21B27,2013-10-26 08:56:00,
2013-10-26 03:57:00,44.5,37.8,30.07,NNW,332,4.0,11.0,77,0.00,,,0.00,0,WeatherCatV1.21B27,2013-10-26 08:57:00,
2013-10-26 03:59:00,44.5,37.8,30.07,NNW,342,5.0,9.0,77,0.00,,,0.00,0,WeatherCatV1.21B27,2013-10-26 08:59:00,
2013-10-26 04:01:00,44.6,37.8,30.07,NNE,15,10.0,10.0,77,0.00,,,0.00,0,WeatherCatV1.21B27,2013-10-26 09:01:00,
2013-10-26 04:02:00,44.6,37.8,30.07,North,349,4.0,10.0,77,0.00,,,0.00,0,WeatherCatV1.21B27,2013-10-26 09:02:00,
2013-10-26 04:03:00,44.7,37.9,30.07,NNW,329,5.0,7.0,77,0.00,,,0.00,0,WeatherCatV1.21B27,2013-10-26 09:03:00,
2013-10-26 04:04:00,44.9,38.1,30.07,North,0,3.0,9.0,77,0.00,,,0.00,0,WeatherCatV1.21B27,2013-10-26 09:04:00,
2013-10-26 04:06:00,45.0,38.2,30.07,NNW,345,11.0,13.0,77,0.00,,,0.00,0,WeatherCatV1.21B27,2013-10-26 09:06:00,
2013-10-26 04:07:00,45.0,38.2,30.07,NNW,345,4.0,13.0,77,0.00,,,0.00,0,WeatherCatV1.21B27,2013-10-26 09:07:00,
2013-10-26 04:08:00,45.1,38.3,30.07,North,350,5.0,10.0,77,0.00,,,0.00,0,WeatherCatV1.21B27,2013-10-26 09:08:00,
2013-10-26 04:09:00,45.2,38.4,30.07,NNW,337,5.0,11.0,77,0.00,,,0.00,0,WeatherCatV1.21B27,2013-10-26 09:09:00,
2013-10-26 04:11:00,45.3,38.2,30.07,NW,309,4.0,11.0,76,0.00,,,0.00,0,WeatherCatV1.21B27,2013-10-26 09:11:00,
2013-10-26 04:12:00,45.3,38.2,30.07,NNE,23,2.0,11.0,76,0.00,,,0.00,0,WeatherCatV1.21B27,2013-10-26 09:12:00,
2013-10-26 04:13:00,45.5,38.4,30.07,NNW,336,3.0,8.0,76,0.00,,,0.00,0,WeatherCatV1.21B27,2013-10-26 09:13:00,
2013-10-26 04:15:00,45.6,38.5,30.07,NNW,347,2.0,10.0,76,0.00,,,0.00,0,WeatherCatV1.21B27,2013-10-26 09:15:00,
2013-10-26 04:16:00,45.7,38.6,30.07,NNW,336,5.0,11.0,76,0.00,,,0.00,0,WeatherCatV1.21B27,2013-10-26 09:16:00,
2013-10-26 04:17:00,45.8,38.7,30.07,NW,325,4.0,11.0,76,0.00,,,0.00,0,WeatherCatV1.21B27,2013-10-26 09:17:00,
2013-10-26 04:18:00,45.8,38.7,30.07,North,350,4.0,12.0,76,0.00,,,0.00,0,WeatherCatV1.21B27,2013-10-26 09:18:00,
2013-10-26 04:19:00,45.9,38.8,30.08,North,10,4.0,12.0,76,0.00,,,0.00,0,WeatherCatV1.21B27,2013-10-26 09:19:00,
2013-10-26 04:20:00,45.9,38.4,30.08,North,9,4.0,12.0,75,0.00,,,0.00,0,WeatherCatV1.21B27,2013-10-26 09:20:00,
2013-10-26 04:21:00,46.0,38.5,30.08,NW,313,3.0,9.0,75,0.00,,,0.00,0,WeatherCatV1.21B27,2013-10-26 09:21:00,
2013-10-26 04:23:00,46.0,38.5,30.08,North,5,1.0,9.0,75,0.00,,,0.00,0,WeatherCatV1.21B27,2013-10-26 09:23:00,
2013-10-26 04:24:00,46.1,38.6,30.08,NNW,331,2.0,6.0,75,0.00,,,0.00,0,WeatherCatV1.21B27,2013-10-26 09:24:00,
2013-10-26 04:25:00,46.1,38.6,30.08,NNW,333,4.0,10.0,75,0.00,,,0.00,0,WeatherCatV1.21B27,2013-10-26 09:25:00,
2013-10-26 04:26:00,46.1,38.6,30.08,NNW,346,4.0,9.0,75,0.00,,,0.00,0,WeatherCatV1.21B27,2013-10-26 09:26:00,
2013-10-26 04:28:00,46.1,38.6,30.08,NNW,343,3.0,8.0,75,0.00,,,0.00,0,WeatherCatV1.21B27,2013-10-26 09:28:00,
2013-10-26 04:29:00,46.1,38.6,30.08,NNW,336,4.0,7.0,75,0.00,,,0.00,0,WeatherCatV1.21B27,2013-10-26 09:29:00,
2013-10-26 04:30:00,46.1,38.6,30.08,NNW,331,4.0,7.0,75,0.00,,,0.00,0,WeatherCatV1.21B27,2013-10-26 09:30:00,
2013-10-26 04:31:00,46.1,38.6,30.08,North,355,3.0,10.0,75,0.00,,,0.00,0,WeatherCatV1.21B27,2013-10-26 09:31:00,
2013-10-26 04:33:00,46.0,38.5,30.08,NNW,338,9.0,9.0,75,0.00,,,0.00,0,WeatherCatV1.21B27,2013-10-26 09:33:00,
2013-10-26 04:35:00,46.0,38.5,30.08,North,0,2.0,11.0,75,0.00,,,0.00,0,WeatherCatV1.21B27,2013-10-26 09:35:00,
2013-10-26 04:37:00,46.0,38.5,30.08,North,355,4.0,11.0,75,0.00,,,0.00,0,WeatherCatV1.21B27,2013-10-26 09:37:00,
2013-10-26 04:38:00,46.0,38.5,30.08,NNW,327,3.0,11.0,75,0.00,,,0.00,0,WeatherCatV1.21B27,2013-10-26 09:38:00,
2013-10-26 04:40:00,46.0,38.5,30.08,NW,325,4.0,6.0,75,0.00,,,0.00,0,WeatherCatV1.21B27,2013-10-26 09:40:00,
2013-10-26 04:42:00,45.9,38.4,30.08,WNW,303,11.0,11.0,75,0.00,,,0.00,0,WeatherCatV1.21B27,2013-10-26 09:42:00,
2013-10-26 04:44:00,45.9,38.4,30.08,NNW,335,2.0,11.0,75,0.00,,,0.00,0,WeatherCatV1.21B27,2013-10-26 09:44:00,
2013-10-26 04:45:00,45.9,38.4,30.09,NW,325,3.0,8.0,75,0.00,,,0.00,0,WeatherCatV1.21B27,2013-10-26 09:45:00,
2013-10-26 04:47:00,46.0,38.5,30.09,North,0,2.0,10.0,75,0.00,,,0.00,0,WeatherCatV1.21B27,2013-10-26 09:47:00,
2013-10-26 04:49:00,45.9,38.4,30.09,NNW,336,3.0,7.0,75,0.00,,,0.00,0,WeatherCatV1.21B27,2013-10-26 09:49:00,
2013-10-26 04:50:00,45.9,38.4,30.09,NNW,332,5.0,7.0,75,0.00,,,0.00,0,WeatherCatV1.21B27,2013-10-26 09:50:00,
2013-10-26 04:51:00,45.9,38.4,30.09,North,9,9.0,9.0,75,0.00,,,0.00,0,WeatherCatV1.21B27,2013-10-26 09:51:00,
2013-10-26 04:53:00,45.9,38.4,30.09,NW,319,2.0,6.0,75,0.00,,,0.00,0,WeatherCatV1.21B27,2013-10-26 09:53:00,
2013-10-26 04:54:00,45.8,38.3,30.09,NNW,333,0.0,5.0,75,0.00,,,0.00,0,WeatherCatV1.21B27,2013-10-26 09:54:00,
2013-10-26 04:55:00,45.8,38.7,30.10,NNW,333,1.0,3.0,76,0.00,,,0.00,0,WeatherCatV1.21B27,2013-10-26 09:55:00,
2013-10-26 04:56:00,45.8,38.3,30.10,NNE,26,5.0,8.0,75,0.00,,,0.00,0,WeatherCatV1.21B27,2013-10-26 09:56:00,
2013-10-26 04:58:00,45.7,38.6,30.10,NNE,25,1.0,6.0,76,0.00,,,0.00,0,WeatherCatV1.21B27,2013-10-26 09:58:00,
2013-10-26 04:59:00,45.6,38.5,30.10,NNE,21,2.0,6.0,76,0.00,,,0.00,0,WeatherCatV1.21B27,2013-10-26 09:59:00,
2013-10-26 05:00:00,45.6,38.5,30.10,North,11,4.0,5.0,76,0.00,,,0.00,0,WeatherCatV1.21B27,2013-10-26 10:00:00,
2013-10-26 05:01:00,45.6,38.5,30.10,North,11,9.0,9.0,76,0.00,,,0.00,0,WeatherCatV1.21B27,2013-10-26 10:01:00,
2013-10-26 05:04:00,45.6,38.5,30.10,NW,314,6.0,6.0,76,0.00,,,0.00,0,WeatherCatV1.21B27,2013-10-26 10:04:00,
2013-10-26 05:05:00,45.6,38.5,30.10,NW,315,2.0,6.0,76,0.00,,,0.00,0,WeatherCatV1.21B27,2013-10-26 10:05:00,
2013-10-26 05:08:00,45.5,38.4,30.10,NW,317,2.0,7.0,76,0.00,,,0.00,0,WeatherCatV1.21B27,2013-10-26 10:08:00,
2013-10-26 05:09:00,45.5,38.4,30.10,NNW,347,4.0,11.0,76,0.00,,,0.00,0,WeatherCatV1.21B27,2013-10-26 10:09:00,
2013-10-26 05:10:00,45.6,38.5,30.10,North,0,4.0,11.0,76,0.00,,,0.00,0,WeatherCatV1.21B27,2013-10-26 10:10:00,
2013-10-26 05:11:00,45.6,38.5,30.10,North,9,3.0,6.0,76,0.00,,,0.00,0,WeatherCatV1.21B27,2013-10-26 10:11:00,
2013-10-26 05:13:00,45.5,38.4,30.10,NW,317,2.0,9.0,76,0.00,,,0.00,0,WeatherCatV1.21B27,2013-10-26 10:13:00,
2013-10-26 05:14:00,45.5,38.4,30.11,NNW,333,4.0,6.0,76,0.00,,,0.00,0,WeatherCatV1.21B27,2013-10-26 10:14:00,
2013-10-26 05:15:00,45.5,38.4,30.11,NNW,336,3.0,7.0,76,0.00,,,0.00,0,WeatherCatV1.21B27,2013-10-26 10:15:00,
2013-10-26 05:16:00,45.5,38.4,30.11,NNW,327,7.0,10.0,76,0.00,,,0.00,0,WeatherCatV1.21B27,2013-10-26 10:16:00,
2013-10-26 05:18:00,45.5,38.4,30.11,NNW,337,4.0,8.0,76,0.00,,,0.00,0,WeatherCatV1.21B27,2013-10-26 10:18:00,
2013-10-26 05:19:00,45.5,38.4,30.11,North,350,2.0,6.0,76,0.00,,,0.00,0,WeatherCatV1.21B27,2013-10-26 10:19:00,
2013-10-26 05:20:00,45.4,38.3,30.11,NNW,348,4.0,6.0,76,0.00,,,0.00,0,WeatherCatV1.21B27,2013-10-26 10:20:00,
2013-10-26 05:21:00,45.4,38.3,30.11,NW,311,10.0,11.0,76,0.00,,,0.00,0,WeatherCatV1.21B27,2013-10-26 10:21:00,
2013-10-26 05:23:00,45.4,38.3,30.11,NW,306,9.0,9.0,76,0.00,,,0.00,0,WeatherCatV1.21B27,2013-10-26 10:23:00,
2013-10-26 05:24:00,45.4,38.3,30.11,NW,315,1.0,9.0,76,0.00,,,0.00,0,WeatherCatV1.21B27,2013-10-26 10:24:00,
2013-10-26 05:25:00,45.4,38.3,30.11,NW,318,3.0,6.0,76,0.00,,,0.00,0,WeatherCatV1.21B27,2013-10-26 10:25:00,
2013-10-26 05:26:00,45.4,38.3,30.11,NW,325,2.0,6.0,76,0.00,,,0.00,0,WeatherCatV1.21B27,2013-10-26 10:26:00,
2013-10-26 05:29:00,45.3,38.5,30.11,NNW,331,3.0,8.0,77,0.00,,,0.00,0,WeatherCatV1.21B27,2013-10-26 10:29:00,
2013-10-26 05:30:00,45.2,38.4,30.12,NNW,330,3.0,9.0,77,0.00,,,0.00,0,WeatherCatV1.21B27,2013-10-26 10:30:00,
2013-10-26 05:31:00,45.2,38.4,30.12,NNE,13,3.0,12.0,77,0.00,,,0.00,0,WeatherCatV1.21B27,2013-10-26 10:31:00,
2013-10-26 05:32:00,45.2,38.4,30.12,North,10,3.0,12.0,77,0.00,,,0.00,0,WeatherCatV1.21B27,2013-10-26 10:32:00,
2013-10-26 05:34:00,45.1,38.3,30.12,NNW,346,3.0,7.0,77,0.00,,,0.00,0,WeatherCatV1.21B27,2013-10-26 10:34:00,
2013-10-26 05:35:00,45.1,38.3,30.12,NNW,330,3.0,7.0,77,0.00,,,0.00,0,WeatherCatV1.21B27,2013-10-26 10:35:00,
2013-10-26 05:36:00,45.0,38.2,30.12,NW,320,4.0,6.0,77,0.00,,,0.00,0,WeatherCatV1.21B27,2013-10-26 10:36:00,
2013-10-26 05:37:00,45.0,38.2,30.12,North,0,4.0,8.0,77,0.00,,,0.00,0,WeatherCatV1.21B27,2013-10-26 10:37:00,
2013-10-26 05:40:00,45.0,38.2,30.12,North,11,5.0,9.0,77,0.00,,,0.00,0,WeatherCatV1.21B27,2013-10-26 10:40:00,
2013-10-26 05:41:00,45.0,38.2,30.12,NNE,15,7.0,7.0,77,0.00,,,0.00,0,WeatherCatV1.21B27,2013-10-26 10:41:00,
2013-10-26 05:42:00,45.0,38.2,30.12,North,5,3.0,10.0,77,0.00,,,0.00,0,WeatherCatV1.21B27,2013-10-26 10:42:00,
2013-10-26 05:45:00,44.9,38.1,30.12,NW,315,5.0,7.0,77,0.00,,,0.00,0,WeatherCatV1.21B27,2013-10-26 10:45:00,
2013-10-26 05:46:00,44.9,38.1,30.12,North,0,0.0,7.0,77,0.00,,,0.00,0,WeatherCatV1.21B27,2013-10-26 10:46:00,
2013-10-26 05:47:00,44.8,38.0,30.12,North,350,9.0,9.0,77,0.00,,,0.00,0,WeatherCatV1.21B27,2013-10-26 10:47:00,
2013-10-26 05:50:00,44.8,38.0,30.13,NNE,17,3.0,10.0,77,0.00,,,0.00,0,WeatherCatV1.21B27,2013-10-26 10:50:00,
2013-10-26 05:51:00,44.7,37.9,30.13,NNE,24,4.0,10.0,77,0.00,,,0.00,0,WeatherCatV1.21B27,2013-10-26 10:51:00,
2013-10-26 05:52:00,44.7,37.9,30.13,NNE,24,3.0,10.0,77,0.00,,,0.00,0,WeatherCatV1.21B27,2013-10-26 10:52:00,
2013-10-26 05:55:00,44.6,37.8,30.13,North,5,0.0,10.0,77,0.00,,,0.00,0,WeatherCatV1.21B27,2013-10-26 10:55:00,
2013-10-26 05:56:00,44.6,37.8,30.14,NE,34,2.0,14.0,77,0.00,,,0.00,0,WeatherCatV1.21B27,2013-10-26 10:56:00,
2013-10-26 05:57:00,44.6,37.8,30.13,NNE,33,4.0,14.0,77,0.00,,,0.00,0,WeatherCatV1.21B27,2013-10-26 10:57:00,
2013-10-26 05:58:00,44.6,37.8,30.13,NNW,344,5.0,14.0,77,0.00,,,0.00,0,WeatherCatV1.21B27,2013-10-26 10:58:00,
2013-10-26 06:00:00,44.6,37.8,30.13,NNW,338,1.0,8.0,77,0.00,,,0.00,0,WeatherCatV1.21B27,2013-10-26 11:00:00,
2013-10-26 06:01:00,44.6,37.8,30.13,NNW,340,2.0,8.0,77,0.00,,,0.00,0,WeatherCatV1.21B27,2013-10-26 11:01:00,
2013-10-26 06:02:00,44.5,37.8,30.14,NNW,348,1.0,5.0,77,0.00,,,0.00,0,WeatherCatV1.21B27,2013-10-26 11:02:00,
2013-10-26 06:03:00,44.4,37.7,30.14,NNE,13,1.0,3.0,77,0.00,,,0.00,0,WeatherCatV1.21B27,2013-10-26 11:03:00,
2013-10-26 06:06:00,44.3,37.5,30.14,NNE,12,2.0,6.0,77,0.00,,,0.00,0,WeatherCatV1.21B27,2013-10-26 11:06:00,
2013-10-26 06:07:00,44.3,37.5,30.14,North,355,3.0,5.0,77,0.00,,,0.00,0,WeatherCatV1.21B27,2013-10-26 11:07:00,
2013-10-26 06:08:00,44.2,37.5,30.14,North,355,0.0,5.0,77,0.00,,,0.00,0,WeatherCatV1.21B27,2013-10-26 11:08:00,
2013-10-26 06:11:00,44.1,37.7,30.14,NNW,342,2.0,4.0,78,0.00,,,0.00,0,WeatherCatV1.21B27,2013-10-26 11:11:00,
2013-10-26 06:12:00,44.1,37.7,30.14,North,0,5.0,5.0,78,0.00,,,0.00,0,WeatherCatV1.21B27,2013-10-26 11:12:00,
2013-10-26 06:13:00,44.1,37.7,30.14,NW,323,3.0,10.0,78,0.00,,,0.00,0,WeatherCatV1.21B27,2013-10-26 11:13:00,
2013-10-26 06:16:00,44.0,37.6,30.14,NW,315,3.0,10.0,78,0.00,,,0.00,0,WeatherCatV1.21B27,2013-10-26 11:16:00,
2013-10-26 06:17:00,44.0,37.6,30.14,NW,314,4.0,10.0,78,0.00,,,0.00,0,WeatherCatV1.21B27,2013-10-26 11:17:00,
2013-10-26 06:18:00,44.0,37.6,30.14,NW,314,0.0,10.0,78,0.00,,,0.00,0,WeatherCatV1.21B27,2013-10-26 11:18:00,
2013-10-26 06:21:00,43.9,37.5,30.14,NNW,342,2.0,4.0,78,0.00,,,0.00,0,WeatherCatV1.21B27,2013-10-26 11:21:00,
2013-10-26 06:22:00,43.8,37.4,30.14,NNW,342,4.0,5.0,78,0.00,,,0.00,0,WeatherCatV1.21B27,2013-10-26 11:22:00,
2013-10-26 06:23:00,43.8,37.4,30.14,NNW,341,2.0,5.0,78,0.00,,,0.00,0,WeatherCatV1.21B27,2013-10-26 11:23:00,
2013-10-26 06:24:00,43.8,37.4,30.15,NNW,342,2.0,5.0,78,0.00,,,0.00,0,WeatherCatV1.21B27,2013-10-26 11:24:00,
2013-10-26 06:26:00,43.7,37.3,30.15,NW,323,2.0,6.0,78,0.00,,,0.00,0,WeatherCatV1.21B27,2013-10-26 11:26:00,
2013-10-26 06:27:00,43.6,37.2,30.15,NW,325,1.0,6.0,78,0.00,,,0.00,0,WeatherCatV1.21B27,2013-10-26 11:27:00,
2013-10-26 06:28:00,43.6,37.2,30.15,NW,325,0.0,6.0,78,0.00,,,0.00,0,WeatherCatV1.21B27,2013-10-26 11:28:00,
2013-10-26 06:29:00,43.6,37.2,30.15,NW,325,1.0,3.0,78,0.00,,,0.00,0,WeatherCatV1.21B27,2013-10-26 11:29:00,
2013-10-26 06:32:00,43.4,37.0,30.15,NW,325,2.0,4.0,78,0.00,,,0.00,0,WeatherCatV1.21B27,2013-10-26 11:32:00,
2013-10-26 06:33:00,43.4,37.3,30.15,NW,325,0.0,4.0,79,0.00,,,0.00,0,WeatherCatV1.21B27,2013-10-26 11:33:00,
2013-10-26 06:34:00,43.3,37.2,30.15,NW,325,1.0,4.0,79,0.00,,,0.00,0,WeatherCatV1.21B27,2013-10-26 11:34:00,
2013-10-26 06:37:00,43.2,37.1,30.15,NW,325,3.0,4.0,79,0.00,,,0.00,0,WeatherCatV1.21B27,2013-10-26 11:37:00,
2013-10-26 06:38:00,43.2,37.1,30.15,NW,325,0.0,4.0,79,0.00,,,0.00,0,WeatherCatV1.21B27,2013-10-26 11:38:00,
2013-10-26 06:39:00,43.1,37.0,30.15,NW,325,2.0,4.0,79,0.00,,,0.00,0,WeatherCatV1.21B27,2013-10-26 11:39:00,
2013-10-26 06:42:00,43.0,36.9,30.15,NW,325,2.0,7.0,79,0.00,,,0.00,0,WeatherCatV1.21B27,2013-10-26 11:42:00,
2013-10-26 06:43:00,43.0,36.9,30.15,NW,325,0.0,7.0,79,0.00,,,0.00,0,WeatherCatV1.21B27,2013-10-26 11:43:00,
2013-10-26 06:44:00,43.0,36.9,30.15,NW,325,3.0,4.0,79,0.00,,,0.00,0,WeatherCatV1.21B27,2013-10-26 11:44:00,
2013-10-26 06:45:00,42.9,36.8,30.15,NW,325,0.0,4.0,79,0.00,,,0.00,0,WeatherCatV1.21B27,2013-10-26 11:45:00,
2013-10-26 06:47:00,42.8,36.8,30.15,NW,325,4.0,6.0,79,0.00,,,0.00,0,WeatherCatV1.21B27,2013-10-26 11:47:00,
2013-10-26 06:48:00,42.8,36.8,30.15,NW,325,3.0,6.0,79,0.00,,,0.00,0,WeatherCatV1.21B27,2013-10-26 11:48:00,
2013-10-26 06:49:00,42.8,37.1,30.15,NW,325,2.0,6.0,80,0.00,,,0.00,0,WeatherCatV1.21B27,2013-10-26 11:49:00,
2013-10-26 06:50:00,42.7,37.0,30.15,NW,325,0.0,4.0,80,0.00,,,0.00,0,WeatherCatV1.21B27,2013-10-26 11:50:00,
2013-10-26 06:52:00,42.7,37.0,30.15,NNW,348,2.0,6.0,80,0.00,,,0.00,0,WeatherCatV1.21B27,2013-10-26 11:52:00,
2013-10-26 06:53:00,42.6,36.9,30.15,NNW,346,7.0,7.0,80,0.00,,,0.00,0,WeatherCatV1.21B27,2013-10-26 11:53:00,
2013-10-26 06:54:00,42.6,36.9,30.15,NNE,17,3.0,7.0,80,0.00,,,0.00,0,WeatherCatV1.21B27,2013-10-26 11:54:00,
2013-10-26 06:55:00,42.6,36.9,30.15,NNE,15,4.0,7.0,80,0.00,,,0.00,0,WeatherCatV1.21B27,2013-10-26 11:55:00,
2013-10-26 06:56:00,42.5,36.8,30.15,North,350,3.0,6.0,80,0.00,,,0.00,0,WeatherCatV1.21B27,2013-10-26 11:56:00,
2013-10-26 06:57:00,42.5,36.8,30.15,North,10,3.0,7.0,80,0.00,,,0.00,0,WeatherCatV1.21B27,2013-10-26 11:57:00,
2013-10-26 06:58:00,42.4,36.7,30.15,North,5,2.0,5.0,80,0.00,,,0.00,0,WeatherCatV1.21B27,2013-10-26 11:58:00,
2013-10-26 06:59:00,42.4,36.7,30.15,North,5,0.0,5.0,80,0.00,,,0.00,0,WeatherCatV1.21B27,2013-10-26 11:59:00,
2013-10-26 07:00:00,42.4,36.7,30.15,North,0,4.0,5.0,80,0.00,,,0.00,0,WeatherCatV1.21B27,2013-10-26 12:00:00,
2013-10-26 07:01:00,42.3,36.6,30.16,NNE,20,2.0,6.0,80,0.00,,,0.00,0,WeatherCatV1.21B27,2013-10-26 12:01:00,
2013-10-26 07:02:00,42.2,36.5,30.16,NNE,19,0.0,6.0,80,0.00,,,0.00,0,WeatherCatV1.21B27,2013-10-26 12:02:00,
2013-10-26 07:03:00,42.2,36.5,30.16,NNE,19,1.0,5.0,80,0.00,,,0.00,0,WeatherCatV1.21B27,2013-10-26 12:03:00,
2013-10-26 07:04:00,42.2,36.5,30.16,NNE,19,1.0,5.0,80,0.00,,,0.00,0,WeatherCatV1.21B27,2013-10-26 12:04:00,
2013-10-26 07:05:00,42.1,36.4,30.16,NNE,22,3.0,5.0,80,0.00,,,0.00,0,WeatherCatV1.21B27,2013-10-26 12:05:00,
2013-10-26 07:06:00,42.0,36.3,30.16,North,9,3.0,5.0,80,0.00,,,0.00,0,WeatherCatV1.21B27,2013-10-26 12:06:00,
2013-10-26 07:08:00,42.0,36.3,30.16,NNE,13,0.0,5.0,80,0.00,,,0.00,0,WeatherCatV1.21B27,2013-10-26 12:08:00,
2013-10-26 07:09:00,41.9,36.2,30.16,NNE,12,3.0,5.0,80,0.00,,,0.00,0,WeatherCatV1.21B27,2013-10-26 12:09:00,
2013-10-26 07:10:00,41.9,36.2,30.16,North,355,5.0,6.0,80,0.00,,,0.00,0,WeatherCatV1.21B27,2013-10-26 12:10:00,
2013-10-26 07:11:00,41.8,36.1,30.16,North,355,2.0,6.0,80,0.00,,,0.00,0,WeatherCatV1.21B27,2013-10-26 12:11:00,
2013-10-26 07:13:00,41.8,36.1,30.16,North,355,0.0,2.0,80,0.00,,,0.00,0,WeatherCatV1.21B27,2013-10-26 12:13:00,
2013-10-26 07:14:00,41.7,36.0,30.16,North,355,4.0,5.0,80,0.00,,,0.00,0,WeatherCatV1.21B27,2013-10-26 12:14:00,
2013-10-26 07:15:00,41.7,36.0,30.16,North,355,0.0,5.0,80,0.00,,,0.00,0,WeatherCatV1.21B27,2013-10-26 12:15:00,
2013-10-26 07:16:00,41.6,35.9,30.16,North,355,1.0,3.0,80,0.00,,,0.00,0,WeatherCatV1.21B27,2013-10-26 12:16:00,
2013-10-26 07:18:00,41.6,35.9,30.16,North,355,0.0,5.0,80,0.00,,,0.00,0,WeatherCatV1.21B27,2013-10-26 12:18:00,
2013-10-26 07:19:00,41.6,35.9,30.16,North,355,3.0,5.0,80,0.00,,,0.00,0,WeatherCatV1.21B27,2013-10-26 12:19:00,
2013-10-26 07:20:00,41.6,35.9,30.16,North,355,3.0,4.0,80,0.00,,,0.00,0,WeatherCatV1.21B27,2013-10-26 12:20:00,
2013-10-26 07:21:00,41.5,35.8,30.16,North,355,2.0,3.0,80,0.00,,,0.00,0,WeatherCatV1.21B27,2013-10-26 12:21:00,
2013-10-26 07:22:00,41.5,35.8,30.17,North,355,1.0,3.0,80,0.00,,,0.00,0,WeatherCatV1.21B27,2013-10-26 12:22:00,
2013-10-26 07:23:00,41.5,35.8,30.17,North,355,0.0,3.0,80,0.00,,,0.00,0,WeatherCatV1.21B27,2013-10-26 12:23:00,
2013-10-26 07:24:00,41.5,35.8,30.17,North,355,4.0,5.0,80,0.00,,,0.00,0,WeatherCatV1.21B27,2013-10-26 12:24:00,
2013-10-26 07:25:00,41.5,35.8,30.17,North,350,4.0,5.0,80,0.00,,,0.00,0,WeatherCatV1.21B27,2013-10-26 12:25:00,
2013-10-26 07:27:00,41.4,35.7,30.16,North,350,2.0,4.0,80,0.00,,,0.00,0,WeatherCatV1.21B27,2013-10-26 12:27:00,
2013-10-26 07:28:00,41.4,35.7,30.16,North,350,0.0,3.0,80,0.00,,,0.00,0,WeatherCatV1.21B27,2013-10-26 12:28:00,
2013-10-26 07:29:00,41.3,35.3,30.17,North,350,1.0,4.0,79,0.00,,,0.00,0,WeatherCatV1.21B27,2013-10-26 12:29:00,
2013-10-26 07:30:00,41.3,35.3,30.17,North,350,2.0,4.0,79,0.00,,,0.00,0,WeatherCatV1.21B27,2013-10-26 12:30:00,
2013-10-26 07:33:00,41.2,35.2,30.17,NNW,346,1.0,4.0,79,0.00,,,0.00,0,WeatherCatV1.21B27,2013-10-26 12:33:00,
2013-10-26 07:35:00,41.2,35.2,30.17,NNW,345,4.0,5.0,79,0.00,,,0.00,0,WeatherCatV1.21B27,2013-10-26 12:35:00,
2013-10-26 07:38:00,41.0,35.0,30.17,NNW,345,0.0,2.0,79,0.00,,,0.00,0,WeatherCatV1.21B27,2013-10-26 12:38:00,
2013-10-26 07:40:00,41.0,35.0,30.17,North,0,4.0,6.0,79,0.00,,,0.00,0,WeatherCatV1.21B27,2013-10-26 12:40:00,
2013-10-26 07:43:00,40.9,34.9,30.18,North,0,1.0,4.0,79,0.00,,,0.00,0,WeatherCatV1.21B27,2013-10-26 12:43:00,
2013-10-26 07:45:00,40.8,34.8,30.18,North,0,1.0,4.0,79,0.00,,,0.00,0,WeatherCatV1.21B27,2013-10-26 12:45:00,
2013-10-26 07:49:00,40.7,34.7,30.18,North,0,1.0,4.0,79,0.00,,,0.00,0,WeatherCatV1.21B27,2013-10-26 12:49:00,
2013-10-26 07:50:00,40.6,34.6,30.18,North,0,2.0,4.0,79,0.00,,,0.00,0,WeatherCatV1.21B27,2013-10-26 12:50:00,
2013-10-26 07:51:00,40.6,34.6,30.18,North,0,2.0,4.0,79,0.00,,,0.00,0,WeatherCatV1.21B27,2013-10-26 12:51:00,
2013-10-26 07:54:00,40.5,34.5,30.18,North,0,3.0,5.0,79,0.00,,,0.00,5,WeatherCatV1.21B27,2013-10-26 12:54:00,
2013-10-26 07:55:00,40.5,34.5,30.18,North,0,0.0,5.0,79,0.00,,,0.00,5,WeatherCatV1.21B27,2013-10-26 12:55:00,
2013-10-26 07:56:00,40.5,34.5,30.18,North,0,3.0,3.0,79,0.00,,,0.00,5,WeatherCatV1.21B27,2013-10-26 12:56:00,
2013-10-26 07:57:00,40.4,34.4,30.18,North,0,0.0,4.0,79,0.00,,,0.00,5,WeatherCatV1.21B27,2013-10-26 12:57:00,
2013-10-26 08:00:00,40.4,34.4,30.18,North,0,4.0,4.0,79,0.00,,,0.00,7,WeatherCatV1.21B27,2013-10-26 13:00:00,
2013-10-26 08:01:00,40.4,34.4,30.18,North,355,5.0,5.0,79,0.00,,,0.00,7,WeatherCatV1.21B27,2013-10-26 13:01:00,
2013-10-26 08:02:00,40.3,34.3,30.18,North,355,0.0,5.0,79,0.00,,,0.00,9,WeatherCatV1.21B27,2013-10-26 13:02:00,
2013-10-26 08:05:00,40.2,34.2,30.18,North,355,2.0,5.0,79,0.00,,,0.00,9,WeatherCatV1.21B27,2013-10-26 13:05:00,
2013-10-26 08:06:00,40.2,34.2,30.18,North,355,0.0,5.0,79,0.00,,,0.00,11,WeatherCatV1.21B27,2013-10-26 13:06:00,
2013-10-26 08:08:00,40.1,34.1,30.18,North,355,3.0,5.0,79,0.00,,,0.00,11,WeatherCatV1.21B27,2013-10-26 13:08:00,
2013-10-26 08:10:00,40.0,34.0,30.19,North,355,0.0,1.0,79,0.00,,,0.00,12,WeatherCatV1.21B27,2013-10-26 13:10:00,
2013-10-26 08:11:00,39.9,33.9,30.19,North,355,0.0,0.0,79,0.00,,,0.00,12,WeatherCatV1.21B27,2013-10-26 13:11:00,
2013-10-26 08:13:00,39.7,33.7,30.19,North,355,0.0,4.0,79,0.00,,,0.00,12,WeatherCatV1.21B27,2013-10-26 13:13:00,
2013-10-26 08:15:00,39.6,33.6,30.19,North,355,1.0,5.0,79,0.00,,,0.00,14,WeatherCatV1.21B27,2013-10-26 13:15:00,
2013-10-26 08:16:00,39.6,34.0,30.19,North,355,3.0,5.0,80,0.00,,,0.00,14,WeatherCatV1.21B27,2013-10-26 13:16:00,
2013-10-26 08:18:00,39.5,33.8,30.19,North,350,2.0,6.0,80,0.00,,,0.00,16,WeatherCatV1.21B27,2013-10-26 13:18:00,
2013-10-26 08:20:00,39.5,33.8,30.19,North,350,0.0,3.0,80,0.00,,,0.00,16,WeatherCatV1.21B27,2013-10-26 13:20:00,
2013-10-26 08:21:00,39.5,33.8,30.19,North,350,2.0,4.0,80,0.00,,,0.00,16,WeatherCatV1.21B27,2013-10-26 13:21:00,
2013-10-26 08:23:00,39.5,33.8,30.19,North,349,2.0,5.0,80,0.00,,,0.00,19,WeatherCatV1.21B27,2013-10-26 13:23:00,
2013-10-26 08:26:00,39.5,33.8,30.19,NNW,341,2.0,6.0,80,0.00,,,0.00,28,WeatherCatV1.21B27,2013-10-26 13:26:00,
2013-10-26 08:27:00,39.5,33.8,30.19,NNW,341,1.0,4.0,80,0.00,,,0.00,33,WeatherCatV1.21B27,2013-10-26 13:27:00,
2013-10-26 08:28:00,39.6,34.0,30.19,NNW,340,0.0,5.0,80,0.00,,,0.00,37,WeatherCatV1.21B27,2013-10-26 13:28:00,
2013-10-26 08:31:00,39.7,34.4,30.19,NNW,338,4.0,5.0,81,0.00,,,0.00,44,WeatherCatV1.21B27,2013-10-26 13:31:00,
2013-10-26 08:32:00,39.7,34.4,30.19,NNW,338,3.0,5.0,81,0.00,,,0.00,46,WeatherCatV1.21B27,2013-10-26 13:32:00,
2013-10-26 08:34:00,39.8,34.1,30.20,NNW,339,4.0,5.0,80,0.00,,,0.00,53,WeatherCatV1.21B27,2013-10-26 13:34:00,
2013-10-26 08:36:00,39.9,34.2,30.20,NNE,21,6.0,7.0,80,0.00,,,0.00,56,WeatherCatV1.21B27,2013-10-26 13:36:00,
2013-10-26 08:37:00,40.0,34.3,30.20,NNE,21,2.0,7.0,80,0.00,,,0.00,58,WeatherCatV1.21B27,2013-10-26 13:37:00,
2013-10-26 08:39:00,40.2,34.5,30.20,NNW,339,4.0,7.0,80,0.00,,,0.00,67,WeatherCatV1.21B27,2013-10-26 13:39:00,
2013-10-26 08:41:00,40.3,34.6,30.20,NNW,333,2.0,9.0,80,0.00,,,0.00,72,WeatherCatV1.21B27,2013-10-26 13:41:00,
2013-10-26 08:42:00,40.4,34.7,30.20,NNW,334,4.0,9.0,80,0.00,,,0.00,76,WeatherCatV1.21B27,2013-10-26 13:42:00,
2013-10-26 08:43:00,40.4,34.7,30.20,North,351,2.0,7.0,80,0.00,,,0.00,77,WeatherCatV1.21B27,2013-10-26 13:43:00,
2013-10-26 08:44:00,40.6,34.6,30.20,North,355,1.0,4.0,79,0.00,,,0.00,84,WeatherCatV1.21B27,2013-10-26 13:44:00,
2013-10-26 08:46:00,40.7,34.7,30.20,NW,319,10.0,10.0,79,0.00,,,0.00,88,WeatherCatV1.21B27,2013-10-26 13:46:00,
2013-10-26 08:47:00,40.7,34.7,30.20,NNW,330,5.0,10.0,79,0.00,,,0.00,90,WeatherCatV1.21B27,2013-10-26 13:47:00,
2013-10-26 08:48:00,40.8,34.5,30.20,NNE,17,4.0,10.0,78,0.00,,,0.00,93,WeatherCatV1.21B27,2013-10-26 13:48:00,
2013-10-26 08:49:00,40.9,34.6,30.20,North,355,2.0,9.0,78,0.00,,,0.00,100,WeatherCatV1.21B27,2013-10-26 13:49:00,
2013-10-26 08:51:00,41.0,34.3,30.21,North,5,1.0,7.0,77,0.00,,,0.00,107,WeatherCatV1.21B27,2013-10-26 13:51:00,
2013-10-26 08:52:00,41.1,34.5,30.21,North,0,3.0,4.0,77,0.00,,,0.00,109,WeatherCatV1.21B27,2013-10-26 13:52:00,
2013-10-26 08:53:00,41.1,34.5,30.21,NNW,344,7.0,7.0,77,0.00,,,0.00,113,WeatherCatV1.21B27,2013-10-26 13:53:00,
2013-10-26 08:54:00,41.2,34.5,30.21,NNW,338,5.0,11.0,77,0.00,,,0.00,116,WeatherCatV1.21B27,2013-10-26 13:54:00,
2013-10-26 08:55:00,41.3,34.3,30.21,NW,323,5.0,11.0,76,0.00,,,0.00,120,WeatherCatV1.21B27,2013-10-26 13:55:00,
2013-10-26 08:56:00,41.3,34.3,30.21,NNE,33,8.0,9.0,76,0.00,,,0.00,123,WeatherCatV1.21B27,2013-10-26 13:56:00,
2013-10-26 08:57:00,41.3,34.3,30.21,NNW,345,3.0,9.0,76,0.00,,,0.00,127,WeatherCatV1.21B27,2013-10-26 13:57:00,
2013-10-26 08:58:00,41.4,34.4,30.21,North,355,11.0,13.0,76,0.00,,,0.00,130,WeatherCatV1.21B27,2013-10-26 13:58:00,
2013-10-26 08:59:00,41.5,34.2,30.21,NNW,333,5.0,13.0,75,0.00,,,0.00,134,WeatherCatV1.21B27,2013-10-26 13:59:00,
2013-10-26 09:00:00,41.5,34.2,30.21,NNW,340,6.0,6.0,75,0.00,,,0.00,141,WeatherCatV1.21B27,2013-10-26 14:00:00,
2013-10-26 09:01:00,41.5,34.2,30.21,NNW,348,5.0,7.0,75,0.00,,,0.00,144,WeatherCatV1.21B27,2013-10-26 14:01:00,
2013-10-26 09:02:00,41.6,34.3,30.21,NNE,18,4.0,7.0,75,0.00,,,0.00,148,WeatherCatV1.21B27,2013-10-26 14:02:00,
2013-10-26 09:03:00,41.6,33.9,30.22,NNE,22,5.0,8.0,74,0.00,,,0.00,148,WeatherCatV1.21B27,2013-10-26 14:03:00,
2013-10-26 09:04:00,41.6,33.9,30.22,NW,321,6.0,8.0,74,0.00,,,0.00,155,WeatherCatV1.21B27,2013-10-26 14:04:00,
2013-10-26 09:06:00,41.6,33.6,30.22,North,355,4.0,12.0,73,0.00,,,0.00,158,WeatherCatV1.21B27,2013-10-26 14:06:00,
2013-10-26 09:07:00,41.7,33.7,30.22,NNW,346,5.0,9.0,73,0.00,,,0.00,165,WeatherCatV1.21B27,2013-10-26 14:07:00,
2013-10-26 09:08:00,41.7,33.7,30.22,NW,325,3.0,9.0,73,0.00,,,0.00,169,WeatherCatV1.21B27,2013-10-26 14:08:00,
2013-10-26 09:09:00,41.8,33.8,30.22,NNW,336,10.0,10.0,73,0.00,,,0.00,172,WeatherCatV1.21B27,2013-10-26 14:09:00,
2013-10-26 09:11:00,41.8,33.5,30.22,NNW,329,6.0,11.0,72,0.00,,,0.00,179,WeatherCatV1.21B27,2013-10-26 14:11:00,
2013-10-26 09:12:00,41.9,34.9,30.22,North,355,11.0,11.0,76,0.00,,,0.00,183,WeatherCatV1.21B27,2013-10-26 14:12:00,
2013-10-26 09:13:00,41.9,34.9,30.22,NE,39,10.0,13.0,76,0.00,,,0.00,185,WeatherCatV1.21B27,2013-10-26 14:13:00,
2013-10-26 09:14:00,42.0,33.6,30.22,NNE,14,3.0,13.0,72,0.00,,,0.00,188,WeatherCatV1.21B27,2013-10-26 14:14:00,
2013-10-26 09:16:00,42.1,33.4,30.22,North,5,3.0,14.0,71,0.00,,,0.00,199,WeatherCatV1.21B27,2013-10-26 14:16:00,
2013-10-26 09:17:00,42.1,33.4,30.22,North,355,5.0,14.0,71,0.00,,,0.00,204,WeatherCatV1.21B27,2013-10-26 14:17:00,
2013-10-26 09:18:00,42.2,33.5,30.22,NNE,33,3.0,7.0,71,0.00,,,0.00,206,WeatherCatV1.21B27,2013-10-26 14:18:00,
2013-10-26 09:19:00,42.2,33.5,30.22,NNE,33,0.0,6.0,71,0.00,,,0.00,206,WeatherCatV1.21B27,2013-10-26 14:19:00,
2013-10-26 09:21:00,42.4,34.0,30.23,NNE,27,3.0,10.0,72,0.00,,,0.00,206,WeatherCatV1.21B27,2013-10-26 14:21:00,
2013-10-26 09:22:00,42.4,33.7,30.22,NW,323,3.0,10.0,71,0.00,,,0.00,218,WeatherCatV1.21B27,2013-10-26 14:22:00,
2013-10-26 09:23:00,42.5,33.4,30.22,NNW,342,6.0,7.0,70,0.00,,,0.00,223,WeatherCatV1.21B27,2013-10-26 14:23:00,
2013-10-26 09:24:00,42.6,33.5,30.23,North,351,4.0,7.0,70,0.00,,,0.00,227,WeatherCatV1.21B27,2013-10-26 14:24:00,
2013-10-26 09:25:00,42.6,33.5,30.23,NNW,348,3.0,5.0,70,0.00,,,0.00,230,WeatherCatV1.21B27,2013-10-26 14:25:00,
2013-10-26 09:26:00,42.6,33.5,30.23,North,5,2.0,12.0,70,0.00,,,0.00,234,WeatherCatV1.21B27,2013-10-26 14:26:00,
2013-10-26 09:27:00,42.7,33.6,30.23,NNW,344,1.0,4.0,70,0.00,,,0.00,239,WeatherCatV1.21B27,2013-10-26 14:27:00,
2013-10-26 09:28:00,42.7,33.6,30.23,NW,319,5.0,5.0,70,0.00,,,0.00,239,WeatherCatV1.21B27,2013-10-26 14:28:00,
2013-10-26 09:29:00,42.7,33.6,30.23,NW,322,3.0,9.0,70,0.00,,,0.00,241,WeatherCatV1.21B27,2013-10-26 14:29:00,
2013-10-26 09:30:00,42.7,33.2,30.23,NNW,344,1.0,9.0,69,0.00,,,0.00,244,WeatherCatV1.21B27,2013-10-26 14:30:00,
2013-10-26 09:31:00,42.8,33.3,30.23,North,355,3.0,9.0,69,0.00,,,0.00,251,WeatherCatV1.21B27,2013-10-26 14:31:00,
2013-10-26 09:32:00,42.9,33.4,30.23,North,355,1.0,3.0,69,0.00,,,0.00,253,WeatherCatV1.21B27,2013-10-26 14:32:00,
2013-10-26 09:33:00,42.9,33.8,30.23,NNW,336,3.0,6.0,70,0.00,,,0.00,257,WeatherCatV1.21B27,2013-10-26 14:33:00,
2013-10-26 09:34:00,42.9,33.8,30.23,NW,310,9.0,13.0,70,0.00,,,0.00,257,WeatherCatV1.21B27,2013-10-26 14:34:00,
2013-10-26 09:35:00,42.9,33.4,30.23,NW,315,1.0,13.0,69,0.00,,,0.00,262,WeatherCatV1.21B27,2013-10-26 14:35:00,
2013-10-26 09:37:00,42.9,33.4,30.23,NW,321,4.0,12.0,69,0.00,,,0.00,267,WeatherCatV1.21B27,2013-10-26 14:37:00,
2013-10-26 09:38:00,42.9,33.4,30.23,NW,322,4.0,12.0,69,0.00,,,0.00,271,WeatherCatV1.21B27,2013-10-26 14:38:00,
2013-10-26 09:39:00,42.9,33.4,30.23,NNE,20,12.0,12.0,69,0.00,,,0.00,274,WeatherCatV1.21B27,2013-10-26 14:39:00,
2013-10-26 09:40:00,42.9,33.4,30.23,NNE,15,3.0,12.0,69,0.00,,,0.00,276,WeatherCatV1.21B27,2013-10-26 14:40:00,
2013-10-26 09:41:00,42.9,33.4,30.24,North,355,3.0,12.0,69,0.00,,,0.00,278,WeatherCatV1.21B27,2013-10-26 14:41:00,
2013-10-26 09:42:00,43.0,33.5,30.23,NNE,19,2.0,9.0,69,0.00,,,0.00,281,WeatherCatV1.21B27,2013-10-26 14:42:00,
2013-10-26 09:43:00,43.0,33.5,30.23,North,0,4.0,9.0,69,0.00,,,0.00,285,WeatherCatV1.21B27,2013-10-26 14:43:00,
2013-10-26 09:45:00,43.1,34.0,30.24,NW,307,4.0,9.0,70,0.00,,,0.00,290,WeatherCatV1.21B27,2013-10-26 14:45:00,
2013-10-26 09:46:00,43.1,33.6,30.24,NW,325,3.0,12.0,69,0.00,,,0.00,295,WeatherCatV1.21B27,2013-10-26 14:46:00,
2013-10-26 09:47:00,43.1,33.6,30.24,NNW,340,6.0,12.0,69,0.00,,,0.00,297,WeatherCatV1.21B27,2013-10-26 14:47:00,
2013-10-26 09:48:00,43.1,33.6,30.23,NNE,24,4.0,10.0,69,0.00,,,0.00,297,WeatherCatV1.21B27,2013-10-26 14:48:00,
2013-10-26 09:50:00,43.1,33.6,30.24,NNW,340,4.0,7.0,69,0.00,,,0.00,308,WeatherCatV1.21B27,2013-10-26 14:50:00,
2013-10-26 09:52:00,43.2,33.7,30.24,NE,51,5.0,11.0,69,0.00,,,0.00,313,WeatherCatV1.21B27,2013-10-26 14:52:00,
2013-10-26 09:53:00,43.3,33.8,30.24,NE,38,3.0,9.0,69,0.00,,,0.00,316,WeatherCatV1.21B27,2013-10-26 14:53:00,
2013-10-26 09:55:00,43.3,33.5,30.23,NW,318,3.0,14.0,68,0.00,,,0.00,322,WeatherCatV1.21B27,2013-10-26 14:55:00,
2013-10-26 09:57:00,43.4,33.5,30.24,North,0,4.0,5.0,68,0.00,,,0.00,327,WeatherCatV1.21B27,2013-10-26 14:57:00,
2013-10-26 09:58:00,43.4,33.5,30.24,NNE,14,5.0,10.0,68,0.00,,,0.00,329,WeatherCatV1.21B27,2013-10-26 14:58:00,
2013-10-26 10:00:00,43.6,33.8,30.24,WNW,290,3.0,9.0,68,0.00,,,0.00,338,WeatherCatV1.21B27,2013-10-26 15:00:00,
2013-10-26 10:01:00,43.6,33.8,30.24,WNW,290,4.0,7.0,68,0.00,,,0.00,338,WeatherCatV1.21B27,2013-10-26 15:01:00,
2013-10-26 10:02:00,43.7,33.5,30.23,NNE,14,6.0,15.0,67,0.00,,,0.00,343,WeatherCatV1.21B27,2013-10-26 15:02:00,
2013-10-26 10:03:00,43.7,33.5,30.24,NNW,331,9.0,15.0,67,0.00,,,0.00,346,WeatherCatV1.21B27,2013-10-26 15:03:00,
2013-10-26 10:05:00,43.8,33.6,30.23,North,355,1.0,10.0,67,0.00,,,0.00,350,WeatherCatV1.21B27,2013-10-26 15:05:00,
2013-10-26 10:06:00,43.8,33.2,30.24,North,355,0.0,10.0,66,0.00,,,0.00,350,WeatherCatV1.21B27,2013-10-26 15:06:00,
2013-10-26 10:07:00,44.0,33.4,30.24,North,355,4.0,9.0,66,0.00,,,0.00,357,WeatherCatV1.21B27,2013-10-26 15:07:00,
2013-10-26 10:08:00,44.0,33.4,30.24,North,5,3.0,9.0,66,0.00,,,0.00,359,WeatherCatV1.21B27,2013-10-26 15:08:00,
2013-10-26 10:10:00,44.3,33.3,30.24,NNE,25,11.0,20.0,65,0.00,,,0.00,364,WeatherCatV1.21B27,2013-10-26 15:10:00,
2013-10-26 10:11:00,44.3,32.9,30.24,NNE,14,10.0,20.0,64,0.00,,,0.00,367,WeatherCatV1.21B27,2013-10-26 15:11:00,
2013-10-26 10:13:00,44.3,32.9,30.24,NNW,338,5.0,13.0,64,0.00,,,0.00,373,WeatherCatV1.21B27,2013-10-26 15:13:00,
2013-10-26 10:14:00,44.3,32.9,30.24,North,355,5.0,13.0,64,0.00,,,0.00,374,WeatherCatV1.21B27,2013-10-26 15:14:00,
2013-10-26 10:15:00,44.4,33.0,30.24,NNE,28,4.0,10.0,64,0.00,,,0.00,380,WeatherCatV1.21B27,2013-10-26 15:15:00,
2013-10-26 10:16:00,44.4,33.0,30.24,NE,38,3.0,12.0,64,0.00,,,0.00,381,WeatherCatV1.21B27,2013-10-26 15:16:00,
2013-10-26 10:18:00,44.5,33.1,30.24,NNE,19,9.0,12.0,64,0.00,,,0.00,385,WeatherCatV1.21B27,2013-10-26 15:18:00,
2013-10-26 10:19:00,44.5,33.1,30.24,NNE,19,5.0,10.0,64,0.00,,,0.00,387,WeatherCatV1.21B27,2013-10-26 15:19:00,
2013-10-26 10:20:00,44.7,33.3,30.24,North,0,4.0,10.0,64,0.00,,,0.00,392,WeatherCatV1.21B27,2013-10-26 15:20:00,
2013-10-26 10:22:00,44.8,33.4,30.24,NW,323,10.0,12.0,64,0.00,,,0.00,396,WeatherCatV1.21B27,2013-10-26 15:22:00,
2013-10-26 10:23:00,44.9,33.5,30.24,NW,319,1.0,6.0,64,0.00,,,0.00,399,WeatherCatV1.21B27,2013-10-26 15:23:00,
2013-10-26 10:24:00,44.9,33.5,30.24,NNW,329,4.0,8.0,64,0.00,,,0.00,401,WeatherCatV1.21B27,2013-10-26 15:24:00,
2013-10-26 10:25:00,45.0,33.6,30.24,NNW,341,3.0,8.0,64,0.00,,,0.00,404,WeatherCatV1.21B27,2013-10-26 15:25:00,
2013-10-26 10:26:00,45.0,33.6,30.24,NNW,329,3.0,8.0,64,0.00,,,0.00,406,WeatherCatV1.21B27,2013-10-26 15:26:00,
2013-10-26 10:27:00,45.0,33.6,30.24,North,10,5.0,8.0,64,0.00,,,0.00,410,WeatherCatV1.21B27,2013-10-26 15:27:00,
2013-10-26 10:28:00,45.1,33.3,30.24,NNW,339,2.0,15.0,63,0.00,,,0.00,410,WeatherCatV1.21B27,2013-10-26 15:28:00,
2013-10-26 10:29:00,45.1,33.3,30.24,NE,42,7.0,15.0,63,0.00,,,0.00,413,WeatherCatV1.21B27,2013-10-26 15:29:00,
2013-10-26 10:30:00,45.1,33.7,30.24,North,9,5.0,7.0,64,0.00,,,0.00,420,WeatherCatV1.21B27,2013-10-26 15:30:00,
2013-10-26 10:31:00,45.2,33.4,30.24,North,9,9.0,9.0,63,0.00,,,0.00,420,WeatherCatV1.21B27,2013-10-26 15:31:00,
2013-10-26 10:32:00,45.2,33.4,30.24,NNE,14,10.0,12.0,63,0.00,,,0.00,425,WeatherCatV1.21B27,2013-10-26 15:32:00,
2013-10-26 10:34:00,45.1,32.9,30.24,NW,306,2.0,9.0,62,0.00,,,0.00,427,WeatherCatV1.21B27,2013-10-26 15:34:00,
2013-10-26 10:35:00,45.1,33.3,30.24,North,355,5.0,7.0,63,0.00,,,0.00,432,WeatherCatV1.21B27,2013-10-26 15:35:00,
2013-10-26 10:36:00,45.2,33.4,30.24,North,0,0.0,7.0,63,0.00,,,0.00,432,WeatherCatV1.21B27,2013-10-26 15:36:00,
2013-10-26 10:37:00,45.4,33.5,30.24,NNE,32,10.0,11.0,63,0.00,,,0.00,438,WeatherCatV1.21B27,2013-10-26 15:37:00,
2013-10-26 10:39:00,45.4,33.2,30.24,NW,307,3.0,12.0,62,0.00,,,0.00,439,WeatherCatV1.21B27,2013-10-26 15:39:00,
2013-10-26 10:40:00,45.4,32.8,30.25,North,355,3.0,9.0,61,0.00,,,0.00,443,WeatherCatV1.21B27,2013-10-26 15:40:00,
2013-10-26 10:42:00,45.5,33.2,30.25,NE,53,10.0,12.0,62,0.00,,,0.00,446,WeatherCatV1.21B27,2013-10-26 15:42:00,
2013-10-26 10:44:00,45.6,32.9,30.24,North,355,5.0,9.0,61,0.00,,,0.00,452,WeatherCatV1.21B27,2013-10-26 15:44:00,
2013-10-26 10:45:00,45.6,32.1,30.24,NW,315,3.0,13.0,59,0.00,,,0.00,454,WeatherCatV1.21B27,2013-10-26 15:45:00,
2013-10-26 10:46:00,45.6,32.1,30.24,NW,315,1.0,13.0,59,0.00,,,0.00,457,WeatherCatV1.21B27,2013-10-26 15:46:00,
2013-10-26 10:47:00,45.6,32.5,30.25,North,0,2.0,7.0,60,0.00,,,0.00,457,WeatherCatV1.21B27,2013-10-26 15:47:00,
2013-10-26 10:49:00,45.8,32.7,30.25,NNW,342,2.0,12.0,60,0.00,,,0.00,462,WeatherCatV1.21B27,2013-10-26 15:49:00,
2013-10-26 10:50:00,45.8,32.7,30.25,NNE,22,2.0,12.0,60,0.00,,,0.00,468,WeatherCatV1.21B27,2013-10-26 15:50:00,
2013-10-26 10:51:00,45.7,32.6,30.25,NNE,15,2.0,11.0,60,0.00,,,0.00,469,WeatherCatV1.21B27,2013-10-26 15:51:00,
2013-10-26 10:52:00,45.7,32.6,30.25,NNE,24,7.0,13.0,60,0.00,,,0.00,469,WeatherCatV1.21B27,2013-10-26 15:52:00,
2013-10-26 10:54:00,45.7,32.6,30.25,NE,41,3.0,12.0,60,0.00,,,0.00,475,WeatherCatV1.21B27,2013-10-26 15:54:00,
2013-10-26 10:55:00,45.8,32.7,30.25,NW,322,4.0,5.0,60,0.00,,,0.00,476,WeatherCatV1.21B27,2013-10-26 15:55:00,
2013-10-26 10:56:00,45.8,32.3,30.25,North,0,4.0,11.0,59,0.00,,,0.00,478,WeatherCatV1.21B27,2013-10-26 15:56:00,
2013-10-26 10:57:00,45.9,32.4,30.25,NW,323,2.0,11.0,59,0.00,,,0.00,480,WeatherCatV1.21B27,2013-10-26 15:57:00,
2013-10-26 10:59:00,46.1,33.0,30.25,NW,304,7.0,7.0,60,0.00,,,0.00,485,WeatherCatV1.21B27,2013-10-26 15:59:00,
2013-10-26 11:00:00,46.2,32.7,30.25,NW,306,3.0,7.0,59,0.00,,,0.00,487,WeatherCatV1.21B27,2013-10-26 16:00:00,
2013-10-26 11:01:00,46.3,32.3,30.25,NNW,347,7.0,11.0,58,0.00,,,0.00,492,WeatherCatV1.21B27,2013-10-26 16:01:00,
2013-10-26 11:02:00,46.3,31.9,30.25,NW,313,11.0,12.0,57,0.00,,,0.00,492,WeatherCatV1.21B27,2013-10-26 16:02:00,
2013-10-26 11:03:00,46.3,31.0,30.25,North,350,5.0,12.0,55,0.00,,,0.00,492,WeatherCatV1.21B27,2013-10-26 16:03:00,
2013-10-26 11:04:00,46.3,31.0,30.25,NNE,22,3.0,8.0,55,0.00,,,0.00,499,WeatherCatV1.21B27,2013-10-26 16:04:00,
2013-10-26 11:05:00,46.3,31.5,30.25,North,0,3.0,14.0,56,0.00,,,0.00,501,WeatherCatV1.21B27,2013-10-26 16:05:00,
2013-10-26 11:06:00,46.2,30.9,30.25,North,9,3.0,14.0,55,0.00,,,0.00,501,WeatherCatV1.21B27,2013-10-26 16:06:00,
2013-10-26 11:07:00,46.1,30.8,30.25,NE,53,7.0,13.0,55,0.00,,,0.00,504,WeatherCatV1.21B27,2013-10-26 16:07:00,
2013-10-26 11:08:00,46.2,30.9,30.25,NNW,345,6.0,11.0,55,0.00,,,0.00,504,WeatherCatV1.21B27,2013-10-26 16:08:00,
2013-10-26 11:09:00,46.2,30.9,30.25,North,9,12.0,16.0,55,0.00,,,0.00,510,WeatherCatV1.21B27,2013-10-26 16:09:00,
2013-10-26 11:10:00,46.1,30.4,30.25,NNW,340,4.0,16.0,54,0.00,,,0.00,508,WeatherCatV1.21B27,2013-10-26 16:10:00,
2013-10-26 11:12:00,46.1,31.3,30.25,NNW,338,4.0,6.0,56,0.00,,,0.00,512,WeatherCatV1.21B27,2013-10-26 16:12:00,
2013-10-26 11:13:00,46.3,31.5,30.25,NNW,340,4.0,4.0,56,0.00,,,0.00,517,WeatherCatV1.21B27,2013-10-26 16:13:00,
2013-10-26 11:14:00,46.4,32.0,30.25,NNW,338,4.0,5.0,57,0.00,,,0.00,517,WeatherCatV1.21B27,2013-10-26 16:14:00,
2013-10-26 11:15:00,46.5,31.7,30.25,NNE,32,3.0,12.0,56,0.00,,,0.00,519,WeatherCatV1.21B27,2013-10-26 16:15:00,
2013-10-26 11:17:00,46.5,30.8,30.25,NNE,26,4.0,12.0,54,0.00,,,0.00,526,WeatherCatV1.21B27,2013-10-26 16:17:00,
2013-10-26 11:18:00,46.5,30.8,30.25,NNE,26,5.0,12.0,54,0.00,,,0.00,526,WeatherCatV1.21B27,2013-10-26 16:18:00,
2013-10-26 11:19:00,46.5,30.8,30.25,NNW,338,4.0,13.0,54,0.00,,,0.00,527,WeatherCatV1.21B27,2013-10-26 16:19:00,
2013-10-26 11:20:00,46.6,31.3,30.25,NW,326,7.0,13.0,55,0.00,,,0.00,527,WeatherCatV1.21B27,2013-10-26 16:20:00,
2013-10-26 11:21:00,46.6,30.4,30.25,NNW,345,12.0,12.0,53,0.00,,,0.00,529,WeatherCatV1.21B27,2013-10-26 16:21:00,
2013-10-26 11:23:00,46.6,30.4,30.25,NW,326,2.0,13.0,53,0.00,,,0.00,531,WeatherCatV1.21B27,2013-10-26 16:23:00,
2013-10-26 11:24:00,46.7,31.0,30.25,NNW,333,3.0,6.0,54,0.00,,,0.00,534,WeatherCatV1.21B27,2013-10-26 16:24:00,
2013-10-26 11:25:00,46.8,30.6,30.26,North,5,7.0,10.0,53,0.00,,,0.00,536,WeatherCatV1.21B27,2013-10-26 16:25:00,
2013-10-26 11:26:00,46.8,30.6,30.25,NNE,13,13.0,13.0,53,0.00,,,0.00,541,WeatherCatV1.21B27,2013-10-26 16:26:00,
2013-10-26 11:28:00,46.7,29.5,30.25,NNW,348,12.0,15.0,51,0.00,,,0.00,541,WeatherCatV1.21B27,2013-10-26 16:28:00,
2013-10-26 11:29:00,46.6,29.9,30.25,NNE,19,5.0,16.0,52,0.00,,,0.00,545,WeatherCatV1.21B27,2013-10-26 16:29:00,
2013-10-26 11:30:00,46.6,29.9,30.25,ENE,69,3.0,14.0,52,0.00,,,0.00,547,WeatherCatV1.21B27,2013-10-26 16:30:00,
2013-10-26 11:31:00,46.6,30.4,30.26,NNE,20,11.0,11.0,53,0.00,,,0.00,548,WeatherCatV1.21B27,2013-10-26 16:31:00,
2013-10-26 11:33:00,46.6,30.4,30.25,NW,315,3.0,15.0,53,0.00,,,0.00,550,WeatherCatV1.21B27,2013-10-26 16:33:00,
2013-10-26 11:34:00,46.6,30.4,30.25,NNW,340,4.0,12.0,53,0.00,,,0.00,550,WeatherCatV1.21B27,2013-10-26 16:34:00,
2013-10-26 11:36:00,46.7,30.5,30.25,North,0,7.0,8.0,53,0.00,,,0.00,552,WeatherCatV1.21B27,2013-10-26 16:36:00,
2013-10-26 11:38:00,47.0,30.8,30.25,NW,319,3.0,13.0,53,0.00,,,0.00,559,WeatherCatV1.21B27,2013-10-26 16:38:00,
2013-10-26 11:39:00,47.0,30.3,30.25,WSW,244,8.0,13.0,52,0.00,,,0.00,557,WeatherCatV1.21B27,2013-10-26 16:39:00,
2013-10-26 11:40:00,47.1,30.9,30.25,North,5,6.0,13.0,53,0.00,,,0.00,561,WeatherCatV1.21B27,2013-10-26 16:40:00,
2013-10-26 11:41:00,47.1,29.4,30.25,NNW,337,1.0,15.0,50,0.00,,,0.00,566,WeatherCatV1.21B27,2013-10-26 16:41:00,
2013-10-26 11:43:00,47.3,30.1,30.25,North,0,7.0,11.0,51,0.00,,,0.00,568,WeatherCatV1.21B27,2013-10-26 16:43:00,
2013-10-26 11:44:00,47.3,30.1,30.25,NW,325,5.0,11.0,51,0.00,,,0.00,566,WeatherCatV1.21B27,2013-10-26 16:44:00,
2013-10-26 11:45:00,47.5,30.3,30.26,NNW,345,7.0,11.0,51,0.00,,,0.00,570,WeatherCatV1.21B27,2013-10-26 16:45:00,
2013-10-26 11:46:00,47.6,30.4,30.25,NNW,336,2.0,10.0,51,0.00,,,0.00,571,WeatherCatV1.21B27,2013-10-26 16:46:00,
2013-10-26 11:47:00,47.7,30.5,30.26,NNW,342,6.0,10.0,51,0.00,,,0.00,571,WeatherCatV1.21B27,2013-10-26 16:47:00,
2013-10-26 11:48:00,47.8,30.1,30.26,NW,315,3.0,17.0,50,0.00,,,0.00,575,WeatherCatV1.21B27,2013-10-26 16:48:00,
2013-10-26 11:49:00,47.8,30.1,30.25,NNW,338,7.0,17.0,50,0.00,,,0.00,577,WeatherCatV1.21B27,2013-10-26 16:49:00,
2013-10-26 11:50:00,47.8,30.1,30.26,NNW,346,5.0,12.0,50,0.00,,,0.00,577,WeatherCatV1.21B27,2013-10-26 16:50:00,
2013-10-26 11:52:00,47.7,29.5,30.26,NNW,344,4.0,14.0,49,0.00,,,0.00,578,WeatherCatV1.21B27,2013-10-26 16:52:00,
2013-10-26 11:54:00,47.8,30.1,30.26,NNW,332,3.0,12.0,50,0.00,,,0.00,584,WeatherCatV1.21B27,2013-10-26 16:54:00,
2013-10-26 11:55:00,47.8,30.1,30.26,NE,34,4.0,11.0,50,0.00,,,0.00,585,WeatherCatV1.21B27,2013-10-26 16:55:00,
2013-10-26 11:57:00,48.0,30.3,30.26,NNE,18,5.0,14.0,50,0.00,,,0.00,587,WeatherCatV1.21B27,2013-10-26 16:57:00,
2013-10-26 11:59:00,48.1,29.9,30.26,North,355,2.0,7.0,49,0.00,,,0.00,589,WeatherCatV1.21B27,2013-10-26 16:59:00,
2013-10-26 12:00:00,48.0,29.8,30.26,NNW,329,4.0,11.0,49,0.00,,,0.00,592,WeatherCatV1.21B27,2013-10-26 17:00:00,
2013-10-26 12:02:00,48.2,30.0,30.26,North,0,4.0,14.0,49,0.00,,,0.00,594,WeatherCatV1.21B27,2013-10-26 17:02:00,
2013-10-26 12:03:00,48.2,30.0,30.26,NNE,13,4.0,14.0,49,0.00,,,0.00,598,WeatherCatV1.21B27,2013-10-26 17:03:00,
2013-10-26 12:04:00,48.4,30.1,30.26,NNE,15,7.0,11.0,49,0.00,,,0.00,599,WeatherCatV1.21B27,2013-10-26 17:04:00,
2013-10-26 12:05:00,48.5,30.2,30.26,NW,321,6.0,13.0,49,0.00,,,0.00,601,WeatherCatV1.21B27,2013-10-26 17:05:00,
2013-10-26 12:07:00,48.5,29.7,30.26,NNE,19,10.0,12.0,48,0.00,,,0.00,605,WeatherCatV1.21B27,2013-10-26 17:07:00,
2013-10-26 12:08:00,48.4,29.6,30.26,NW,326,5.0,13.0,48,0.00,,,0.00,605,WeatherCatV1.21B27,2013-10-26 17:08:00,
2013-10-26 12:09:00,48.3,29.5,30.26,NW,322,6.0,13.0,48,0.00,,,0.00,606,WeatherCatV1.21B27,2013-10-26 17:09:00,
2013-10-26 12:10:00,48.3,30.0,30.26,NNW,342,5.0,10.0,49,0.00,,,0.00,608,WeatherCatV1.21B27,2013-10-26 17:10:00,
2013-10-26 12:12:00,48.4,30.1,30.26,North,5,10.0,12.0,49,0.00,,,0.00,585,WeatherCatV1.21B27,2013-10-26 17:12:00,
2013-10-26 12:13:00,48.4,30.1,30.26,NNE,13,5.0,13.0,49,0.00,,,0.00,585,WeatherCatV1.21B27,2013-10-26 17:13:00,
2013-10-26 12:14:00,48.5,29.7,30.26,NNW,338,10.0,14.0,48,0.00,,,0.00,621,WeatherCatV1.21B27,2013-10-26 17:14:00,
2013-10-26 12:15:00,48.6,29.3,30.26,North,355,5.0,14.0,47,0.00,,,0.00,621,WeatherCatV1.21B27,2013-10-26 17:15:00,
2013-10-26 12:16:00,48.6,29.3,30.26,NW,325,11.0,14.0,47,0.00,,,0.00,622,WeatherCatV1.21B27,2013-10-26 17:16:00,
2013-10-26 12:18:00,48.7,29.9,30.26,NNW,341,4.0,7.0,48,0.00,,,0.00,628,WeatherCatV1.21B27,2013-10-26 17:18:00,
2013-10-26 12:19:00,48.8,30.0,30.26,NNW,327,4.0,11.0,48,0.00,,,0.00,636,WeatherCatV1.21B27,2013-10-26 17:19:00,
2013-10-26 12:20:00,48.9,30.6,30.26,NW,311,7.0,11.0,49,0.00,,,0.00,638,WeatherCatV1.21B27,2013-10-26 17:20:00,
2013-10-26 12:21:00,49.0,30.2,30.26,North,11,11.0,15.0,48,0.00,,,0.00,638,WeatherCatV1.21B27,2013-10-26 17:21:00,
2013-10-26 12:23:00,48.9,30.1,30.26,NNW,327,10.0,10.0,48,0.00,,,0.00,650,WeatherCatV1.21B27,2013-10-26 17:23:00,
2013-10-26 12:24:00,48.9,30.1,30.26,WNW,302,5.0,11.0,48,0.00,,,0.00,643,WeatherCatV1.21B27,2013-10-26 17:24:00,
2013-10-26 12:25:00,49.0,30.7,30.26,NW,311,3.0,11.0,49,0.00,,,0.00,557,WeatherCatV1.21B27,2013-10-26 17:25:00,
2013-10-26 12:26:00,49.1,30.8,30.26,North,9,3.0,7.0,49,0.00,,,0.00,541,WeatherCatV1.21B27,2013-10-26 17:26:00,
2013-10-26 12:28:00,49.3,30.5,30.27,North,355,4.0,12.0,48,0.00,,,0.00,647,WeatherCatV1.21B27,2013-10-26 17:28:00,
2013-10-26 12:29:00,49.2,29.8,30.26,NNE,31,5.0,11.0,47,0.00,,,0.00,629,WeatherCatV1.21B27,2013-10-26 17:29:00,
2013-10-26 12:30:00,49.2,29.8,30.26,NE,34,3.0,14.0,47,0.00,,,0.00,629,WeatherCatV1.21B27,2013-10-26 17:30:00,
2013-10-26 12:31:00,49.2,29.8,30.26,North,5,12.0,15.0,47,0.00,,,0.00,466,WeatherCatV1.21B27,2013-10-26 17:31:00,
2013-10-26 12:33:00,49.1,30.3,30.26,NW,317,2.0,12.0,48,0.00,,,0.00,424,WeatherCatV1.21B27,2013-10-26 17:33:00,
2013-10-26 12:34:00,49.0,29.7,30.26,NNW,327,3.0,11.0,47,0.00,,,0.00,424,WeatherCatV1.21B27,2013-10-26 17:34:00,
2013-10-26 12:35:00,49.0,29.7,30.26,NNW,329,3.0,11.0,47,0.00,,,0.00,424,WeatherCatV1.21B27,2013-10-26 17:35:00,
2013-10-26 12:36:00,49.1,30.8,30.26,NNW,329,3.0,4.0,49,0.00,,,0.00,598,WeatherCatV1.21B27,2013-10-26 17:36:00,
2013-10-26 12:39:00,49.5,30.6,30.26,NNE,18,6.0,11.0,48,0.00,,,0.00,587,WeatherCatV1.21B27,2013-10-26 17:39:00,
2013-10-26 12:40:00,49.6,29.7,30.26,NNE,24,1.0,11.0,46,0.00,,,0.00,587,WeatherCatV1.21B27,2013-10-26 17:40:00,
2013-10-26 12:42:00,49.8,30.9,30.26,NNE,32,11.0,12.0,48,0.00,,,0.00,656,WeatherCatV1.21B27,2013-10-26 17:42:00,
2013-10-26 12:44:00,49.9,29.4,30.26,NE,40,5.0,14.0,45,0.00,,,0.00,656,WeatherCatV1.21B27,2013-10-26 17:44:00,
2013-10-26 12:45:00,49.9,29.4,30.26,NE,38,6.0,14.0,45,0.00,,,0.00,657,WeatherCatV1.21B27,2013-10-26 17:45:00,
2013-10-26 12:46:00,50.0,30.0,30.26,NE,40,1.0,14.0,46,0.00,,,0.00,656,WeatherCatV1.21B27,2013-10-26 17:46:00,
2013-10-26 12:47:00,50.1,29.6,30.26,North,355,4.0,11.0,45,0.00,,,0.00,619,WeatherCatV1.21B27,2013-10-26 17:47:00,
2013-10-26 12:50:00,50.2,29.7,30.25,North,10,3.0,8.0,45,0.00,,,0.00,554,WeatherCatV1.21B27,2013-10-26 17:50:00,
2013-10-26 12:51:00,50.2,29.7,30.26,NNW,327,7.0,8.0,45,0.00,,,0.00,568,WeatherCatV1.21B27,2013-10-26 17:51:00,
2013-10-26 12:52:00,50.2,29.7,30.25,NW,319,3.0,8.0,45,0.00,,,0.00,439,WeatherCatV1.21B27,2013-10-26 17:52:00,
2013-10-26 12:55:00,50.3,30.9,30.26,NNW,329,0.0,8.0,47,0.00,,,0.00,575,WeatherCatV1.21B27,2013-10-26 17:55:00,
2013-10-26 12:56:00,50.3,30.3,30.25,NNW,330,0.0,4.0,46,0.00,,,0.00,619,WeatherCatV1.21B27,2013-10-26 17:56:00,
2013-10-26 12:57:00,50.4,30.9,30.25,NNW,331,1.0,5.0,47,0.00,,,0.00,663,WeatherCatV1.21B27,2013-10-26 17:57:00,
2013-10-26 13:00:00,50.8,31.8,30.25,NNW,348,2.0,4.0,48,0.00,,,0.00,499,WeatherCatV1.21B27,2013-10-26 18:00:00,
2013-10-26 13:01:00,50.9,31.4,30.25,North,9,1.0,8.0,47,0.00,,,0.00,555,WeatherCatV1.21B27,2013-10-26 18:01:00,
2013-10-26 13:02:00,50.9,31.4,30.25,NW,323,0.0,9.0,47,0.00,,,0.00,631,WeatherCatV1.21B27,2013-10-26 18:02:00,
2013-10-26 13:05:00,50.6,29.5,30.25,NNE,24,11.0,17.0,44,0.00,,,0.00,659,WeatherCatV1.21B27,2013-10-26 18:05:00,
2013-10-26 13:06:00,50.3,29.2,30.25,NNE,24,2.0,17.0,44,0.00,,,0.00,659,WeatherCatV1.21B27,2013-10-26 18:06:00,
2013-10-26 13:07:00,50.1,29.6,30.25,North,10,4.0,10.0,45,0.00,,,0.00,657,WeatherCatV1.21B27,2013-10-26 18:07:00,
2013-10-26 13:10:00,49.9,30.5,30.25,NNE,24,1.0,10.0,47,0.00,,,0.00,654,WeatherCatV1.21B27,2013-10-26 18:10:00,
2013-10-26 13:11:00,50.0,30.0,30.25,NNW,344,5.0,9.0,46,0.00,,,0.00,657,WeatherCatV1.21B27,2013-10-26 18:11:00,
2013-10-26 13:12:00,50.2,30.8,30.25,NNW,340,5.0,9.0,47,0.00,,,0.00,657,WeatherCatV1.21B27,2013-10-26 18:12:00,
2013-10-26 13:13:00,50.2,30.8,30.25,NW,313,4.0,8.0,47,0.00,,,0.00,652,WeatherCatV1.21B27,2013-10-26 18:13:00,
2013-10-26 13:16:00,50.1,29.6,30.24,NW,315,4.0,13.0,45,0.00,,,0.00,608,WeatherCatV1.21B27,2013-10-26 18:16:00,
2013-10-26 13:17:00,50.0,30.0,30.24,NNW,327,6.0,6.0,46,0.00,,,0.00,584,WeatherCatV1.21B27,2013-10-26 18:17:00,
2013-10-26 13:18:00,50.0,30.0,30.24,NE,49,6.0,8.0,46,0.00,,,0.00,628,WeatherCatV1.21B27,2013-10-26 18:18:00,
2013-10-26 13:21:00,50.2,30.8,30.24,WNW,290,6.0,9.0,47,0.00,,,0.00,631,WeatherCatV1.21B27,2013-10-26 18:21:00,
2013-10-26 13:22:00,50.3,30.3,30.24,NW,311,3.0,9.0,46,0.00,,,0.00,606,WeatherCatV1.21B27,2013-10-26 18:22:00,
2013-10-26 13:25:00,50.4,29.3,30.24,NW,306,2.0,8.0,44,0.00,,,0.00,643,WeatherCatV1.21B27,2013-10-26 18:25:00,
2013-10-26 13:26:00,50.5,30.0,30.24,NNW,327,5.0,7.0,45,0.00,,,0.00,645,WeatherCatV1.21B27,2013-10-26 18:26:00,
2013-10-26 13:27:00,50.6,30.0,30.24,NNW,346,4.0,6.0,45,0.00,,,0.00,643,WeatherCatV1.21B27,2013-10-26 18:27:00,
2013-10-26 13:30:00,51.0,29.3,30.24,NNW,333,10.0,10.0,43,0.00,,,0.00,642,WeatherCatV1.21B27,2013-10-26 18:30:00,
2013-10-26 13:31:00,51.1,29.4,30.24,North,355,4.0,10.0,43,0.00,,,0.00,640,WeatherCatV1.21B27,2013-10-26 18:31:00,
2013-10-26 13:32:00,51.1,28.8,30.24,NW,313,7.0,12.0,42,0.00,,,0.00,642,WeatherCatV1.21B27,2013-10-26 18:32:00,
2013-10-26 13:35:00,51.1,28.2,30.24,North,11,6.0,14.0,41,0.00,,,0.00,640,WeatherCatV1.21B27,2013-10-26 18:35:00,
2013-10-26 13:36:00,51.1,28.2,30.24,NW,307,3.0,9.0,41,0.00,,,0.00,640,WeatherCatV1.21B27,2013-10-26 18:36:00,
2013-10-26 13:37:00,51.2,28.9,30.24,North,0,5.0,13.0,42,0.00,,,0.00,638,WeatherCatV1.21B27,2013-10-26 18:37:00,
2013-10-26 13:38:00,51.2,28.9,30.24,North,5,6.0,13.0,42,0.00,,,0.00,638,WeatherCatV1.21B27,2013-10-26 18:38:00,
2013-10-26 13:40:00,51.2,28.9,30.24,NW,304,12.0,12.0,42,0.00,,,0.00,635,WeatherCatV1.21B27,2013-10-26 18:40:00,
2013-10-26 13:41:00,51.2,28.9,30.24,NNE,18,11.0,15.0,42,0.00,,,0.00,635,WeatherCatV1.21B27,2013-10-26 18:41:00,
2013-10-26 13:42:00,51.2,28.9,30.24,NNE,24,9.0,15.0,42,0.00,,,0.00,633,WeatherCatV1.21B27,2013-10-26 18:42:00,
2013-10-26 13:43:00,51.0,28.1,30.24,NW,317,7.0,15.0,41,0.00,,,0.00,636,WeatherCatV1.21B27,2013-10-26 18:43:00,
2013-10-26 13:46:00,50.9,28.6,30.24,NNW,328,4.0,10.0,42,0.00,,,0.00,633,WeatherCatV1.21B27,2013-10-26 18:46:00,
2013-10-26 13:47:00,50.9,28.6,30.24,NNW,336,5.0,11.0,42,0.00,,,0.00,631,WeatherCatV1.21B27,2013-10-26 18:47:00,
2013-10-26 13:48:00,50.9,28.6,30.24,NNW,336,3.0,11.0,42,0.00,,,0.00,635,WeatherCatV1.21B27,2013-10-26 18:48:00,
2013-10-26 13:51:00,51.4,30.2,30.24,NNW,329,5.0,10.0,44,0.00,,,0.00,633,WeatherCatV1.21B27,2013-10-26 18:51:00,
2013-10-26 13:52:00,51.6,30.4,30.24,NW,320,9.0,12.0,44,0.00,,,0.00,631,WeatherCatV1.21B27,2013-10-26 18:52:00,
2013-10-26 13:53:00,51.6,29.3,30.24,WNW,303,6.0,14.0,42,0.00,,,0.00,631,WeatherCatV1.21B27,2013-10-26 18:53:00,
2013-10-26 13:56:00,51.4,29.1,30.24,NNE,25,2.0,12.0,42,0.00,,,0.00,629,WeatherCatV1.21B27,2013-10-26 18:56:00,
2013-10-26 13:57:00,51.4,29.1,30.24,NE,38,11.0,12.0,42,0.00,,,0.00,629,WeatherCatV1.21B27,2013-10-26 18:57:00,
2013-10-26 13:58:00,51.4,29.1,30.23,NNE,31,6.0,11.0,42,0.00,,,0.00,628,WeatherCatV1.21B27,2013-10-26 18:58:00,
2013-10-26 13:59:00,51.5,29.2,30.23,NE,42,10.0,11.0,42,0.00,,,0.00,626,WeatherCatV1.21B27,2013-10-26 18:59:00,
2013-10-26 14:01:00,51.5,29.2,30.23,North,351,3.0,10.0,42,0.00,,,0.00,626,WeatherCatV1.21B27,2013-10-26 19:01:00,
2013-10-26 14:02:00,51.5,29.2,30.24,NE,36,8.0,9.0,42,0.00,,,0.00,626,WeatherCatV1.21B27,2013-10-26 19:02:00,
2013-10-26 14:03:00,51.5,29.2,30.23,NNW,340,6.0,10.0,42,0.00,,,0.00,624,WeatherCatV1.21B27,2013-10-26 19:03:00,
2013-10-26 14:04:00,51.5,29.2,30.23,North,5,3.0,10.0,42,0.00,,,0.00,624,WeatherCatV1.21B27,2013-10-26 19:04:00,
2013-10-26 14:07:00,51.6,29.3,30.23,NW,326,3.0,11.0,42,0.00,,,0.00,624,WeatherCatV1.21B27,2013-10-26 19:07:00,
2013-10-26 14:08:00,51.7,29.4,30.23,NW,317,9.0,9.0,42,0.00,,,0.00,622,WeatherCatV1.21B27,2013-10-26 19:08:00,
2013-10-26 14:09:00,51.8,29.5,30.23,North,349,2.0,11.0,42,0.00,,,0.00,621,WeatherCatV1.21B27,2013-10-26 19:09:00,
2013-10-26 14:12:00,51.9,29.0,30.23,NW,323,7.0,14.0,41,0.00,,,0.00,619,WeatherCatV1.21B27,2013-10-26 19:12:00,
2013-10-26 14:13:00,51.8,28.9,30.23,North,355,7.0,14.0,41,0.00,,,0.00,617,WeatherCatV1.21B27,2013-10-26 19:13:00,
2013-10-26 14:14:00,51.8,28.9,30.23,North,0,4.0,11.0,41,0.00,,,0.00,615,WeatherCatV1.21B27,2013-10-26 19:14:00,
2013-10-26 14:15:00,51.7,28.2,30.23,NW,325,13.0,13.0,40,0.00,,,0.00,617,WeatherCatV1.21B27,2013-10-26 19:15:00,
2013-10-26 14:17:00,51.7,29.4,30.23,NW,316,3.0,12.0,42,0.00,,,0.00,612,WeatherCatV1.21B27,2013-10-26 19:17:00,
2013-10-26 14:18:00,51.7,29.4,30.23,NNW,331,4.0,12.0,42,0.00,,,0.00,610,WeatherCatV1.21B27,2013-10-26 19:18:00,
2013-10-26 14:19:00,51.7,29.9,30.23,NW,321,4.0,9.0,43,0.00,,,0.00,610,WeatherCatV1.21B27,2013-10-26 19:19:00,
2013-10-26 14:20:00,51.7,28.8,30.23,NNW,333,6.0,16.0,41,0.00,,,0.00,610,WeatherCatV1.21B27,2013-10-26 19:20:00,
2013-10-26 14:22:00,51.7,29.4,30.23,NW,313,3.0,9.0,42,0.00,,,0.00,606,WeatherCatV1.21B27,2013-10-26 19:22:00,
2013-10-26 14:23:00,51.8,29.5,30.23,NNW,334,4.0,7.0,42,0.00,,,0.00,605,WeatherCatV1.21B27,2013-10-26 19:23:00,
2013-10-26 14:24:00,51.8,29.5,30.23,NW,319,7.0,9.0,42,0.00,,,0.00,606,WeatherCatV1.21B27,2013-10-26 19:24:00,
2013-10-26 14:25:00,51.8,29.5,30.23,NNW,327,4.0,9.0,42,0.00,,,0.00,605,WeatherCatV1.21B27,2013-10-26 19:25:00,
2013-10-26 14:27:00,52.0,30.2,30.23,NW,309,9.0,9.0,43,0.00,,,0.00,599,WeatherCatV1.21B27,2013-10-26 19:27:00,
2013-10-26 14:28:00,52.0,29.6,30.23,NNW,338,9.0,11.0,42,0.00,,,0.00,601,WeatherCatV1.21B27,2013-10-26 19:28:00,
2013-10-26 14:29:00,51.9,28.4,30.23,NNW,328,5.0,11.0,40,0.00,,,0.00,601,WeatherCatV1.21B27,2013-10-26 19:29:00,
2013-10-26 14:30:00,51.9,29.0,30.23,NW,311,3.0,9.0,41,0.00,,,0.00,601,WeatherCatV1.21B27,2013-10-26 19:30:00,
2013-10-26 14:32:00,52.0,29.6,30.23,NNW,327,4.0,5.0,42,0.00,,,0.00,596,WeatherCatV1.21B27,2013-10-26 19:32:00,
2013-10-26 14:34:00,52.1,29.7,30.23,NNW,333,9.0,9.0,42,0.00,,,0.00,596,WeatherCatV1.21B27,2013-10-26 19:34:00,
2013-10-26 14:35:00,52.2,29.2,30.23,NW,317,0.0,13.0,41,0.00,,,0.00,594,WeatherCatV1.21B27,2013-10-26 19:35:00,
2013-10-26 14:36:00,52.3,29.9,30.23,NNW,327,3.0,13.0,42,0.00,,,0.00,591,WeatherCatV1.21B27,2013-10-26 19:36:00,
2013-10-26 14:38:00,52.4,30.0,30.23,NW,323,0.0,10.0,42,0.00,,,0.00,592,WeatherCatV1.21B27,2013-10-26 19:38:00,
2013-10-26 14:39:00,52.6,30.8,30.23,NW,323,0.0,10.0,43,0.00,,,0.00,589,WeatherCatV1.21B27,2013-10-26 19:39:00,
2013-10-26 14:40:00,52.7,30.3,30.23,NW,310,2.0,8.0,42,0.00,,,0.00,589,WeatherCatV1.21B27,2013-10-26 19:40:00,
2013-10-26 14:43:00,52.8,30.4,30.22,NNW,346,4.0,9.0,42,0.00,,,0.00,585,WeatherCatV1.21B27,2013-10-26 19:43:00,
2013-10-26 14:44:00,52.8,29.1,30.22,NNW,346,6.0,9.0,40,0.00,,,0.00,585,WeatherCatV1.21B27,2013-10-26 19:44:00,
2013-10-26 14:45:00,52.9,29.9,30.23,NW,326,5.0,12.0,41,0.00,,,0.00,582,WeatherCatV1.21B27,2013-10-26 19:45:00,
2013-10-26 14:46:00,52.8,29.8,30.23,NW,325,7.0,12.0,41,0.00,,,0.00,582,WeatherCatV1.21B27,2013-10-26 19:46:00,
2013-10-26 14:48:00,52.8,29.1,30.22,NW,317,6.0,9.0,40,0.00,,,0.00,584,WeatherCatV1.21B27,2013-10-26 19:48:00,
2013-10-26 14:49:00,52.8,29.1,30.22,NW,304,9.0,11.0,40,0.00,,,0.00,584,WeatherCatV1.21B27,2013-10-26 19:49:00,
2013-10-26 14:50:00,52.7,29.1,30.22,NNW,346,6.0,14.0,40,0.00,,,0.00,582,WeatherCatV1.21B27,2013-10-26 19:50:00,
2013-10-26 14:51:00,52.7,29.1,30.22,NNW,346,3.0,14.0,40,0.00,,,0.00,582,WeatherCatV1.21B27,2013-10-26 19:51:00,
2013-10-26 14:53:00,52.8,29.8,30.22,NW,305,3.0,8.0,41,0.00,,,0.00,580,WeatherCatV1.21B27,2013-10-26 19:53:00,
2013-10-26 14:54:00,52.9,29.9,30.23,NW,316,7.0,11.0,41,0.00,,,0.00,580,WeatherCatV1.21B27,2013-10-26 19:54:00,
2013-10-26 14:55:00,53.0,29.9,30.22,NNW,334,4.0,11.0,41,0.00,,,0.00,577,WeatherCatV1.21B27,2013-10-26 19:55:00,
2013-10-26 14:56:00,53.1,30.0,30.22,NW,317,6.0,8.0,41,0.00,,,0.00,577,WeatherCatV1.21B27,2013-10-26 19:56:00,
2013-10-26 14:57:00,53.1,28.8,30.22,WNW,289,5.0,10.0,39,0.00,,,0.00,580,WeatherCatV1.21B27,2013-10-26 19:57:00,
2013-10-26 14:58:00,53.0,28.7,30.22,NNW,338,3.0,11.0,39,0.00,,,0.00,494,WeatherCatV1.21B27,2013-10-26 19:58:00,
2013-10-26 14:59:00,52.9,28.6,30.22,North,10,4.0,11.0,39,0.00,,,0.00,494,WeatherCatV1.21B27,2013-10-26 19:59:00,
2013-10-26 15:00:00,52.9,28.6,30.22,North,11,2.0,8.0,39,0.00,,,0.00,411,WeatherCatV1.21B27,2013-10-26 20:00:00,
2013-10-26 15:01:00,52.9,29.2,30.22,NNW,340,6.0,6.0,40,0.00,,,0.00,411,WeatherCatV1.21B27,2013-10-26 20:01:00,
2013-10-26 15:02:00,52.9,29.9,30.22,NNW,327,3.0,6.0,41,0.00,,,0.00,512,WeatherCatV1.21B27,2013-10-26 20:02:00,
2013-10-26 15:03:00,53.0,30.5,30.22,NW,321,11.0,11.0,42,0.00,,,0.00,432,WeatherCatV1.21B27,2013-10-26 20:03:00,
2013-10-26 15:04:00,53.1,30.0,30.22,NE,37,11.0,11.0,41,0.00,,,0.00,432,WeatherCatV1.21B27,2013-10-26 20:04:00,
2013-10-26 15:06:00,53.0,29.3,30.22,NW,324,6.0,14.0,40,0.00,,,0.00,512,WeatherCatV1.21B27,2013-10-26 20:06:00,
2013-10-26 15:07:00,52.9,29.2,30.22,NW,322,2.0,10.0,40,0.00,,,0.00,550,WeatherCatV1.21B27,2013-10-26 20:07:00,
2013-10-26 15:08:00,52.7,29.1,30.22,NNW,337,7.0,11.0,40,0.00,,,0.00,547,WeatherCatV1.21B27,2013-10-26 20:08:00,
2013-10-26 15:09:00,52.6,29.0,30.21,NW,325,4.0,11.0,40,0.00,,,0.00,543,WeatherCatV1.21B27,2013-10-26 20:09:00,
2013-10-26 15:11:00,52.6,29.6,30.21,North,355,0.0,9.0,41,0.00,,,0.00,540,WeatherCatV1.21B27,2013-10-26 20:11:00,
2013-10-26 15:12:00,52.8,30.4,30.21,NNW,340,7.0,11.0,42,0.00,,,0.00,536,WeatherCatV1.21B27,2013-10-26 20:12:00,
2013-10-26 15:13:00,52.9,29.9,30.21,NW,305,1.0,11.0,41,0.00,,,0.00,536,WeatherCatV1.21B27,2013-10-26 20:13:00,
2013-10-26 15:14:00,52.9,29.9,30.21,NW,317,6.0,11.0,41,0.00,,,0.00,536,WeatherCatV1.21B27,2013-10-26 20:14:00,
2013-10-26 15:16:00,53.0,29.3,30.21,North,9,1.0,5.0,40,0.00,,,0.00,531,WeatherCatV1.21B27,2013-10-26 20:16:00,
2013-10-26 15:17:00,53.0,29.3,30.21,NNE,29,3.0,5.0,40,0.00,,,0.00,529,WeatherCatV1.21B27,2013-10-26 20:17:00,
2013-10-26 15:18:00,53.0,29.9,30.21,NNE,28,0.0,5.0,41,0.00,,,0.00,526,WeatherCatV1.21B27,2013-10-26 20:18:00,
2013-10-26 15:19:00,53.1,29.4,30.21,NNE,22,3.0,10.0,40,0.00,,,0.00,522,WeatherCatV1.21B27,2013-10-26 20:19:00,
2013-10-26 15:21:00,53.1,29.4,30.21,NNE,26,3.0,9.0,40,0.00,,,0.00,519,WeatherCatV1.21B27,2013-10-26 20:21:00,
2013-10-26 15:22:00,53.1,28.8,30.21,NNW,336,12.0,14.0,39,0.00,,,0.00,517,WeatherCatV1.21B27,2013-10-26 20:22:00,
2013-10-26 15:23:00,53.0,28.7,30.21,NW,314,4.0,14.0,39,0.00,,,0.00,513,WeatherCatV1.21B27,2013-10-26 20:23:00,
2013-10-26 15:24:00,52.9,28.6,30.21,NW,311,3.0,10.0,39,0.00,,,0.00,513,WeatherCatV1.21B27,2013-10-26 20:24:00,
2013-10-26 15:25:00,52.9,29.2,30.21,NNW,342,6.0,7.0,40,0.00,,,0.00,513,WeatherCatV1.21B27,2013-10-26 20:25:00,
2013-10-26 15:26:00,52.9,29.2,30.21,NNE,18,5.0,7.0,40,0.00,,,0.00,508,WeatherCatV1.21B27,2013-10-26 20:26:00,
2013-10-26 15:27:00,53.0,29.3,30.21,NNE,21,5.0,10.0,40,0.00,,,0.00,508,WeatherCatV1.21B27,2013-10-26 20:27:00,
2013-10-26 15:28:00,52.9,29.2,30.21,NNW,342,9.0,10.0,40,0.00,,,0.00,504,WeatherCatV1.21B27,2013-10-26 20:28:00,
2013-10-26 15:29:00,52.9,28.6,30.21,NE,38,7.0,10.0,39,0.00,,,0.00,501,WeatherCatV1.21B27,2013-10-26 20:29:00,
2013-10-26 15:30:00,52.9,29.2,30.21,NNE,24,0.0,8.0,40,0.00,,,0.00,499,WeatherCatV1.21B27,2013-10-26 20:30:00,
2013-10-26 15:31:00,53.0,29.9,30.21,West,263,4.0,6.0,41,0.00,,,0.00,499,WeatherCatV1.21B27,2013-10-26 20:31:00,
2013-10-26 15:33:00,53.3,29.0,30.20,WNW,298,6.0,10.0,39,0.00,,,0.00,492,WeatherCatV1.21B27,2013-10-26 20:33:00,
2013-10-26 15:34:00,53.2,28.9,30.20,NW,308,3.0,10.0,39,0.00,,,0.00,490,WeatherCatV1.21B27,2013-10-26 20:34:00,
2013-10-26 15:35:00,53.2,28.9,30.20,NW,307,3.0,7.0,39,0.00,,,0.00,489,WeatherCatV1.21B27,2013-10-26 20:35:00,
2013-10-26 15:36:00,53.2,29.5,30.20,NW,307,3.0,4.0,40,0.00,,,0.00,487,WeatherCatV1.21B27,2013-10-26 20:36:00,
2013-10-26 15:38:00,53.4,30.3,30.20,WNW,284,4.0,9.0,41,0.00,,,0.00,482,WeatherCatV1.21B27,2013-10-26 20:38:00,
2013-10-26 15:39:00,53.7,30.0,30.20,NNE,15,6.0,9.0,40,0.00,,,0.00,480,WeatherCatV1.21B27,2013-10-26 20:39:00,
2013-10-26 15:40:00,53.7,30.0,30.20,NW,321,7.0,7.0,40,0.00,,,0.00,476,WeatherCatV1.21B27,2013-10-26 20:40:00,
2013-10-26 15:41:00,53.7,30.0,30.20,NNE,18,2.0,8.0,40,0.00,,,0.00,475,WeatherCatV1.21B27,2013-10-26 20:41:00,
2013-10-26 15:43:00,53.7,30.0,30.20,North,11,0.0,4.0,40,0.00,,,0.00,471,WeatherCatV1.21B27,2013-10-26 20:43:00,
2013-10-26 15:44:00,53.6,29.2,30.20,North,5,7.0,11.0,39,0.00,,,0.00,466,WeatherCatV1.21B27,2013-10-26 20:44:00,
2013-10-26 15:45:00,53.6,29.9,30.20,WNW,284,6.0,11.0,40,0.00,,,0.00,466,WeatherCatV1.21B27,2013-10-26 20:45:00,
2013-10-26 15:46:00,53.5,29.2,30.20,NNW,336,7.0,13.0,39,0.00,,,0.00,462,WeatherCatV1.21B27,2013-10-26 20:46:00,
2013-10-26 15:48:00,53.4,29.1,30.20,NW,312,4.0,11.0,39,0.00,,,0.00,459,WeatherCatV1.21B27,2013-10-26 20:48:00,
2013-10-26 15:49:00,53.4,29.7,30.20,NW,310,0.0,11.0,40,0.00,,,0.00,459,WeatherCatV1.21B27,2013-10-26 20:49:00,
2013-10-26 15:50:00,53.4,29.7,30.20,NW,322,5.0,6.0,40,0.00,,,0.00,455,WeatherCatV1.21B27,2013-10-26 20:50:00,
2013-10-26 15:52:00,53.3,29.6,30.20,NW,306,3.0,11.0,40,0.00,,,0.00,454,WeatherCatV1.21B27,2013-10-26 20:52:00,
2013-10-26 15:53:00,53.3,29.6,30.20,NW,306,1.0,5.0,40,0.00,,,0.00,448,WeatherCatV1.21B27,2013-10-26 20:53:00,
2013-10-26 15:54:00,53.3,29.6,30.20,NW,312,4.0,4.0,40,0.00,,,0.00,445,WeatherCatV1.21B27,2013-10-26 20:54:00,
2013-10-26 15:55:00,53.5,30.4,30.20,WNW,284,2.0,5.0,41,0.00,,,0.00,443,WeatherCatV1.21B27,2013-10-26 20:55:00,
2013-10-26 15:57:00,53.8,30.7,30.20,West,273,2.0,5.0,41,0.00,,,0.00,438,WeatherCatV1.21B27,2013-10-26 20:57:00,
2013-10-26 15:58:00,54.1,30.3,30.20,NNW,333,4.0,10.0,40,0.00,,,0.00,436,WeatherCatV1.21B27,2013-10-26 20:58:00,
2013-10-26 15:59:00,54.1,30.3,30.20,NNW,333,3.0,10.0,40,0.00,,,0.00,434,WeatherCatV1.21B27,2013-10-26 20:59:00,
2013-10-26 16:00:00,54.2,29.8,30.20,NW,310,1.0,5.0,39,0.00,,,0.00,434,WeatherCatV1.21B27,2013-10-26 21:00:00,
2013-10-26 16:02:00,54.4,30.0,30.20,NW,310,1.0,4.0,39,0.00,,,0.00,429,WeatherCatV1.21B27,2013-10-26 21:02:00,
2013-10-26 16:03:00,54.5,30.1,30.20,NW,309,3.0,4.0,39,0.00,,,0.00,425,WeatherCatV1.21B27,2013-10-26 21:03:00,
2013-10-26 16:04:00,54.5,30.7,30.20,WNW,303,4.0,5.0,40,0.00,,,0.00,425,WeatherCatV1.21B27,2013-10-26 21:04:00,
2013-10-26 16:05:00,54.6,30.1,30.20,NW,323,10.0,10.0,39,0.00,,,0.00,422,WeatherCatV1.21B27,2013-10-26 21:05:00,
2013-10-26 16:07:00,54.5,29.4,30.20,NNW,327,7.0,10.0,38,0.00,,,0.00,413,WeatherCatV1.21B27,2013-10-26 21:07:00,
2013-10-26 16:09:00,54.2,29.1,30.20,North,10,9.0,12.0,38,0.00,,,0.00,410,WeatherCatV1.21B27,2013-10-26 21:09:00,
2013-10-26 16:10:00,53.9,28.2,30.20,NW,307,4.0,12.0,37,0.00,,,0.00,410,WeatherCatV1.21B27,2013-10-26 21:10:00,
2013-10-26 16:12:00,53.7,28.7,30.20,NNW,331,2.0,3.0,38,0.00,,,0.00,403,WeatherCatV1.21B27,2013-10-26 21:12:00,
2013-10-26 16:14:00,53.7,28.7,30.20,NW,325,5.0,9.0,38,0.00,,,0.00,397,WeatherCatV1.21B27,2013-10-26 21:14:00,
2013-10-26 16:15:00,53.7,28.7,30.20,NW,318,4.0,5.0,38,0.00,,,0.00,394,WeatherCatV1.21B27,2013-10-26 21:15:00,
2013-10-26 16:16:00,53.7,28.7,30.20,NW,318,0.0,5.0,38,0.00,,,0.00,388,WeatherCatV1.21B27,2013-10-26 21:16:00,
2013-10-26 16:17:00,53.8,30.0,30.20,NW,319,1.0,2.0,40,0.00,,,0.00,383,WeatherCatV1.21B27,2013-10-26 21:17:00,
2013-10-26 16:19:00,54.0,30.2,30.20,NW,319,3.0,6.0,40,0.00,,,0.00,378,WeatherCatV1.21B27,2013-10-26 21:19:00,
2013-10-26 16:20:00,54.0,29.6,30.20,NNW,337,0.0,6.0,39,0.00,,,0.00,378,WeatherCatV1.21B27,2013-10-26 21:20:00,
2013-10-26 16:21:00,54.1,29.7,30.20,NNW,337,4.0,4.0,39,0.00,,,0.00,378,WeatherCatV1.21B27,2013-10-26 21:21:00,
2013-10-26 16:22:00,54.1,29.1,30.20,NNW,330,7.0,7.0,38,0.00,,,0.00,376,WeatherCatV1.21B27,2013-10-26 21:22:00,
2013-10-26 16:24:00,54.1,29.1,30.20,NW,313,3.0,7.0,38,0.00,,,0.00,373,WeatherCatV1.21B27,2013-10-26 21:24:00,
2013-10-26 16:25:00,54.1,29.7,30.20,NW,313,5.0,6.0,39,0.00,,,0.00,369,WeatherCatV1.21B27,2013-10-26 21:25:00,
2013-10-26 16:26:00,54.1,29.7,30.20,North,9,3.0,10.0,39,0.00,,,0.00,366,WeatherCatV1.21B27,2013-10-26 21:26:00,
2013-10-26 16:28:00,54.1,29.1,30.20,West,267,7.0,7.0,38,0.00,,,0.00,360,WeatherCatV1.21B27,2013-10-26 21:28:00,
2013-10-26 16:29:00,54.1,29.1,30.20,NW,313,4.0,8.0,38,0.00,,,0.00,348,WeatherCatV1.21B27,2013-10-26 21:29:00,
2013-10-26 16:30:00,54.0,29.0,30.20,West,272,4.0,11.0,38,0.00,,,0.00,348,WeatherCatV1.21B27,2013-10-26 21:30:00,
2013-10-26 16:31:00,54.1,29.1,30.20,West,272,1.0,11.0,38,0.00,,,0.00,348,WeatherCatV1.21B27,2013-10-26 21:31:00,
2013-10-26 16:33:00,54.2,29.1,30.20,WNW,298,3.0,5.0,38,0.00,,,0.00,348,WeatherCatV1.21B27,2013-10-26 21:33:00,
2013-10-26 16:34:00,54.3,29.2,30.20,North,350,3.0,7.0,38,0.00,,,0.00,343,WeatherCatV1.21B27,2013-10-26 21:34:00,
2013-10-26 16:35:00,54.4,30.0,30.20,NNW,340,2.0,7.0,39,0.00,,,0.00,343,WeatherCatV1.21B27,2013-10-26 21:35:00,
2013-10-26 16:36:00,54.4,29.3,30.20,NNW,340,0.0,4.0,38,0.00,,,0.00,341,WeatherCatV1.21B27,2013-10-26 21:36:00,
2013-10-26 16:38:00,54.6,29.5,30.19,NW,306,0.0,5.0,38,0.00,,,0.00,336,WeatherCatV1.21B27,2013-10-26 21:38:00,
2013-10-26 16:40:00,54.6,28.9,30.19,NW,307,5.0,6.0,37,0.00,,,0.00,334,WeatherCatV1.21B27,2013-10-26 21:40:00,
2013-10-26 16:41:00,54.5,29.4,30.19,NW,307,0.0,6.0,38,0.00,,,0.00,316,WeatherCatV1.21B27,2013-10-26 21:41:00,
2013-10-26 16:42:00,54.5,29.4,30.19,NW,307,3.0,4.0,38,0.00,,,0.00,274,WeatherCatV1.21B27,2013-10-26 21:42:00,
2013-10-26 16:43:00,54.5,29.4,30.19,NW,307,3.0,3.0,38,0.00,,,0.00,253,WeatherCatV1.21B27,2013-10-26 21:43:00,
2013-10-26 16:45:00,54.5,29.4,30.19,NW,307,1.0,3.0,38,0.00,,,0.00,318,WeatherCatV1.21B27,2013-10-26 21:45:00,
2013-10-26 16:46:00,54.5,29.4,30.19,NW,308,0.0,4.0,38,0.00,,,0.00,316,WeatherCatV1.21B27,2013-10-26 21:46:00,
2013-10-26 16:47:00,54.6,29.5,30.19,NNW,334,6.0,9.0,38,0.00,,,0.00,306,WeatherCatV1.21B27,2013-10-26 21:47:00,
2013-10-26 16:48:00,54.5,28.8,30.19,NNW,334,2.0,9.0,37,0.00,,,0.00,301,WeatherCatV1.21B27,2013-10-26 21:48:00,
2013-10-26 16:50:00,54.5,28.8,30.19,NNE,26,5.0,9.0,37,0.00,,,0.00,294,WeatherCatV1.21B27,2013-10-26 21:50:00,
2013-10-26 16:51:00,54.5,28.8,30.19,NNE,19,4.0,9.0,37,0.00,,,0.00,285,WeatherCatV1.21B27,2013-10-26 21:51:00,
2013-10-26 16:52:00,54.4,28.7,30.19,NNW,336,2.0,9.0,37,0.00,,,0.00,285,WeatherCatV1.21B27,2013-10-26 21:52:00,
2013-10-26 16:53:00,54.2,28.5,30.19,NNE,32,1.0,6.0,37,0.00,,,0.00,274,WeatherCatV1.21B27,2013-10-26 21:53:00,
2013-10-26 16:55:00,54.2,28.5,30.19,NNW,342,6.0,6.0,37,0.00,,,0.00,267,WeatherCatV1.21B27,2013-10-26 21:55:00,
2013-10-26 16:56:00,54.2,28.5,30.19,NNW,342,0.0,6.0,37,0.00,,,0.00,267,WeatherCatV1.21B27,2013-10-26 21:56:00,
2013-10-26 16:57:00,54.2,28.5,30.19,North,355,2.0,5.0,37,0.00,,,0.00,265,WeatherCatV1.21B27,2013-10-26 21:57:00,
2013-10-26 16:58:00,54.2,28.5,30.19,NNW,333,4.0,6.0,37,0.00,,,0.00,258,WeatherCatV1.21B27,2013-10-26 21:58:00,
2013-10-26 17:01:00,54.3,28.6,30.19,NW,310,6.0,9.0,37,0.00,,,0.00,264,WeatherCatV1.21B27,2013-10-26 22:01:00,
2013-10-26 17:02:00,54.2,28.5,30.19,NW,317,2.0,6.0,37,0.00,,,0.00,257,WeatherCatV1.21B27,2013-10-26 22:02:00,
2013-10-26 17:03:00,54.2,28.5,30.19,NW,313,5.0,9.0,37,0.00,,,0.00,255,WeatherCatV1.21B27,2013-10-26 22:03:00,
2013-10-26 17:06:00,54.1,29.1,30.19,NNW,334,6.0,7.0,38,0.00,,,0.00,223,WeatherCatV1.21B27,2013-10-26 22:06:00,
2013-10-26 17:07:00,54.0,28.3,30.19,North,5,1.0,6.0,37,0.00,,,0.00,197,WeatherCatV1.21B27,2013-10-26 22:07:00,
2013-10-26 17:08:00,53.9,28.9,30.19,NNW,344,2.0,6.0,38,0.00,,,0.00,160,WeatherCatV1.21B27,2013-10-26 22:08:00,
2013-10-26 17:11:00,53.8,28.8,30.19,NNW,342,1.0,1.0,38,0.00,,,0.00,213,WeatherCatV1.21B27,2013-10-26 22:11:00,
2013-10-26 17:12:00,53.8,29.4,30.19,NNW,342,0.0,2.0,39,0.00,,,0.00,218,WeatherCatV1.21B27,2013-10-26 22:12:00,
2013-10-26 17:13:00,53.8,29.4,30.19,NNW,342,0.0,2.0,39,0.00,,,0.00,211,WeatherCatV1.21B27,2013-10-26 22:13:00,
2013-10-26 17:14:00,53.9,29.5,30.19,NNW,343,3.0,4.0,39,0.00,,,0.00,206,WeatherCatV1.21B27,2013-10-26 22:14:00,
2013-10-26 17:17:00,54.1,30.3,30.19,NNW,341,4.0,5.0,40,0.00,,,0.00,193,WeatherCatV1.21B27,2013-10-26 22:17:00,
2013-10-26 17:18:00,54.1,29.1,30.19,NNW,341,6.0,6.0,38,0.00,,,0.00,188,WeatherCatV1.21B27,2013-10-26 22:18:00,
2013-10-26 17:19:00,54.1,29.1,30.19,NNW,344,4.0,6.0,38,0.00,,,0.00,188,WeatherCatV1.21B27,2013-10-26 22:19:00,
2013-10-26 17:22:00,53.9,28.9,30.19,NNE,13,1.0,5.0,38,0.00,,,0.00,176,WeatherCatV1.21B27,2013-10-26 22:22:00,
2013-10-26 17:23:00,53.8,28.8,30.19,NW,325,5.0,6.0,38,0.00,,,0.00,174,WeatherCatV1.21B27,2013-10-26 22:23:00,
2013-10-26 17:24:00,53.8,28.8,30.19,NNW,341,7.0,9.0,38,0.00,,,0.00,167,WeatherCatV1.21B27,2013-10-26 22:24:00,
2013-10-26 17:25:00,53.8,28.8,30.19,NNW,331,4.0,9.0,38,0.00,,,0.00,163,WeatherCatV1.21B27,2013-10-26 22:25:00,
2013-10-26 17:27:00,53.7,28.7,30.19,North,355,0.0,6.0,38,0.00,,,0.00,156,WeatherCatV1.21B27,2013-10-26 22:27:00,
2013-10-26 17:28:00,53.7,29.3,30.19,North,355,0.0,6.0,39,0.00,,,0.00,153,WeatherCatV1.21B27,2013-10-26 22:28:00,
2013-10-26 17:29:00,53.7,29.3,30.19,North,355,3.0,4.0,39,0.00,,,0.00,151,WeatherCatV1.21B27,2013-10-26 22:29:00,
2013-10-26 17:30:00,53.7,29.3,30.19,North,355,1.0,3.0,39,0.00,,,0.00,146,WeatherCatV1.21B27,2013-10-26 22:30:00,
2013-10-26 17:31:00,53.7,28.7,30.19,North,355,2.0,6.0,38,0.00,,,0.00,142,WeatherCatV1.21B27,2013-10-26 22:31:00,
2013-10-26 17:32:00,53.7,28.7,30.19,North,350,1.0,5.0,38,0.00,,,0.00,137,WeatherCatV1.21B27,2013-10-26 22:32:00,
2013-10-26 17:33:00,53.7,28.7,30.19,North,349,2.0,5.0,38,0.00,,,0.00,137,WeatherCatV1.21B27,2013-10-26 22:33:00,
2013-10-26 17:34:00,53.6,28.6,30.19,NNE,33,5.0,11.0,38,0.00,,,0.00,134,WeatherCatV1.21B27,2013-10-26 22:34:00,
2013-10-26 17:35:00,53.6,28.6,30.19,NNE,24,2.0,11.0,38,0.00,,,0.00,132,WeatherCatV1.21B27,2013-10-26 22:35:00,
2013-10-26 17:36:00,53.5,28.5,30.19,NNE,18,1.0,5.0,38,0.00,,,0.00,128,WeatherCatV1.21B27,2013-10-26 22:36:00,
2013-10-26 17:37:00,53.5,29.2,30.18,NNW,333,5.0,6.0,39,0.00,,,0.00,121,WeatherCatV1.21B27,2013-10-26 22:37:00,
2013-10-26 17:38:00,53.5,29.2,30.18,NNW,337,4.0,6.0,39,0.00,,,0.00,118,WeatherCatV1.21B27,2013-10-26 22:38:00,
2013-10-26 17:39:00,53.5,28.5,30.18,NNW,337,1.0,6.0,38,0.00,,,0.00,114,WeatherCatV1.21B27,2013-10-26 22:39:00,
2013-10-26 17:40:00,53.5,29.2,30.18,NNW,337,0.0,4.0,39,0.00,,,0.00,111,WeatherCatV1.21B27,2013-10-26 22:40:00,
2013-10-26 17:41:00,53.5,29.2,30.18,NNW,345,2.0,5.0,39,0.00,,,0.00,107,WeatherCatV1.21B27,2013-10-26 22:41:00,
2013-10-26 17:43:00,53.5,29.2,30.18,NNW,345,0.0,2.0,39,0.00,,,0.00,100,WeatherCatV1.21B27,2013-10-26 22:43:00,
2013-10-26 17:44:00,53.7,30.0,30.18,NNW,345,2.0,2.0,40,0.00,,,0.00,97,WeatherCatV1.21B27,2013-10-26 22:44:00,
2013-10-26 17:45:00,53.6,29.9,30.18,NNW,345,0.0,3.0,40,0.00,,,0.00,95,WeatherCatV1.21B27,2013-10-26 22:45:00,
2013-10-26 17:46:00,53.7,28.7,30.18,NNW,344,1.0,3.0,38,0.00,,,0.00,88,WeatherCatV1.21B27,2013-10-26 22:46:00,
2013-10-26 17:48:00,53.7,29.3,30.18,NNW,345,4.0,5.0,39,0.00,,,0.00,81,WeatherCatV1.21B27,2013-10-26 22:48:00,
2013-10-26 17:49:00,53.7,28.7,30.18,NNW,343,4.0,5.0,38,0.00,,,0.00,79,WeatherCatV1.21B27,2013-10-26 22:49:00,
2013-10-26 17:50:00,53.6,28.6,30.18,NNW,342,0.0,5.0,38,0.00,,,0.00,79,WeatherCatV1.21B27,2013-10-26 22:50:00,
2013-10-26 17:51:00,53.6,29.2,30.18,NNW,343,3.0,4.0,39,0.00,,,0.00,72,WeatherCatV1.21B27,2013-10-26 22:51:00,
2013-10-26 17:53:00,53.5,28.5,30.18,NNW,342,0.0,3.0,38,0.00,,,0.00,62,WeatherCatV1.21B27,2013-10-26 22:53:00,
2013-10-26 17:54:00,53.4,28.4,30.18,NNW,343,0.0,1.0,38,0.00,,,0.00,54,WeatherCatV1.21B27,2013-10-26 22:54:00,
2013-10-26 17:55:00,53.3,29.0,30.18,NNW,344,3.0,3.0,39,0.00,,,0.00,47,WeatherCatV1.21B27,2013-10-26 22:55:00,
2013-10-26 17:57:00,53.1,28.8,30.18,NNW,343,0.0,3.0,39,0.00,,,0.00,25,WeatherCatV1.21B27,2013-10-26 22:57:00,
2013-10-26 17:58:00,52.9,28.6,30.18,NNW,342,1.0,1.0,39,0.00,,,0.00,30,WeatherCatV1.21B27,2013-10-26 22:58:00,
2013-10-26 17:59:00,52.9,28.6,30.18,NNW,344,0.0,1.0,39,0.00,,,0.00,30,WeatherCatV1.21B27,2013-10-26 22:59:00,
2013-10-26 18:00:00,52.8,27.9,30.18,NNW,347,1.0,7.0,38,0.00,,,0.00,33,WeatherCatV1.21B27,2013-10-26 23:00:00,
2013-10-26 18:02:00,52.6,28.4,30.18,NNW,347,3.0,3.0,39,0.00,,,0.00,23,WeatherCatV1.21B27,2013-10-26 23:02:00,
2013-10-26 18:04:00,52.5,28.3,30.18,NNW,346,0.0,3.0,39,0.00,,,0.00,25,WeatherCatV1.21B27,2013-10-26 23:04:00,
2013-10-26 18:05:00,52.4,28.8,30.18,NNW,346,0.0,2.0,40,0.00,,,0.00,21,WeatherCatV1.21B27,2013-10-26 23:05:00,
2013-10-26 18:07:00,52.3,29.3,30.18,NNW,347,0.0,0.0,41,0.00,,,0.00,19,WeatherCatV1.21B27,2013-10-26 23:07:00,
2013-10-26 18:09:00,52.1,28.5,30.18,NNW,347,0.0,3.0,40,0.00,,,0.00,19,WeatherCatV1.21B27,2013-10-26 23:09:00,
2013-10-26 18:10:00,52.1,28.5,30.18,NNW,347,0.0,3.0,40,0.00,,,0.00,19,WeatherCatV1.21B27,2013-10-26 23:10:00,
2013-10-26 18:11:00,52.0,28.4,30.18,NNW,347,0.0,1.0,40,0.00,,,0.00,18,WeatherCatV1.21B27,2013-10-26 23:11:00,
2013-10-26 18:13:00,51.8,28.9,30.18,NNW,346,0.0,0.0,41,0.00,,,0.00,18,WeatherCatV1.21B27,2013-10-26 23:13:00,
2013-10-26 18:14:00,51.7,29.4,30.18,NNW,347,0.0,0.0,42,0.00,,,0.00,18,WeatherCatV1.21B27,2013-10-26 23:14:00,
2013-10-26 18:15:00,51.7,29.4,30.18,NNW,347,0.0,0.0,42,0.00,,,0.00,18,WeatherCatV1.21B27,2013-10-26 23:15:00,
2013-10-26 18:16:00,51.5,29.2,30.18,NNW,347,1.0,2.0,42,0.00,,,0.00,16,WeatherCatV1.21B27,2013-10-26 23:16:00,
2013-10-26 18:18:00,51.4,29.1,30.18,NNW,347,0.0,0.0,42,0.00,,,0.00,16,WeatherCatV1.21B27,2013-10-26 23:18:00,
2013-10-26 18:19:00,51.3,29.0,30.18,NNW,347,0.0,1.0,42,0.00,,,0.00,14,WeatherCatV1.21B27,2013-10-26 23:19:00,
2013-10-26 18:20:00,51.2,29.5,30.17,NNW,346,0.0,1.0,43,0.00,,,0.00,14,WeatherCatV1.21B27,2013-10-26 23:20:00,
2013-10-26 18:21:00,51.2,29.5,30.18,NNW,347,0.0,0.0,43,0.00,,,0.00,14,WeatherCatV1.21B27,2013-10-26 23:21:00,
2013-10-26 18:23:00,51.0,29.3,30.18,NNW,347,0.0,0.0,43,0.00,,,0.00,12,WeatherCatV1.21B27,2013-10-26 23:23:00,
2013-10-26 18:24:00,50.9,29.2,30.18,NNW,347,0.0,0.0,43,0.00,,,0.00,12,WeatherCatV1.21B27,2013-10-26 23:24:00,
2013-10-26 18:25:00,50.8,29.1,30.18,NNW,347,0.0,0.0,43,0.00,,,0.00,12,WeatherCatV1.21B27,2013-10-26 23:25:00,
2013-10-26 18:26:00,50.7,29.0,30.18,NNW,346,0.0,0.0,43,0.00,,,0.00,12,WeatherCatV1.21B27,2013-10-26 23:26:00,
2013-10-26 18:28:00,50.6,28.9,30.18,NNW,346,0.0,0.0,43,0.00,,,0.00,11,WeatherCatV1.21B27,2013-10-26 23:28:00,
2013-10-26 18:29:00,50.4,29.3,30.18,NNW,347,0.0,0.0,44,0.00,,,0.00,11,WeatherCatV1.21B27,2013-10-26 23:29:00,
2013-10-26 18:30:00,50.4,29.3,30.18,NNW,346,0.0,0.0,44,0.00,,,0.00,11,WeatherCatV1.21B27,2013-10-26 23:30:00,
2013-10-26 18:31:00,50.4,29.3,30.18,NNW,347,0.0,0.0,44,0.00,,,0.00,9,WeatherCatV1.21B27,2013-10-26 23:31:00,
2013-10-26 18:34:00,50.1,29.0,30.18,NNW,346,0.0,0.0,44,0.00,,,0.00,7,WeatherCatV1.21B27,2013-10-26 23:34:00,
2013-10-26 18:35:00,50.0,29.5,30.18,NNW,347,0.0,0.0,45,0.00,,,0.00,7,WeatherCatV1.21B27,2013-10-26 23:35:00,
2013-10-26 18:36:00,49.9,29.4,30.18,NNW,347,0.0,0.0,45,0.00,,,0.00,7,WeatherCatV1.21B27,2013-10-26 23:36:00,
2013-10-26 18:37:00,49.8,29.3,30.17,NNW,347,0.0,0.0,45,0.00,,,0.00,7,WeatherCatV1.21B27,2013-10-26 23:37:00,
2013-10-26 18:39:00,49.6,29.1,30.17,NNW,347,0.0,0.0,45,0.00,,,0.00,5,WeatherCatV1.21B27,2013-10-26 23:39:00,
2013-10-26 18:40:00,49.5,29.6,30.17,NNW,347,0.0,0.0,46,0.00,,,0.00,5,WeatherCatV1.21B27,2013-10-26 23:40:00,
2013-10-26 18:42:00,49.3,29.4,30.17,NNW,347,0.0,0.0,46,0.00,,,0.00,0,WeatherCatV1.21B27,2013-10-26 23:42:00,
2013-10-26 18:44:00,49.1,29.8,30.17,NNW,347,0.0,0.0,47,0.00,,,0.00,0,WeatherCatV1.21B27,2013-10-26 23:44:00,
2013-10-26 18:45:00,49.0,29.7,30.17,NNW,347,0.0,0.0,47,0.00,,,0.00,0,WeatherCatV1.21B27,2013-10-26 23:45:00,
2013-10-26 18:47:00,48.8,29.5,30.17,NNW,346,0.0,0.0,47,0.00,,,0.00,0,WeatherCatV1.21B27,2013-10-26 23:47:00,
2013-10-26 18:50:00,48.5,29.7,30.17,NNW,347,0.0,0.0,48,0.00,,,0.00,0,WeatherCatV1.21B27,2013-10-26 23:50:00,
2013-10-26 18:51:00,48.3,30.0,30.17,NNW,346,0.0,0.0,49,0.00,,,0.00,0,WeatherCatV1.21B27,2013-10-26 23:51:00,
2013-10-26 18:52:00,48.2,30.0,30.17,NNW,347,0.0,0.0,49,0.00,,,0.00,0,WeatherCatV1.21B27,2013-10-26 23:52:00,
2013-10-26 18:53:00,48.0,29.8,30.17,NNW,347,0.0,0.0,49,0.00,,,0.00,0,WeatherCatV1.21B27,2013-10-26 23:53:00,
2013-10-26 18:55:00,47.6,29.9,30.17,NNW,347,0.0,0.0,50,0.00,,,0.00,0,WeatherCatV1.21B27,2013-10-26 23:55:00,
2013-10-26 18:56:00,47.4,30.2,30.17,NNW,346,0.0,0.0,51,0.00,,,0.00,0,WeatherCatV1.21B27,2013-10-26 23:56:00,
2013-10-26 18:57:00,47.0,30.8,30.17,NNW,347,0.0,0.0,53,0.00,,,0.00,0,WeatherCatV1.21B27,2013-10-26 23:57:00,
2013-10-26 18:58:00,46.8,30.6,30.17,NNW,347,0.0,0.0,53,0.00,,,0.00,0,WeatherCatV1.21B27,2013-10-26 23:58:00,
2013-10-26 19:00:00,46.2,30.9,30.17,NNW,347,0.0,0.0,55,0.00,,,0.00,0,WeatherCatV1.21B27,2013-10-27 00:00:00,
2013-10-26 19:01:00,46.1,30.8,30.17,NNW,347,0.0,0.0,55,0.00,,,0.00,0,WeatherCatV1.21B27,2013-10-27 00:01:00,
2013-10-26 19:03:00,45.7,30.9,30.17,NNW,347,0.0,0.0,56,0.00,,,0.00,0,WeatherCatV1.21B27,2013-10-27 00:03:00,
2013-10-26 19:04:00,45.6,30.8,30.17,NNW,346,0.0,0.0,56,0.00,,,0.00,0,WeatherCatV1.21B27,2013-10-27 00:04:00,
2013-10-26 19:05:00,45.3,30.5,30.17,NNW,346,0.0,0.0,56,0.00,,,0.00,0,WeatherCatV1.21B27,2013-10-27 00:05:00,
2013-10-26 19:06:00,45.3,31.0,30.17,NNW,346,0.0,0.0,57,0.00,,,0.00,0,WeatherCatV1.21B27,2013-10-27 00:06:00,
2013-10-26 19:08:00,45.0,30.7,30.17,NNW,347,0.0,0.0,57,0.00,,,0.00,0,WeatherCatV1.21B27,2013-10-27 00:08:00,
2013-10-26 19:09:00,44.9,31.0,30.17,NNW,346,0.0,0.0,58,0.00,,,0.00,0,WeatherCatV1.21B27,2013-10-27 00:09:00,
2013-10-26 19:10:00,44.7,30.8,30.17,NNW,347,0.0,0.0,58,0.00,,,0.00,0,WeatherCatV1.21B27,2013-10-27 00:10:00,
2013-10-26 19:11:00,44.6,30.8,30.17,NNW,347,0.0,0.0,58,0.00,,,0.00,0,WeatherCatV1.21B27,2013-10-27 00:11:00,
2013-10-26 19:13:00,44.4,30.6,30.17,NNW,347,0.0,0.0,58,0.00,,,0.00,0,WeatherCatV1.21B27,2013-10-27 00:13:00,
2013-10-26 19:14:00,44.3,30.5,30.17,NNW,347,0.0,0.0,58,0.00,,,0.00,0,WeatherCatV1.21B27,2013-10-27 00:14:00,
2013-10-26 19:16:00,44.2,30.8,30.17,NNW,347,0.0,0.0,59,0.00,,,0.00,0,WeatherCatV1.21B27,2013-10-27 00:16:00,
2013-10-26 19:18:00,44.0,31.0,30.17,NNW,347,0.0,0.0,60,0.00,,,0.00,0,WeatherCatV1.21B27,2013-10-27 00:18:00,
2013-10-26 19:19:00,43.9,30.9,30.17,NNW,347,0.0,0.0,60,0.00,,,0.00,0,WeatherCatV1.21B27,2013-10-27 00:19:00,
2013-10-26 19:21:00,43.7,30.7,30.17,NNW,346,0.0,0.0,60,0.00,,,0.00,0,WeatherCatV1.21B27,2013-10-27 00:21:00,
2013-10-26 19:23:00,43.4,30.5,30.17,NNW,346,0.0,0.0,60,0.00,,,0.00,0,WeatherCatV1.21B27,2013-10-27 00:23:00,
2013-10-26 19:24:00,43.4,30.5,30.17,NNW,347,0.0,0.0,60,0.00,,,0.00,0,WeatherCatV1.21B27,2013-10-27 00:24:00,
2013-10-26 19:25:00,43.3,30.4,30.17,NNW,347,0.0,0.0,60,0.00,,,0.00,0,WeatherCatV1.21B27,2013-10-27 00:25:00,
2013-10-26 19:26:00,43.2,30.7,30.17,NNW,347,0.0,0.0,61,0.00,,,0.00,0,WeatherCatV1.21B27,2013-10-27 00:26:00,
2013-10-26 19:27:00,43.1,30.6,30.17,NNW,347,0.0,0.0,61,0.00,,,0.00,0,WeatherCatV1.21B27,2013-10-27 00:27:00,
2013-10-26 19:28:00,42.9,30.4,30.17,NNW,346,0.0,0.0,61,0.00,,,0.00,0,WeatherCatV1.21B27,2013-10-27 00:28:00,
2013-10-26 19:29:00,42.9,30.4,30.17,NNW,347,0.0,0.0,61,0.00,,,0.00,0,WeatherCatV1.21B27,2013-10-27 00:29:00,
2013-10-26 19:30:00,42.9,30.4,30.17,NNW,346,0.0,0.0,61,0.00,,,0.00,0,WeatherCatV1.21B27,2013-10-27 00:30:00,
2013-10-26 19:31:00,42.8,30.3,30.17,NNW,346,0.0,0.0,61,0.00,,,0.00,0,WeatherCatV1.21B27,2013-10-27 00:31:00,
2013-10-26 19:32:00,42.8,30.3,30.17,NNW,346,0.0,0.0,61,0.00,,,0.00,0,WeatherCatV1.21B27,2013-10-27 00:32:00,
2013-10-26 19:34:00,42.7,30.2,30.17,NNW,347,0.0,0.0,61,0.00,,,0.00,0,WeatherCatV1.21B27,2013-10-27 00:34:00,
2013-10-26 19:35:00,42.7,29.8,30.17,NNW,346,0.0,0.0,60,0.00,,,0.00,0,WeatherCatV1.21B27,2013-10-27 00:35:00,
2013-10-26 19:36:00,42.6,29.7,30.17,NNW,347,0.0,0.0,60,0.00,,,0.00,0,WeatherCatV1.21B27,2013-10-27 00:36:00,
2013-10-26 19:37:00,42.6,29.7,30.17,NNW,346,0.0,0.0,60,0.00,,,0.00,0,WeatherCatV1.21B27,2013-10-27 00:37:00,
2013-10-26 19:39:00,42.6,30.1,30.17,NNW,346,0.0,0.0,61,0.00,,,0.00,0,WeatherCatV1.21B27,2013-10-27 00:39:00,
2013-10-26 19:40:00,42.5,30.8,30.17,NNW,346,0.0,0.0,63,0.00,,,0.00,0,WeatherCatV1.21B27,2013-10-27 00:40:00,
2013-10-26 19:41:00,42.5,30.8,30.17,NNW,347,0.0,0.0,63,0.00,,,0.00,0,WeatherCatV1.21B27,2013-10-27 00:41:00,
2013-10-26 19:42:00,42.5,30.8,30.17,NNW,347,0.0,0.0,63,0.00,,,0.00,0,WeatherCatV1.21B27,2013-10-27 00:42:00,
2013-10-26 19:43:00,42.4,30.7,30.17,NNW,346,0.0,0.0,63,0.00,,,0.00,0,WeatherCatV1.21B27,2013-10-27 00:43:00,
2013-10-26 19:44:00,42.3,31.0,30.17,NNW,347,0.0,0.0,64,0.00,,,0.00,0,WeatherCatV1.21B27,2013-10-27 00:44:00,
2013-10-26 19:45:00,42.3,31.0,30.17,NNW,346,0.0,0.0,64,0.00,,,0.00,0,WeatherCatV1.21B27,2013-10-27 00:45:00,
2013-10-26 19:46:00,42.1,31.2,30.17,NNW,346,0.0,0.0,65,0.00,,,0.00,0,WeatherCatV1.21B27,2013-10-27 00:46:00,
2013-10-26 19:47:00,42.1,31.2,30.17,NNW,346,0.0,0.0,65,0.00,,,0.00,0,WeatherCatV1.21B27,2013-10-27 00:47:00,
2013-10-26 19:48:00,42.0,31.5,30.17,NNW,347,0.0,0.0,66,0.00,,,0.00,0,WeatherCatV1.21B27,2013-10-27 00:48:00,
2013-10-26 19:49:00,41.8,31.3,30.17,NNW,347,0.0,0.0,66,0.00,,,0.00,0,WeatherCatV1.21B27,2013-10-27 00:49:00,
2013-10-26 19:50:00,41.7,31.2,30.17,NNW,346,0.0,0.0,66,0.00,,,0.00,0,WeatherCatV1.21B27,2013-10-27 00:50:00,
2013-10-26 19:52:00,41.5,31.4,30.17,NNW,347,0.0,0.0,67,0.00,,,0.00,0,WeatherCatV1.21B27,2013-10-27 00:52:00,
2013-10-26 19:53:00,41.4,31.3,30.17,NNW,347,0.0,0.0,67,0.00,,,0.00,0,WeatherCatV1.21B27,2013-10-27 00:53:00,
2013-10-26 19:55:00,41.2,31.1,30.17,NNW,347,0.0,0.0,67,0.00,,,0.00,0,WeatherCatV1.21B27,2013-10-27 00:55:00,
2013-10-26 19:56:00,41.1,31.0,30.17,NNW,346,0.0,0.0,67,0.00,,,0.00,0,WeatherCatV1.21B27,2013-10-27 00:56:00,
2013-10-26 19:57:00,41.1,31.0,30.17,NNW,347,0.0,0.0,67,0.00,,,0.00,0,WeatherCatV1.21B27,2013-10-27 00:57:00,
2013-10-26 19:59:00,40.9,30.4,30.17,NNW,347,0.0,0.0,66,0.00,,,0.00,0,WeatherCatV1.21B27,2013-10-27 00:59:00,
2013-10-26 20:00:00,40.9,30.4,30.17,NNW,346,0.0,0.0,66,0.00,,,0.00,0,WeatherCatV1.21B27,2013-10-27 01:00:00,
2013-10-26 20:01:00,40.9,30.4,30.17,NNW,347,0.0,0.0,66,0.00,,,0.00,0,WeatherCatV1.21B27,2013-10-27 01:01:00,
2013-10-26 20:02:00,40.9,30.4,30.17,NNW,346,0.0,0.0,66,0.00,,,0.00,0,WeatherCatV1.21B27,2013-10-27 01:02:00,
2013-10-26 20:04:00,40.8,30.3,30.17,NNW,347,0.0,0.0,66,0.00,,,0.00,0,WeatherCatV1.21B27,2013-10-27 01:04:00,
2013-10-26 20:05:00,40.7,30.2,30.17,NNW,347,0.0,0.0,66,0.00,,,0.00,0,WeatherCatV1.21B27,2013-10-27 01:05:00,
2013-10-26 20:06:00,40.7,30.2,30.17,NNW,347,0.0,0.0,66,0.00,,,0.00,0,WeatherCatV1.21B27,2013-10-27 01:06:00,
2013-10-26 20:07:00,40.7,30.6,30.16,NNW,347,0.0,0.0,67,0.00,,,0.00,0,WeatherCatV1.21B27,2013-10-27 01:07:00,
2013-10-26 20:10:00,40.6,30.9,30.16,NNW,347,0.0,0.0,68,0.00,,,0.00,0,WeatherCatV1.21B27,2013-10-27 01:10:00,
2013-10-26 20:11:00,40.5,31.1,30.16,NNW,346,0.0,0.0,69,0.00,,,0.00,0,WeatherCatV1.21B27,2013-10-27 01:11:00,
2013-10-26 20:12:00,40.5,31.1,30.16,NNW,347,0.0,0.0,69,0.00,,,0.00,0,WeatherCatV1.21B27,2013-10-27 01:12:00,
2013-10-26 20:15:00,40.3,31.3,30.16,NNW,347,0.0,0.0,70,0.00,,,0.00,0,WeatherCatV1.21B27,2013-10-27 01:15:00,
2013-10-26 20:16:00,40.3,31.3,30.16,NNW,347,0.0,0.0,70,0.00,,,0.00,0,WeatherCatV1.21B27,2013-10-27 01:16:00,
2013-10-26 20:17:00,40.2,30.9,30.16,NNW,347,0.0,0.0,69,0.00,,,0.00,0,WeatherCatV1.21B27,2013-10-27 01:17:00,
2013-10-26 20:18:00,40.2,30.9,30.16,NNW,346,0.0,0.0,69,0.00,,,0.00,0,WeatherCatV1.21B27,2013-10-27 01:18:00,
2013-10-26 20:21:00,40.1,30.8,30.16,NNW,347,0.0,0.0,69,0.00,,,0.00,0,WeatherCatV1.21B27,2013-10-27 01:21:00,
2013-10-26 20:22:00,40.0,30.7,30.16,NNW,347,0.0,0.0,69,0.00,,,0.00,0,WeatherCatV1.21B27,2013-10-27 01:22:00,
2013-10-26 20:23:00,40.0,31.0,30.16,NNW,347,0.0,0.0,70,0.00,,,0.00,0,WeatherCatV1.21B27,2013-10-27 01:23:00,
2013-10-26 20:26:00,39.8,30.8,30.16,NNW,347,0.0,0.0,70,0.00,,,0.00,0,WeatherCatV1.21B27,2013-10-27 01:26:00,
2013-10-26 20:27:00,39.7,31.1,30.16,NNW,347,0.0,0.0,71,0.00,,,0.00,0,WeatherCatV1.21B27,2013-10-27 01:27:00,
2013-10-26 20:28:00,39.7,31.4,30.16,NNW,346,0.0,0.0,72,0.00,,,0.00,0,WeatherCatV1.21B27,2013-10-27 01:28:00,
2013-10-26 20:31:00,39.4,30.8,30.16,NNW,347,0.0,0.0,71,0.00,,,0.00,0,WeatherCatV1.21B27,2013-10-27 01:31:00,
2013-10-26 20:32:00,39.4,30.8,30.16,NNW,346,0.0,0.0,71,0.00,,,0.00,0,WeatherCatV1.21B27,2013-10-27 01:32:00,
2013-10-26 20:33:00,39.3,30.7,30.16,NNW,347,0.0,0.0,71,0.00,,,0.00,0,WeatherCatV1.21B27,2013-10-27 01:33:00,
2013-10-26 20:34:00,39.2,30.6,30.16,NNW,346,0.0,0.0,71,0.00,,,0.00,0,WeatherCatV1.21B27,2013-10-27 01:34:00,
2013-10-26 20:36:00,39.1,30.9,30.16,NNW,346,0.0,0.0,72,0.00,,,0.00,0,WeatherCatV1.21B27,2013-10-27 01:36:00,
2013-10-26 20:37:00,39.0,30.8,30.16,NNW,346,0.0,0.0,72,0.00,,,0.00,0,WeatherCatV1.21B27,2013-10-27 01:37:00,
2013-10-26 20:38:00,39.0,30.8,30.16,NNW,347,0.0,0.0,72,0.00,,,0.00,0,WeatherCatV1.21B27,2013-10-27 01:38:00,
2013-10-26 20:39:00,38.9,31.0,30.16,NNW,346,0.0,0.0,73,0.00,,,0.00,0,WeatherCatV1.21B27,2013-10-27 01:39:00,
2013-10-26 20:41:00,38.8,30.9,30.16,NNW,346,0.0,0.0,73,0.00,,,0.00,0,WeatherCatV1.21B27,2013-10-27 01:41:00,
2013-10-26 20:43:00,38.7,30.8,30.16,NNW,346,0.0,0.0,73,0.00,,,0.00,0,WeatherCatV1.21B27,2013-10-27 01:43:00,
2013-10-26 20:44:00,38.6,30.7,30.16,NNW,346,0.0,0.0,73,0.00,,,0.00,0,WeatherCatV1.21B27,2013-10-27 01:44:00,
2013-10-26 20:45:00,38.6,30.7,30.16,NNW,347,0.0,0.0,73,0.00,,,0.00,0,WeatherCatV1.21B27,2013-10-27 01:45:00,
2013-10-26 20:46:00,38.4,30.9,30.16,NNW,346,0.0,0.0,74,0.00,,,0.00,0,WeatherCatV1.21B27,2013-10-27 01:46:00,
2013-10-26 20:48:00,38.4,30.9,30.16,NNW,347,0.0,0.0,74,0.00,,,0.00,0,WeatherCatV1.21B27,2013-10-27 01:48:00,
2013-10-26 20:49:00,38.3,30.8,30.16,NNW,347,0.0,0.0,74,0.00,,,0.00,0,WeatherCatV1.21B27,2013-10-27 01:49:00,
2013-10-26 20:50:00,38.2,30.7,30.16,NNW,346,0.0,0.0,74,0.00,,,0.00,0,WeatherCatV1.21B27,2013-10-27 01:50:00,
2013-10-26 20:51:00,38.1,30.6,30.16,NNW,347,0.0,0.0,74,0.00,,,0.00,0,WeatherCatV1.21B27,2013-10-27 01:51:00,
2013-10-26 20:53:00,38.0,30.5,30.16,NNW,347,0.0,0.0,74,0.00,,,0.00,0,WeatherCatV1.21B27,2013-10-27 01:53:00,
2013-10-26 20:54:00,38.0,30.5,30.16,NNW,347,0.0,0.0,74,0.00,,,0.00,0,WeatherCatV1.21B27,2013-10-27 01:54:00,
2013-10-26 20:55:00,37.9,30.4,30.16,NNW,346,0.0,0.0,74,0.00,,,0.00,0,WeatherCatV1.21B27,2013-10-27 01:55:00,
2013-10-26 20:56:00,37.9,30.4,30.16,NNW,347,0.0,0.0,74,0.00,,,0.00,0,WeatherCatV1.21B27,2013-10-27 01:56:00,
2013-10-26 20:58:00,37.8,30.3,30.16,NNW,347,0.0,0.0,74,0.00,,,0.00,0,WeatherCatV1.21B27,2013-10-27 01:58:00,
2013-10-26 20:59:00,37.7,30.2,30.16,NNW,347,0.0,0.0,74,0.00,,,0.00,0,WeatherCatV1.21B27,2013-10-27 01:59:00,
2013-10-26 21:00:00,37.8,30.3,30.16,NNW,347,0.0,0.0,74,0.00,,,0.00,0,WeatherCatV1.21B27,2013-10-27 02:00:00,
2013-10-26 21:01:00,37.8,30.3,30.16,NNW,347,0.0,0.0,74,0.00,,,0.00,0,WeatherCatV1.21B27,2013-10-27 02:01:00,
2013-10-26 21:04:00,37.8,29.9,30.16,NNW,346,0.0,0.0,73,0.00,,,0.00,0,WeatherCatV1.21B27,2013-10-27 02:04:00,
2013-10-26 21:05:00,37.7,29.8,30.16,NNW,347,0.0,0.0,73,0.00,,,0.00,0,WeatherCatV1.21B27,2013-10-27 02:05:00,
2013-10-26 21:06:00,37.8,30.3,30.15,NNW,347,0.0,0.0,74,0.00,,,0.00,0,WeatherCatV1.21B27,2013-10-27 02:06:00,
2013-10-26 21:09:00,37.7,29.8,30.15,NNW,347,0.0,0.0,73,0.00,,,0.00,0,WeatherCatV1.21B27,2013-10-27 02:09:00,
2013-10-26 21:10:00,37.7,29.8,30.15,NNW,347,0.0,0.0,73,0.00,,,0.00,0,WeatherCatV1.21B27,2013-10-27 02:10:00,
2013-10-26 21:11:00,37.7,29.8,30.15,NNW,347,0.0,0.0,73,0.00,,,0.00,0,WeatherCatV1.21B27,2013-10-27 02:11:00,
2013-10-26 21:12:00,37.7,29.8,30.15,NNW,347,0.0,0.0,73,0.00,,,0.00,0,WeatherCatV1.21B27,2013-10-27 02:12:00,
2013-10-26 21:14:00,37.7,29.5,30.15,NNW,346,0.0,0.0,72,0.00,,,0.00,0,WeatherCatV1.21B27,2013-10-27 02:14:00,
2013-10-26 21:15:00,37.6,29.4,30.15,NNW,347,0.0,0.0,72,0.00,,,0.00,0,WeatherCatV1.21B27,2013-10-27 02:15:00,
2013-10-26 21:16:00,37.6,29.4,30.15,NNW,347,0.0,0.0,72,0.00,,,0.00,0,WeatherCatV1.21B27,2013-10-27 02:16:00,
2013-10-26 21:18:00,37.6,29.7,30.15,NNW,347,0.0,0.0,73,0.00,,,0.00,0,WeatherCatV1.21B27,2013-10-27 02:18:00,
2013-10-26 21:19:00,37.5,29.6,30.15,NNW,346,0.0,0.0,73,0.00,,,0.00,0,WeatherCatV1.21B27,2013-10-27 02:19:00,
2013-10-26 21:20:00,37.4,29.5,30.15,NNW,347,0.0,0.0,73,0.00,,,0.00,0,WeatherCatV1.21B27,2013-10-27 02:20:00,
2013-10-26 21:21:00,37.3,29.5,30.15,NNW,346,0.0,0.0,73,0.00,,,0.00,0,WeatherCatV1.21B27,2013-10-27 02:21:00,
2013-10-26 21:22:00,37.3,29.5,30.15,NNW,347,0.0,0.0,73,0.00,,,0.00,0,WeatherCatV1.21B27,2013-10-27 02:22:00,
2013-10-26 21:23:00,37.2,29.4,30.15,NNW,347,0.0,0.0,73,0.00,,,0.00,0,WeatherCatV1.21B27,2013-10-27 02:23:00,
2013-10-26 21:24:00,37.1,29.3,30.15,NNW,346,0.0,0.0,73,0.00,,,0.00,0,WeatherCatV1.21B27,2013-10-27 02:24:00,
2013-10-26 21:25:00,37.1,29.3,30.15,NNW,347,0.0,0.0,73,0.00,,,0.00,0,WeatherCatV1.21B27,2013-10-27 02:25:00,
2013-10-26 21:26:00,37.1,29.3,30.15,NNW,347,0.0,0.0,73,0.00,,,0.00,0,WeatherCatV1.21B27,2013-10-27 02:26:00,
2013-10-26 21:27:00,37.0,29.2,30.15,NNW,346,0.0,0.0,73,0.00,,,0.00,0,WeatherCatV1.21B27,2013-10-27 02:27:00,
2013-10-26 21:28:00,37.0,29.2,30.15,NNW,346,0.0,0.0,73,0.00,,,0.00,0,WeatherCatV1.21B27,2013-10-27 02:28:00,
2013-10-26 21:29:00,37.0,29.2,30.15,NNW,347,0.0,0.0,73,0.00,,,0.00,0,WeatherCatV1.21B27,2013-10-27 02:29:00,
2013-10-26 21:31:00,37.0,29.2,30.15,NNW,347,0.0,0.0,73,0.00,,,0.00,0,WeatherCatV1.21B27,2013-10-27 02:31:00,
2013-10-26 21:32:00,37.0,29.2,30.15,NNW,347,0.0,0.0,73,0.00,,,0.00,0,WeatherCatV1.21B27,2013-10-27 02:32:00,
2013-10-26 21:33:00,36.9,29.1,30.15,NNW,347,0.0,0.0,73,0.00,,,0.00,0,WeatherCatV1.21B27,2013-10-27 02:33:00,
2013-10-26 21:34:00,36.9,29.1,30.15,NNW,347,0.0,0.0,73,0.00,,,0.00,0,WeatherCatV1.21B27,2013-10-27 02:34:00,
2013-10-26 21:36:00,36.9,29.1,30.15,NNW,347,0.0,0.0,73,0.00,,,0.00,0,WeatherCatV1.21B27,2013-10-27 02:36:00,
2013-10-26 21:37:00,36.9,29.1,30.15,NNW,347,0.0,0.0,73,0.00,,,0.00,0,WeatherCatV1.21B27,2013-10-27 02:37:00,
2013-10-26 21:39:00,36.8,29.0,30.15,NNW,347,0.0,0.0,73,0.00,,,0.00,0,WeatherCatV1.21B27,2013-10-27 02:39:00,
2013-10-26 21:41:00,36.8,29.3,30.15,NNW,347,0.0,0.0,74,0.00,,,0.00,0,WeatherCatV1.21B27,2013-10-27 02:41:00,
2013-10-26 21:42:00,36.7,29.2,30.15,NNW,347,0.0,0.0,74,0.00,,,0.00,0,WeatherCatV1.21B27,2013-10-27 02:42:00,
2013-10-26 21:43:00,36.7,29.2,30.15,NNW,347,0.0,0.0,74,0.00,,,0.00,0,WeatherCatV1.21B27,2013-10-27 02:43:00,
2013-10-26 21:44:00,36.6,29.4,30.15,NNW,346,0.0,0.0,75,0.00,,,0.00,0,WeatherCatV1.21B27,2013-10-27 02:44:00,
2013-10-26 21:46:00,36.5,29.3,30.15,NNW,346,0.0,0.0,75,0.00,,,0.00,0,WeatherCatV1.21B27,2013-10-27 02:46:00,
2013-10-26 21:47:00,36.4,29.6,30.15,NNW,347,0.0,0.0,76,0.00,,,0.00,0,WeatherCatV1.21B27,2013-10-27 02:47:00,
2013-10-26 21:48:00,36.4,29.6,30.15,NNW,347,0.0,0.0,76,0.00,,,0.00,0,WeatherCatV1.21B27,2013-10-27 02:48:00,
2013-10-26 21:49:00,36.3,29.5,30.15,NNW,346,0.0,0.0,76,0.00,,,0.00,0,WeatherCatV1.21B27,2013-10-27 02:49:00,
2013-10-26 21:50:00,36.3,29.5,30.15,NNW,347,0.0,0.0,76,0.00,,,0.00,0,WeatherCatV1.21B27,2013-10-27 02:50:00,
2013-10-26 21:51:00,36.2,29.4,30.15,NNW,347,0.0,0.0,76,0.00,,,0.00,0,WeatherCatV1.21B27,2013-10-27 02:51:00,
2013-10-26 21:52:00,36.1,29.3,30.15,NNW,346,0.0,0.0,76,0.00,,,0.00,0,WeatherCatV1.21B27,2013-10-27 02:52:00,
2013-10-26 21:53:00,36.1,29.3,30.15,NNW,347,0.0,0.0,76,0.00,,,0.00,0,WeatherCatV1.21B27,2013-10-27 02:53:00,
2013-10-26 21:55:00,36.0,29.5,30.15,NNW,346,0.0,0.0,77,0.00,,,0.00,0,WeatherCatV1.21B27,2013-10-27 02:55:00,
2013-10-26 21:56:00,35.9,29.4,30.15,NNW,346,0.0,0.0,77,0.00,,,0.00,0,WeatherCatV1.21B27,2013-10-27 02:56:00,
2013-10-26 21:57:00,35.8,29.3,30.15,NNW,346,0.0,0.0,77,0.00,,,0.00,0,WeatherCatV1.21B27,2013-10-27 02:57:00,
2013-10-26 21:58:00,35.8,29.3,30.15,NNW,347,0.0,0.0,77,0.00,,,0.00,0,WeatherCatV1.21B27,2013-10-27 02:58:00,
2013-10-26 22:00:00,35.8,29.0,30.15,NNW,346,0.0,0.0,76,0.00,,,0.00,0,WeatherCatV1.21B27,2013-10-27 03:00:00,
2013-10-26 22:01:00,35.7,29.2,30.15,NNW,347,0.0,0.0,77,0.00,,,0.00,0,WeatherCatV1.21B27,2013-10-27 03:01:00,
2013-10-26 22:03:00,35.7,29.2,30.15,NNW,347,0.0,0.0,77,0.00,,,0.00,0,WeatherCatV1.21B27,2013-10-27 03:03:00,
2013-10-26 22:05:00,35.7,29.2,30.15,NNW,347,0.0,0.0,77,0.00,,,0.00,0,WeatherCatV1.21B27,2013-10-27 03:05:00,
2013-10-26 22:06:00,35.8,29.3,30.15,NNW,347,0.0,0.0,77,0.00,,,0.00,0,WeatherCatV1.21B27,2013-10-27 03:06:00,
2013-10-26 22:08:00,35.9,29.4,30.15,NNW,347,0.0,0.0,77,0.00,,,0.00,0,WeatherCatV1.21B27,2013-10-27 03:08:00,
2013-10-26 22:09:00,35.9,29.4,30.15,NNW,347,0.0,0.0,77,0.00,,,0.00,0,WeatherCatV1.21B27,2013-10-27 03:09:00,
2013-10-26 22:10:00,35.9,29.4,30.15,NNW,347,0.0,0.0,77,0.00,,,0.00,0,WeatherCatV1.21B27,2013-10-27 03:10:00,
2013-10-26 22:12:00,35.9,29.4,30.15,NNW,347,0.0,0.0,77,0.00,,,0.00,0,WeatherCatV1.21B27,2013-10-27 03:12:00,
2013-10-26 22:14:00,36.0,29.5,30.15,NNW,347,0.0,0.0,77,0.00,,,0.00,0,WeatherCatV1.21B27,2013-10-27 03:14:00,
2013-10-26 22:15:00,36.0,29.5,30.15,NNW,347,0.0,0.0,77,0.00,,,0.00,0,WeatherCatV1.21B27,2013-10-27 03:15:00,
2013-10-26 22:17:00,36.1,29.3,30.15,NNW,347,0.0,0.0,76,0.00,,,0.00,0,WeatherCatV1.21B27,2013-10-27 03:17:00,
2013-10-26 22:19:00,36.1,29.0,30.16,NNW,347,0.0,0.0,75,0.00,,,0.00,0,WeatherCatV1.21B27,2013-10-27 03:19:00,
2013-10-26 22:20:00,36.1,29.0,30.16,NNW,347,0.0,0.0,75,0.00,,,0.00,0,WeatherCatV1.21B27,2013-10-27 03:20:00,
2013-10-26 22:21:00,36.1,29.0,30.16,NNW,346,0.0,0.0,75,0.00,,,0.00,0,WeatherCatV1.21B27,2013-10-27 03:21:00,
2013-10-26 22:22:00,36.1,29.0,30.16,NNW,346,0.0,0.0,75,0.00,,,0.00,0,WeatherCatV1.21B27,2013-10-27 03:22:00,
2013-10-26 22:24:00,36.3,29.1,30.16,NNW,346,0.0,0.0,75,0.00,,,0.00,0,WeatherCatV1.21B27,2013-10-27 03:24:00,
2013-10-26 22:25:00,36.3,29.1,30.16,NNW,346,0.0,0.0,75,0.00,,,0.00,0,WeatherCatV1.21B27,2013-10-27 03:25:00,
2013-10-26 22:26:00,36.4,29.2,30.16,NNW,347,0.0,0.0,75,0.00,,,0.00,0,WeatherCatV1.21B27,2013-10-27 03:26:00,
2013-10-26 22:27:00,36.5,29.0,30.16,NNW,346,0.0,0.0,74,0.00,,,0.00,0,WeatherCatV1.21B27,2013-10-27 03:27:00,
2013-10-26 22:29:00,36.6,29.1,30.16,NNW,347,0.0,0.0,74,0.00,,,0.00,0,WeatherCatV1.21B27,2013-10-27 03:29:00,
2013-10-26 22:31:00,36.7,29.2,30.16,NNW,346,0.0,0.0,74,0.00,,,0.00,0,WeatherCatV1.21B27,2013-10-27 03:31:00,
2013-10-26 22:32:00,36.8,29.0,30.15,NNW,346,0.0,0.0,73,0.00,,,0.00,0,WeatherCatV1.21B27,2013-10-27 03:32:00,
2013-10-26 22:34:00,36.9,28.7,30.16,NNW,346,0.0,0.0,72,0.00,,,0.00,0,WeatherCatV1.21B27,2013-10-27 03:34:00,
2013-10-26 22:35:00,36.9,28.7,30.16,NNW,347,0.0,0.0,72,0.00,,,0.00,0,WeatherCatV1.21B27,2013-10-27 03:35:00,
2013-10-26 22:36:00,36.9,28.7,30.16,NNW,347,0.0,1.0,72,0.00,,,0.00,0,WeatherCatV1.21B27,2013-10-27 03:36:00,
2013-10-26 22:37:00,37.0,28.8,30.16,NNW,347,0.0,1.0,72,0.00,,,0.00,0,WeatherCatV1.21B27,2013-10-27 03:37:00,
2013-10-26 22:40:00,37.1,28.9,30.16,NNW,346,0.0,0.0,72,0.00,,,0.00,0,WeatherCatV1.21B27,2013-10-27 03:40:00,
2013-10-26 22:41:00,37.1,28.9,30.15,NNW,347,0.0,0.0,72,0.00,,,0.00,0,WeatherCatV1.21B27,2013-10-27 03:41:00,
2013-10-26 22:42:00,37.1,28.6,30.15,NNW,346,0.0,0.0,71,0.00,,,0.00,0,WeatherCatV1.21B27,2013-10-27 03:42:00,
2013-10-26 22:43:00,37.1,28.6,30.15,NNW,347,0.0,0.0,71,0.00,,,0.00,0,WeatherCatV1.21B27,2013-10-27 03:43:00,
2013-10-26 22:45:00,37.1,28.6,30.15,NNW,346,0.0,0.0,71,0.00,,,0.00,0,WeatherCatV1.21B27,2013-10-27 03:45:00,
2013-10-26 22:46:00,37.1,28.6,30.15,NNW,347,0.0,0.0,71,0.00,,,0.00,0,WeatherCatV1.21B27,2013-10-27 03:46:00,
2013-10-26 22:47:00,37.1,28.6,30.15,NNW,346,0.0,0.0,71,0.00,,,0.00,0,WeatherCatV1.21B27,2013-10-27 03:47:00,
2013-10-26 22:49:00,37.1,28.6,30.15,NNW,347,0.0,0.0,71,0.00,,,0.00,0,WeatherCatV1.21B27,2013-10-27 03:49:00,
2013-10-26 22:50:00,37.1,28.6,30.16,NNW,346,0.0,0.0,71,0.00,,,0.00,0,WeatherCatV1.21B27,2013-10-27 03:50:00,
2013-10-26 22:51:00,37.1,28.6,30.16,NNW,346,0.0,0.0,71,0.00,,,0.00,0,WeatherCatV1.21B27,2013-10-27 03:51:00,
2013-10-26 22:53:00,37.0,28.5,30.16,NNW,347,0.0,0.0,71,0.00,,,0.00,0,WeatherCatV1.21B27,2013-10-27 03:53:00,
2013-10-26 22:54:00,36.9,28.4,30.16,NNW,346,0.0,0.0,71,0.00,,,0.00,0,WeatherCatV1.21B27,2013-10-27 03:54:00,
2013-10-26 22:56:00,36.8,28.3,30.16,NNW,347,0.0,0.0,71,0.00,,,0.00,0,WeatherCatV1.21B27,2013-10-27 03:56:00,
2013-10-26 22:58:00,36.7,28.2,30.16,NNW,347,0.0,0.0,71,0.00,,,0.00,0,WeatherCatV1.21B27,2013-10-27 03:58:00,
2013-10-26 22:59:00,36.7,28.2,30.16,NNW,346,0.0,0.0,71,0.00,,,0.00,0,WeatherCatV1.21B27,2013-10-27 03:59:00,
2013-10-26 23:01:00,36.7,28.2,30.16,NNW,346,0.0,0.0,71,0.00,,,0.00,0,WeatherCatV1.21B27,2013-10-27 04:01:00,
2013-10-26 23:02:00,36.7,28.2,30.16,NNW,347,0.0,0.0,71,0.00,,,0.00,0,WeatherCatV1.21B27,2013-10-27 04:02:00,
2013-10-26 23:06:00,36.6,28.4,30.16,NNW,346,0.0,0.0,72,0.00,,,0.00,0,WeatherCatV1.21B27,2013-10-27 04:06:00,
2013-10-26 23:07:00,36.6,28.4,30.16,NNW,346,0.0,0.0,72,0.00,,,0.00,0,WeatherCatV1.21B27,2013-10-27 04:07:00,
2013-10-26 23:11:00,36.4,28.2,30.16,NNW,347,0.0,0.0,72,0.00,,,0.00,0,WeatherCatV1.21B27,2013-10-27 04:11:00,
2013-10-26 23:12:00,36.4,28.2,30.16,NNW,347,0.0,0.0,72,0.00,,,0.00,0,WeatherCatV1.21B27,2013-10-27 04:12:00,
2013-10-26 23:17:00,36.2,28.4,30.16,NNW,346,0.0,0.0,73,0.00,,,0.00,0,WeatherCatV1.21B27,2013-10-27 04:17:00,
2013-10-26 23:18:00,36.1,28.3,30.16,NNW,347,0.0,0.0,73,0.00,,,0.00,0,WeatherCatV1.21B27,2013-10-27 04:18:00,
2013-10-26 23:22:00,35.9,28.1,30.16,NNW,347,0.0,0.0,73,0.00,,,0.00,0,WeatherCatV1.21B27,2013-10-27 04:22:00,
2013-10-26 23:23:00,35.8,28.0,30.16,NNW,347,0.0,0.0,73,0.00,,,0.00,0,WeatherCatV1.21B27,2013-10-27 04:23:00,
2013-10-26 23:27:00,35.7,28.2,30.16,NNW,347,0.0,0.0,74,0.00,,,0.00,0,WeatherCatV1.21B27,2013-10-27 04:27:00,
2013-10-26 23:28:00,35.8,28.3,30.16,NNW,347,0.0,0.0,74,0.00,,,0.00,0,WeatherCatV1.21B27,2013-10-27 04:28:00,
2013-10-26 23:29:00,35.8,28.0,30.16,NNW,346,0.0,0.0,73,0.00,,,0.00,0,WeatherCatV1.21B27,2013-10-27 04:29:00,
2013-10-26 23:32:00,36.0,28.2,30.16,NNW,346,0.0,0.0,73,0.00,,,0.00,0,WeatherCatV1.21B27,2013-10-27 04:32:00,
2013-10-26 23:33:00,36.1,28.3,30.16,NNW,346,0.0,0.0,73,0.00,,,0.00,0,WeatherCatV1.21B27,2013-10-27 04:33:00,
2013-10-26 23:34:00,36.1,28.3,30.16,NNW,346,0.0,0.0,73,0.00,,,0.00,0,WeatherCatV1.21B27,2013-10-27 04:34:00,
2013-10-26 23:35:00,36.2,28.4,30.16,NNW,346,0.0,0.0,73,0.00,,,0.00,0,WeatherCatV1.21B27,2013-10-27 04:35:00,
2013-10-26 23:37:00,36.4,28.6,30.15,NNW,347,0.0,0.0,73,0.00,,,0.00,0,WeatherCatV1.21B27,2013-10-27 04:37:00,
2013-10-26 23:39:00,36.4,28.2,30.16,NNW,347,0.0,0.0,72,0.00,,,0.00,0,WeatherCatV1.21B27,2013-10-27 04:39:00,
2013-10-26 23:40:00,36.4,28.2,30.15,NNW,347,0.0,0.0,72,0.00,,,0.00,0,WeatherCatV1.21B27,2013-10-27 04:40:00,
2013-10-26 23:42:00,36.4,28.2,30.16,NNW,347,0.0,0.0,72,0.00,,,0.00,0,WeatherCatV1.21B27,2013-10-27 04:42:00,
2013-10-26 23:44:00,36.4,28.2,30.16,NNW,346,0.0,0.0,72,0.00,,,0.00,0,WeatherCatV1.21B27,2013-10-27 04:44:00,
2013-10-26 23:45:00,36.4,28.2,30.15,NNW,346,0.0,0.0,72,0.00,,,0.00,0,WeatherCatV1.21B27,2013-10-27 04:45:00,
2013-10-26 23:47:00,36.3,28.1,30.15,NNW,346,0.0,0.0,72,0.00,,,0.00,0,WeatherCatV1.21B27,2013-10-27 04:47:00,
2013-10-26 23:49:00,36.2,28.1,30.15,NNW,346,0.0,0.0,72,0.00,,,0.00,0,WeatherCatV1.21B27,2013-10-27 04:49:00,
2013-10-26 23:50:00,36.1,28.0,30.15,NNW,346,0.0,0.0,72,0.00,,,0.00,0,WeatherCatV1.21B27,2013-10-27 04:50:00,
2013-10-26 23:52:00,36.0,27.9,30.15,NNW,347,0.0,0.0,72,0.00,,,0.00,0,WeatherCatV1.21B27,2013-10-27 04:52:00,
2013-10-26 23:54:00,36.0,28.2,30.14,NNW,346,0.0,0.0,73,0.00,,,0.00,0,WeatherCatV1.21B27,2013-10-27 04:54:00,
2013-10-26 23:55:00,36.0,28.2,30.14,NNW,347,0.0,0.0,73,0.00,,,0.00,0,WeatherCatV1.21B27,2013-10-27 04:55:00,
2013-10-26 23:56:00,35.9,28.1,30.14,NNW,346,0.0,0.0,73,0.00,,,0.00,0,WeatherCatV1.21B27,2013-10-27 04:56:00,
2013-10-26 23:57:00,36.0,28.2,30.14,NNW,347,0.0,1.0,73,0.00,,,0.00,0,WeatherCatV1.21B27,2013-10-27 04:57:00,
2013-10-26 23:58:00,35.9,28.1,30.14,NNW,347,0.0,1.0,73,0.00,,,0.00,0,WeatherCatV1.21B27,2013-10-27 04:58:00,
2013-10-26 23:59:00,35.9,28.1,30.14,NNW,347,0.0,0.0,73,0.00,,,0.00,0,WeatherCatV1.21B27,2013-10-27 04:59:00,